[[{"header":{"parameterUnit":"m.s-1","parameterCategory":1,"la1":30.6,"la2":29.2853,"lo1":-89.7004,"lo2":-87.6739,"dy":0.0162,"dx":0.0183,"nx":112,"ny":82,"refTime":"2023-03-27T18:00:00:Z","depth":0,"parameterNumber":2,"parameterNumberName":"U-component_of_WINDS"},"data":[0.0,0.0,0.0,0.0,0.0,0.0,0.0,0.0,0.0,0.0,0.0,0.0,0.0,0.0,0.0,0.0,0.0,0.0,0.0,0.0,0.0,0.0,0.0,0.0,0.0,0.0,0.0,0.0,0.0,0.0,0.0,0.0,0.0,0.0,0.0,0.0,0.0,0.0,0.0,0.0,0.0,0.0,0.0,0.0,0.0,0.0,0.0,0.0,0.0,0.0,0.0,0.0,0.0,0.0,0.0,0.0,0.0,0.0,0.0,0.0,0.0,0.0,0.0,0.0,0.0,0.0,0.0,0.0,0.0,0.0,0.0,0.0,0.0,0.0,0.0,0.0,0.0,0.0,0.0,0.0,0.0,0.0,0.0,0.0,0.0,0.0,0.0,0.0,0.0,0.0,0.0,-1.2191,-0.9774,-0.8054,-0.7948,-0.9551,-1.2789,-1.7972,0.0,0.0,0.0,0.0,0.0,0.0,0.0,0.0,0.0,0.0,0.0,0.0,0.0,0.0,0.0,0.0,0.0,0.0,0.0,0.0,0.0,0.0,0.0,0.0,0.0,0.0,0.0,0.0,0.0,0.0,0.0,0.0,0.0,0.0,0.0,0.0,0.0,0.0,0.0,0.0,0.0,0.0,0.0,0.0,0.0,0.0,0.0,0.0,0.0,0.0,0.0,0.0,0.0,0.0,0.0,0.0,0.0,0.0,0.0,0.0,0.0,0.0,0.0,0.0,0.0,0.0,0.0,0.0,0.0,0.0,0.0,0.0,0.0,0.0,0.0,0.0,0.0,0.0,0.0,0.0,0.0,0.0,0.0,0.0,0.0,0.0,0.0,0.0,0.0,0.0,0.0,0.0,0.0,0.0,0.0,0.0,0.0,0.0,0.0,0.0,0.0,0.0,0.0,0.0,-1.1743,-0.8087,-0.7694,-0.7794,-0.8044,-0.8712,-1.1486,-1.7049,0.0,0.0,0.0,0.0,0.0,0.0,0.0,0.0,0.0,0.0,0.0,0.0,0.0,0.0,0.0,0.0,0.0,0.0,0.0,0.0,0.0,0.0,0.0,0.0,0.0,0.0,0.0,0.0,0.0,0.0,0.0,0.0,0.0,0.0,0.0,0.0,0.0,0.0,0.0,0.0,0.0,0.0,0.0,0.0,0.0,0.0,0.0,0.0,0.0,0.0,0.0,0.0,0.0,0.0,0.0,0.0,0.0,0.0,0.0,0.0,0.0,0.0,0.0,0.0,0.0,0.0,0.0,0.0,0.0,0.0,0.0,0.0,0.0,0.0,0.0,0.0,0.0,0.0,0.0,0.0,0.0,0.0,0.0,0.0,0.0,0.0,0.0,0.0,0.0,0.0,0.0,0.0,0.0,0.0,0.0,0.0,0.0,0.0,0.0,0.0,0.0,0.0,0.0,-1.3757,-1.2294,-0.773,-0.7463,-0.7421,-0.7002,-0.7894,-1.1215,-1.7664,-1.759,0.0,0.0,0.0,0.0,0.0,0.0,0.0,0.0,0.0,0.0,0.0,0.0,0.0,0.0,0.0,0.0,0.0,0.0,0.0,0.0,0.0,0.0,0.0,0.0,0.0,0.0,0.0,0.0,0.0,0.0,0.0,0.0,0.0,0.0,0.0,0.0,0.0,0.0,0.0,0.0,0.0,0.0,0.0,0.0,0.0,0.0,0.0,0.0,0.0,0.0,0.0,0.0,0.0,0.0,0.0,0.0,0.0,0.0,0.0,0.0,0.0,0.0,0.0,0.0,0.0,0.0,0.0,0.0,0.0,0.0,0.0,0.0,0.0,0.0,0.0,0.0,0.0,0.0,0.0,0.0,0.0,0.0,0.0,0.0,0.0,0.0,0.0,0.0,0.0,0.0,0.0,0.0,0.0,0.0,0.0,0.0,0.0,0.0,0.0,0.0,0.0,0.0,-1.309,-1.1633,-0.7839,-0.7378,-0.7247,-0.701,-0.7754,-1.1182,-1.8137,-1.7161,0.0,0.0,0.0,0.0,0.0,0.0,0.0,0.0,0.0,0.0,0.0,0.0,0.0,0.0,0.0,0.0,0.0,0.0,0.0,0.0,0.0,0.0,0.0,0.0,0.0,0.0,0.0,0.0,0.0,0.0,0.0,0.0,0.0,0.0,0.0,0.0,0.0,0.0,0.0,0.0,0.0,0.0,0.0,0.0,0.0,0.0,0.0,0.0,0.0,0.0,0.0,0.0,0.0,0.0,0.0,0.0,0.0,0.0,0.0,0.0,0.0,0.0,0.0,0.0,0.0,0.0,0.0,0.0,0.0,0.0,0.0,0.0,0.0,0.0,0.0,0.0,0.0,0.0,0.0,0.0,0.0,0.0,0.0,0.0,0.0,0.0,0.0,0.0,0.0,0.0,0.0,0.0,0.0,0.0,0.0,0.0,0.0,0.0,0.0,0.0,0.0,0.0,-1.1415,-0.8541,-0.6863,-0.661,-0.7473,-0.9721,-0.8913,-1.1032,-1.7461,-1.7001,0.0,0.0,0.0,0.0,0.0,0.0,0.0,0.0,0.0,0.0,0.0,0.0,0.0,0.0,0.0,0.0,0.0,0.0,0.0,0.0,0.0,0.0,0.0,0.0,0.0,0.0,0.0,0.0,0.0,0.0,0.0,0.0,0.0,0.0,0.0,0.0,0.0,0.0,0.0,0.0,0.0,0.0,0.0,0.0,0.0,0.0,0.0,0.0,0.0,0.0,0.0,0.0,0.0,0.0,0.0,0.0,0.0,0.0,0.0,0.0,0.0,0.0,0.0,0.0,0.0,0.0,0.0,0.0,0.0,0.0,0.0,0.0,0.0,0.0,0.0,0.0,0.0,0.0,0.0,0.0,0.0,0.0,0.0,0.0,0.0,0.0,0.0,0.0,0.0,0.0,0.0,0.0,0.0,0.0,0.0,0.0,0.0,0.0,0.0,0.0,0.0,0.0,-1.3106,-1.0596,0.0,-0.8278,-0.8603,-1.0079,-0.9751,-1.1629,-1.6678,0.0,0.0,0.0,0.0,0.0,0.0,0.0,0.0,0.0,0.0,0.0,0.0,0.0,0.0,0.0,0.0,0.0,0.0,0.0,0.0,0.0,0.0,0.0,0.0,0.0,0.0,0.0,0.0,0.0,0.0,0.0,0.0,0.0,0.0,0.0,0.0,0.0,0.0,0.0,0.0,0.0,0.0,0.0,0.0,0.0,0.0,0.0,0.0,0.0,0.0,0.0,0.0,0.0,0.0,0.0,0.0,0.0,0.0,0.0,0.0,0.0,0.0,0.0,0.0,0.0,0.0,0.0,0.0,0.0,0.0,0.0,0.0,0.0,0.0,0.0,0.0,0.0,0.0,0.0,0.0,0.0,0.0,0.0,0.0,0.0,0.0,0.0,0.0,0.0,0.0,0.0,0.0,0.0,0.0,0.0,0.0,0.0,0.0,0.0,0.0,0.0,0.0,-1.6144,-1.3588,-1.1422,0.0,-0.9613,-0.9567,-1.0183,-0.9718,-1.1453,-1.6267,0.0,0.0,0.0,0.0,0.0,0.0,0.0,0.0,0.0,0.0,0.0,0.0,0.0,0.0,0.0,0.0,0.0,0.0,0.0,0.0,0.0,0.0,0.0,0.0,0.0,0.0,0.0,0.0,0.0,0.0,0.0,0.0,0.0,0.0,0.0,0.0,0.0,0.0,0.0,0.0,0.0,0.0,0.0,0.0,0.0,0.0,0.0,0.0,0.0,0.0,0.0,0.0,0.0,0.0,0.0,0.0,0.0,0.0,0.0,0.0,0.0,0.0,0.0,0.0,0.0,0.0,0.0,0.0,0.0,0.0,0.0,0.0,0.0,0.0,0.0,0.0,0.0,0.0,0.0,0.0,0.0,0.0,0.0,0.0,0.0,0.0,0.0,0.0,0.0,0.0,0.0,0.0,0.0,0.0,0.0,0.0,0.0,0.0,0.0,0.0,0.0,0.0,-1.5125,-1.2166,-1.0185,-1.0198,-1.0182,-1.0204,-1.0285,-0.8702,-1.0273,0.0,0.0,0.0,0.0,0.0,0.0,0.0,0.0,0.0,0.0,0.0,0.0,0.0,0.0,0.0,0.0,0.0,0.0,0.0,0.0,0.0,0.0,0.0,0.0,0.0,0.0,0.0,0.0,0.0,0.0,0.0,0.0,0.0,0.0,0.0,0.0,0.0,0.0,0.0,0.0,0.0,0.0,0.0,0.0,0.0,0.0,0.0,0.0,0.0,0.0,0.0,0.0,0.0,0.0,0.0,0.0,0.0,0.0,0.0,0.0,0.0,0.0,0.0,0.0,0.0,0.0,0.0,0.0,0.0,0.0,0.0,0.0,0.0,0.0,0.0,0.0,0.0,0.0,0.0,0.0,0.0,0.0,0.0,0.0,0.0,0.0,0.0,0.0,0.0,0.0,0.0,0.0,0.0,0.0,0.0,0.0,0.0,0.0,0.0,0.0,0.0,0.0,0.0,-1.3951,-1.1197,-0.9532,-1.0207,-0.9718,-0.9367,-0.9391,-0.8919,-1.0839,-1.6025,0.0,0.0,0.0,0.0,0.0,0.0,0.0,0.0,0.0,0.0,0.0,0.0,0.0,0.0,0.0,0.0,0.0,0.0,0.0,0.0,0.0,0.0,0.0,0.0,0.0,0.0,0.0,0.0,0.0,0.0,0.0,0.0,0.0,0.0,0.0,0.0,0.0,0.0,0.0,0.0,0.0,0.0,0.0,0.0,0.0,0.0,0.0,0.0,0.0,0.0,0.0,0.0,0.0,0.0,0.0,0.0,0.0,0.0,0.0,0.0,0.0,0.0,0.0,0.0,0.0,0.0,0.0,0.0,0.0,0.0,0.0,0.0,0.0,0.0,0.0,0.0,0.0,0.0,0.0,0.0,0.0,0.0,0.0,0.0,0.0,0.0,0.0,0.0,0.0,0.0,0.0,0.0,0.0,0.0,0.0,0.0,0.0,0.0,0.0,0.0,0.0,0.0,-1.4538,-1.1598,-0.9937,-1.1191,-1.0254,-0.9511,-0.9512,-0.8554,-1.0073,-1.5042,0.0,0.0,0.0,0.0,0.0,0.0,0.0,0.0,0.0,0.0,0.0,0.0,0.0,0.0,0.0,0.0,0.0,0.0,0.0,0.0,0.0,0.0,0.0,0.0,0.0,0.0,0.0,0.0,0.0,0.0,0.0,0.0,0.0,0.0,0.0,0.0,0.0,0.0,0.0,0.0,0.0,0.0,0.0,0.0,0.0,0.0,0.0,0.0,0.0,0.0,0.0,0.0,0.0,0.0,0.0,0.0,0.0,0.0,0.0,0.0,0.0,0.0,0.0,0.0,0.0,0.0,0.0,0.0,0.0,0.0,0.0,0.0,0.0,0.0,0.0,0.0,0.0,0.0,0.0,0.0,0.0,0.0,0.0,0.0,0.0,0.0,0.0,0.0,0.0,0.0,0.0,0.0,0.0,0.0,0.0,0.0,0.0,0.0,0.0,0.0,0.0,0.0,-1.5954,-1.2521,-1.0644,-1.246,-1.1168,-1.0247,-1.0405,-0.8236,-0.8928,-1.3761,0.0,0.0,0.0,0.0,0.0,0.0,0.0,0.0,0.0,0.0,0.0,0.0,0.0,0.0,0.0,0.0,0.0,0.0,0.0,0.0,0.0,0.0,0.0,0.0,0.0,0.0,0.0,0.0,0.0,0.0,0.0,0.0,0.0,0.0,0.0,0.0,0.0,0.0,0.0,0.0,0.0,0.0,0.0,0.0,0.0,0.0,0.0,0.0,0.0,0.0,0.0,0.0,0.0,0.0,0.0,0.0,0.0,0.0,0.0,0.0,-1.2693,0.0,0.0,0.0,0.0,0.0,0.0,0.0,0.0,0.0,0.0,0.0,0.0,0.0,0.0,0.0,0.0,0.0,0.0,0.0,0.0,0.0,0.0,0.0,0.0,0.0,0.0,0.0,0.0,0.0,0.0,0.0,0.0,0.0,0.0,0.0,0.0,0.0,0.0,0.0,0.0,0.0,-1.4295,-1.0224,-0.8163,-1.0601,-0.9917,-0.9838,-1.1205,-1.0814,-1.142,-1.3643,0.0,0.0,0.0,0.0,0.0,0.0,0.0,0.0,0.0,0.0,0.0,0.0,0.0,0.0,0.0,0.0,0.0,0.0,0.0,0.0,0.0,0.0,0.0,0.0,0.0,0.0,0.0,0.0,0.0,0.0,0.0,0.0,0.0,0.0,0.0,0.0,0.0,0.0,0.0,0.0,0.0,0.0,0.0,0.0,0.0,0.0,0.0,0.0,0.0,0.0,0.0,0.0,0.0,0.0,0.0,0.0,0.0,0.0,0.0,0.0,0.0,-1.3727,0.0,0.0,0.0,0.0,0.0,0.0,0.0,0.0,0.0,0.0,0.0,0.0,0.0,0.0,0.0,0.0,0.0,0.0,0.0,0.0,0.0,0.0,0.0,0.0,0.0,0.0,0.0,0.0,0.0,0.0,0.0,0.0,0.0,0.0,0.0,0.0,0.0,0.0,0.0,0.0,-1.4353,-1.0878,-0.9098,-1.1279,-1.1476,-1.1828,-1.2723,-1.2411,-1.3012,-1.502,-1.5443,0.0,0.0,0.0,0.0,0.0,0.0,0.0,0.0,0.0,0.0,0.0,0.0,0.0,0.0,0.0,0.0,0.0,0.0,0.0,0.0,0.0,0.0,0.0,0.0,0.0,0.0,0.0,0.0,0.0,0.0,0.0,0.0,0.0,0.0,0.0,0.0,0.0,0.0,0.0,0.0,0.0,0.0,0.0,0.0,0.0,0.0,0.0,0.0,0.0,0.0,0.0,0.0,0.0,0.0,-1.7174,-1.8054,-1.7471,-1.6017,-1.4098,-1.5827,-1.4741,-1.2036,0.0,0.0,0.0,0.0,0.0,0.0,0.0,0.0,0.0,0.0,0.0,0.0,0.0,0.0,0.0,0.0,0.0,0.0,0.0,0.0,0.0,0.0,0.0,0.0,0.0,-1.6489,-1.6355,0.0,0.0,0.0,0.0,0.0,0.0,0.0,0.0,0.0,0.0,0.0,0.0,-1.4348,-1.1795,-1.0659,-1.2796,-1.368,-1.4286,-1.4731,-1.4263,-1.4648,-1.6347,-1.7697,-1.794,0.0,0.0,0.0,0.0,0.0,0.0,0.0,0.0,0.0,0.0,0.0,0.0,0.0,0.0,0.0,0.0,0.0,0.0,0.0,0.0,0.0,0.0,0.0,0.0,0.0,0.0,0.0,0.0,0.0,0.0,0.0,0.0,-0.4217,-0.3282,0.0,0.0,0.0,0.0,0.0,0.0,0.0,0.0,0.0,0.0,0.0,0.0,0.0,0.0,-1.7269,-1.6841,-1.6798,-1.7122,-1.5472,-1.4882,-1.5239,-1.5192,-1.5035,-1.4779,-1.5175,0.0,-1.3462,-1.2308,0.0,0.0,0.0,0.0,0.0,0.0,0.0,0.0,0.0,0.0,0.0,0.0,0.0,0.0,0.0,0.0,0.0,0.0,0.0,0.0,0.0,0.0,-1.5272,-1.4618,-1.5609,-1.6644,0.0,-1.7862,-1.9344,-2.0073,0.0,0.0,0.0,0.0,0.0,0.0,0.0,0.0,-1.1931,-0.9686,-0.9559,-1.3505,-1.4027,-1.503,-1.7294,-1.8074,-1.7594,-1.5619,-1.6376,-1.7316,-1.8289,-1.5972,0.0,0.0,0.0,0.0,0.0,0.0,0.0,0.0,0.0,0.0,0.0,0.0,0.0,0.0,0.0,0.0,0.0,0.0,0.0,0.0,0.0,0.0,0.0,0.0,0.0,0.0,0.0,0.0,0.0,-0.5747,-0.8225,-0.8607,-0.9055,-0.9991,0.0,0.0,0.0,0.0,0.0,0.0,0.0,0.0,0.0,-1.3889,-1.5341,-1.5942,-1.5562,-1.5264,-1.5245,-1.552,-1.4696,-1.4399,-1.4591,-1.4695,-1.479,-1.4852,-1.4957,-1.4831,-1.4587,-1.4654,-1.5902,-1.7744,0.0,0.0,0.0,0.0,0.0,-1.6667,-1.5889,0.0,0.0,0.0,0.0,0.0,0.0,0.0,0.0,0.0,0.0,0.0,0.0,0.0,0.0,-1.4426,-1.5069,-1.6239,-1.723,-1.7953,-1.8957,0.0,-2.1035,-2.0817,-2.0245,0.0,0.0,0.0,0.0,0.0,-1.4293,-1.2948,-1.2705,-1.4625,-1.6156,-1.7489,-1.8621,-1.9486,-1.9464,-1.8236,-1.8491,-1.8287,-1.7396,-1.646,-1.7045,0.0,0.0,0.0,0.0,0.0,0.0,0.0,0.0,0.0,0.0,0.0,0.0,0.0,0.0,0.0,0.0,0.0,0.0,0.0,0.0,0.0,0.0,0.0,0.0,0.0,0.0,0.0,0.0,-0.7413,-1.0778,-1.228,-1.2378,-1.3494,0.0,0.0,0.0,0.0,0.0,0.0,-1.2741,-1.416,-1.4676,-1.4149,-1.5292,-1.5225,-1.3811,-1.3826,-1.3991,-1.4301,-1.4301,-1.4362,-1.4505,-1.4654,-1.4747,-1.4813,-1.4906,-1.5007,-1.5179,-1.6046,-1.6097,-1.5757,-1.6946,-1.7524,-1.7551,-1.6466,-1.6541,-1.7193,-1.7301,-1.7694,-1.8384,-1.9922,0.0,-1.8434,-1.7578,0.0,0.0,0.0,0.0,-1.5829,-1.4564,-1.5479,-1.6425,-1.535,-1.525,-1.5873,-1.7627,-1.7966,-1.8613,0.0,-2.1311,-2.1075,-2.0331,0.0,0.0,0.0,0.0,-1.6097,-1.6206,-1.5684,-1.5581,-1.6306,-1.8105,-1.9355,-1.959,-2.0145,-2.0456,-2.0381,-2.0301,-1.94,-1.74,-1.7286,-1.6877,-1.6067,0.0,0.0,0.0,0.0,0.0,0.0,0.0,0.0,0.0,0.0,0.0,0.0,0.0,0.0,0.0,0.0,0.0,0.0,0.0,0.0,0.0,0.0,0.0,0.0,0.0,0.0,0.0,0.0,0.0,-1.0391,-1.1427,0.0,0.0,0.0,0.0,-1.3486,-1.4569,-1.5207,-1.5399,-1.6151,-1.5767,-1.3961,-1.381,-1.3775,-1.3803,-1.387,-1.4035,-1.4289,-1.4289,-1.4368,-1.4509,-1.4708,-1.4799,-1.4817,-1.5004,-1.5099,-1.4979,-1.3483,-1.4634,-1.7231,-1.5815,-1.7129,-1.9744,-1.8997,-1.8267,-1.7667,-1.7747,-1.6764,-1.6012,-1.9185,-2.0208,-1.9893,-1.8331,-1.7078,0.0,0.0,-1.647,-1.6404,-1.6516,-1.6621,-1.6892,-1.7637,-1.6562,-1.5875,-1.7613,-1.7904,-1.8344,0.0,-2.0559,-2.0548,-2.0495,0.0,-1.8709,-1.705,-1.5981,-1.5384,-1.544,-1.536,-1.626,-1.8732,-1.9136,-1.9542,-2.0365,-2.0418,-2.0372,-2.0311,-2.0241,-2.0088,-1.9831,-1.7608,-1.7068,-1.8586,-1.5514,0.0,0.0,0.0,0.0,0.0,0.0,0.0,0.0,0.0,0.0,0.0,0.0,0.0,0.0,0.0,0.0,0.0,0.0,0.0,0.0,0.0,0.0,0.0,0.0,0.0,0.0,0.0,0.0,-1.28,-1.3123,0.0,0.0,-1.441,-1.3668,-1.6599,-1.5566,-1.525,-1.6319,-1.5595,-1.5071,-1.487,-1.4296,-1.3995,-1.398,-1.4527,-1.4898,-1.5088,-1.5684,-1.603,-1.6181,-1.633,-1.6455,-1.6531,-1.6613,-1.6383,-1.5883,-1.5292,-1.5433,-1.6004,-1.5955,-1.6349,-1.6862,-1.657,-1.6295,-1.6176,-1.6767,-1.6597,-1.6327,-1.7498,-1.79,-1.7721,-1.6618,-1.6017,-1.574,-1.5836,-1.5819,-1.5761,-1.584,-1.5859,-1.5937,-1.625,-1.5859,-1.5722,-1.6912,-1.7578,-1.8281,-1.9497,-2.0117,-2.0249,-1.9646,-1.9843,-1.9658,-1.8319,-1.7903,-1.7752,-1.7773,-1.7767,-1.8323,-1.9801,-2.0474,-2.0705,-2.0463,-2.0859,-2.0869,-2.0336,-2.0192,-2.0079,-1.9934,-1.7501,-1.5921,-1.5399,-1.5188,-1.5767,0.0,0.0,0.0,0.0,0.0,0.0,0.0,0.0,0.0,0.0,0.0,0.0,0.0,0.0,0.0,0.0,0.0,0.0,0.0,0.0,0.0,0.0,0.0,0.0,0.0,0.0,-1.2863,-1.4601,-1.4401,-1.5533,-1.9103,-1.6349,-1.5307,-1.7746,-1.5993,-1.5274,-1.6338,-1.5034,-1.4517,-1.5053,-1.4486,-1.4198,-1.427,-1.5042,-1.5527,-1.5717,-1.6633,-1.7125,-1.7195,-1.731,-1.7415,-1.7492,-1.754,-1.7293,-1.683,-1.6865,-1.6397,-1.5689,-1.5917,-1.5677,-1.5235,-1.545,-1.558,-1.5711,-1.6301,-1.6725,-1.6902,-1.6359,-1.6366,-1.6447,-1.5621,-1.5386,-1.5469,-1.5761,-1.6028,-1.6311,-1.661,-1.6686,-1.674,-1.7016,-1.6652,-1.6481,-1.7361,-1.7773,-1.8162,-1.8741,-1.9726,-2.0263,-1.9659,-2.0112,-2.0461,-2.0183,-1.9776,-1.9674,-2.0183,-1.9812,-1.9738,-2.0337,-2.09,-2.0984,-2.0429,-2.1018,-2.1073,-2.0253,-2.0332,-2.034,-2.0207,-1.8315,-1.6595,-1.5144,-1.6719,-1.7758,-1.8187,0.0,0.0,0.0,0.0,0.0,0.0,0.0,0.0,0.0,0.0,0.0,0.0,0.0,0.0,0.0,0.0,0.0,0.0,0.0,0.0,0.0,0.0,0.0,-1.1828,-1.2194,-1.3337,-1.5338,-1.4996,-1.5596,-1.8085,-1.6625,-1.5871,-1.675,-1.6069,-1.5626,-1.5654,-1.4737,-1.4295,-1.4434,-1.426,-1.4301,-1.461,-1.5368,-1.5873,-1.6144,-1.7026,-1.7446,-1.7483,-1.7539,-1.7572,-1.7586,-1.773,-1.7764,-1.7757,-1.7777,-1.7348,-1.6534,-1.5609,-1.5225,-1.5291,-1.6077,-1.6423,-1.6499,-1.6467,-1.7037,-1.7482,-1.5833,-1.5874,-1.6397,-1.5562,-1.5367,-1.5625,-1.6455,-1.7276,-1.8095,-1.8947,-1.9154,-1.9359,-2.0147,-1.908,-1.8135,-1.8973,-1.8567,-1.8047,-1.8043,-1.9426,-2.0599,-2.0566,-2.0523,-2.0954,-2.2284,-2.122,0.0,-2.2207,-2.1135,-2.0307,-2.0405,-2.0393,-2.037,-2.037,-2.0988,-2.0994,-2.0134,-2.0675,-2.0964,-2.0819,-2.0075,-1.9298,-1.851,-2.014,-2.1345,-2.2057,0.0,0.0,0.0,0.0,0.0,0.0,0.0,0.0,0.0,0.0,0.0,0.0,0.0,0.0,0.0,0.0,0.0,0.0,0.0,0.0,0.0,0.0,-1.4541,-1.3621,-1.4043,-1.4611,-1.5046,-1.4926,-1.5273,-1.6465,-1.6191,-1.6249,-1.7034,-1.639,-1.6223,-1.68,-1.5434,-1.4889,-1.5467,-1.5536,-1.5261,-1.4674,-1.614,-1.6905,-1.6983,-1.79,-1.8655,-1.9214,-1.9386,-1.946,-1.9464,-1.9547,-1.9246,-1.8678,-1.8042,-1.7663,-1.7383,-1.6493,-1.579,-1.5302,-1.5515,-1.6008,-1.6482,-1.5853,-1.6171,-1.6692,-1.5635,-1.5462,-1.5622,-1.5436,-1.582,-1.638,-1.6576,-1.7248,-1.7969,-1.8265,-1.8282,-1.8317,-1.853,-1.8235,-1.7973,-1.8216,-1.8577,-1.8877,-1.8863,-1.9775,-2.0339,-1.9684,-2.0094,-2.0395,-2.012,-1.9702,0.0,-1.9915,-1.9614,-1.9765,-2.0852,-2.1488,-2.1826,-2.1825,-2.2445,-2.2501,0.0,-2.1788,-2.1686,-2.1453,-2.1322,-2.1673,-2.2561,-2.1441,-2.2402,0.0,0.0,0.0,0.0,0.0,0.0,0.0,0.0,0.0,0.0,0.0,0.0,0.0,0.0,0.0,0.0,0.0,0.0,0.0,0.0,0.0,0.0,-1.6598,-1.7312,-1.6864,-1.6192,-1.5704,-1.5576,-1.5164,-1.5194,-1.5957,-1.6052,-1.639,-1.7175,-1.6532,-1.6299,-1.6768,-1.5537,-1.502,-1.5507,-1.5531,-1.5673,-1.5904,-1.6889,-1.7744,-1.8476,-1.905,-1.9373,-1.9502,-2.0004,-2.0045,0.0,-1.9767,-1.9555,-1.9073,-1.8224,-1.7886,0.0,0.0,0.0,0.0,0.0,-1.7008,-1.7112,-1.6986,-1.7023,-1.705,-1.6577,-1.6175,-1.5956,-1.6325,-1.6561,-1.6822,-1.7474,-1.8002,-1.8489,-1.8879,-1.8932,-1.8991,-1.9333,-1.9437,-1.9556,-1.9916,-2.0407,-2.0797,-2.0783,0.0,0.0,-2.0875,-2.0614,-2.0478,-2.053,-2.0312,-2.0353,-2.0907,-2.0769,-2.095,-2.1771,-2.223,-2.2467,-2.2447,-2.2994,0.0,0.0,0.0,-2.2206,-2.1677,-2.2408,0.0,0.0,0.0,-2.4237,0.0,0.0,0.0,0.0,-2.6847,-2.6651,0.0,0.0,0.0,0.0,0.0,0.0,0.0,0.0,0.0,0.0,0.0,0.0,0.0,0.0,0.0,0.0,-1.9219,-2.0557,-2.0676,-1.8522,-1.6827,-1.6538,-1.5576,-1.5306,-1.6247,-1.6238,-1.6537,-1.7396,-1.6722,-1.6276,-1.6272,0.0,0.0,0.0,0.0,-1.6,-1.7568,-1.7646,-1.8455,-1.9978,-2.003,-1.9715,-1.9092,-1.9932,-1.9889,-1.9176,-1.9333,-1.9447,-1.9435,-1.8728,-1.8415,-1.8301,-1.7188,-1.7218,-1.8009,-1.8817,-1.8733,0.0,0.0,0.0,0.0,-1.819,-1.7565,-1.699,-1.7793,-1.7555,-1.7288,-1.8701,-1.9239,-1.9569,-2.0269,-2.0511,-2.0762,-2.1482,-2.1698,-2.1969,-2.2724,-2.294,-2.2989,-2.2989,-2.2984,-2.2999,-2.2999,-2.1712,-2.1117,-2.2354,-2.2098,-2.2194,-2.3455,-2.3189,-2.2909,-2.2906,0.0,0.0,-2.273,-2.3154,-2.3061,-2.2216,-2.2684,-2.2638,-2.1871,-2.3268,-2.4075,-2.4107,-2.5092,-2.6206,-2.7437,-2.7477,-2.7731,-2.8142,-2.7623,-2.7517,0.0,0.0,0.0,0.0,0.0,0.0,0.0,0.0,0.0,0.0,0.0,0.0,0.0,0.0,0.0,-2.0295,-2.1568,-2.2475,-2.2482,-2.08,-1.8806,-1.6739,-1.5695,-1.5676,-1.7032,-1.7239,-1.7609,-1.8371,-1.7728,-1.731,-1.7314,-1.6524,0.0,-1.6998,-1.7741,-1.7921,-1.7515,-1.8316,-1.8878,-1.9216,0.0,0.0,-2.0031,-2.0277,-2.0281,-2.0173,-2.0935,-2.1288,-2.1282,-2.113,-2.1034,-2.0764,-1.8512,-1.7752,-1.8006,-1.8925,-1.9569,-1.9921,-1.9458,-1.9631,-1.9986,-1.9286,-1.8462,-1.7904,-1.8709,-1.8847,0.0,-1.9095,-2.0147,-2.1227,-2.1395,-2.1872,-2.2369,-2.2574,-2.2631,-2.2687,-2.2856,-2.2911,-2.2927,-2.2923,-2.2911,-2.2919,-2.2919,-2.2639,-2.252,-2.2774,-2.2727,-2.2759,-2.3017,-2.2964,-2.3062,-2.3482,-2.3495,-2.3682,-2.415,-2.4134,-2.404,-2.385,-2.3648,-2.3461,-2.3312,-2.3611,-2.3907,-2.419,-2.5531,-2.6312,-2.6461,-2.7576,-2.8044,-2.7876,-2.7875,-2.7748,0.0,0.0,0.0,0.0,0.0,0.0,0.0,0.0,0.0,0.0,0.0,-1.8974,0.0,0.0,-2.1798,-2.15,-2.2146,-2.2872,-2.3378,-2.1493,-1.9637,-1.8486,-1.7227,-1.6723,-1.7426,-1.7555,-1.7755,-1.8117,-1.7803,-1.7603,-1.7603,-1.7217,-1.7178,-1.754,-1.8048,-1.8474,-1.885,-1.8976,-1.9471,-2.0297,-1.9926,-1.9737,-1.9729,-2.0663,-2.0852,-2.0494,-2.1413,-2.1794,-2.1797,-2.1766,-2.1969,-2.2163,-2.0869,-2.0389,-2.0453,-2.0489,-2.1048,-2.1679,-2.0839,-2.1127,-2.1784,-2.1347,-2.0604,-2.0064,-2.0898,-2.0814,-2.0535,-2.0949,-2.1634,-2.2244,-2.2209,-2.2462,-2.287,-2.3349,-2.3458,-2.3568,-2.4,-2.4122,-2.4142,-2.4154,-2.4142,-2.4153,-2.4146,-2.4154,-2.3875,-2.3035,-2.3271,-2.3554,-2.3547,-2.3929,-2.4295,-2.4538,-2.449,-2.4511,-2.4696,-2.43,-2.4059,-2.4096,-2.3779,-2.3634,-2.3696,-2.37,-2.3806,-2.4054,-2.5192,-2.5918,-2.6157,-2.7125,-2.7668,-2.7821,-2.8135,-2.7999,0.0,0.0,0.0,0.0,0.0,0.0,0.0,0.0,-2.045,-2.0387,-2.152,-2.2218,-2.1222,-2.275,-2.3767,-2.2492,-2.2617,-2.3161,-2.3956,-2.1929,-2.0434,-2.0663,-1.8933,-1.7754,-1.7857,-1.7864,-1.7928,-1.8077,-1.7947,-1.7936,-1.8106,-1.7952,-1.7945,-1.8114,-1.818,-1.8843,-2.0215,-1.9641,-2.0025,-2.1359,-2.0726,-2.0132,-1.9671,-2.1125,-2.1512,-2.1047,-2.1933,-2.2381,-2.253,-2.2455,-2.2793,-2.3356,-2.3295,-2.3341,-2.3332,-2.2505,-2.2662,-2.3233,-2.2535,-2.2754,-2.3337,-2.3335,-2.2633,-2.1991,-2.3025,-2.2575,-2.1878,-2.2677,-2.2979,-2.3045,-2.2992,-2.3079,-2.3352,-2.4075,-2.4249,-2.4442,-2.5152,-2.5332,-2.5389,-2.5389,-2.5388,-2.5391,-2.5393,-2.5397,-2.4946,-2.3616,-2.4002,-2.4447,-2.4447,-2.5066,-2.5476,-2.5415,-2.5293,-2.509,-2.4771,-2.4192,-2.3899,-2.4031,-2.3815,-2.3742,-2.386,-2.3869,-2.3876,-2.3896,-2.486,-2.5599,-2.6057,-2.6746,-2.7309,-2.7766,-2.8324,-2.8148,-1.8762,-1.8619,-1.8317,-1.8887,-1.9256,-1.9768,0.0,0.0,-2.198,-2.2305,-2.2488,-2.2745,-2.3244,-2.3574,-2.391,-2.4297,-2.452,-2.4629,-2.4689,-2.3356,-2.2387,-2.2416,-1.9685,-1.8079,-1.8773,-1.8789,-1.9047,-1.9768,-1.9162,-1.9086,-1.9869,-1.9227,-1.9202,-1.997,-2.0019,-2.0099,-2.0289,-2.0266,-2.0349,-2.0531,-2.0507,-2.0842,-2.1498,-2.1715,-2.2167,-2.285,-2.3735,-2.4511,-2.5165,-2.5037,-2.5004,-2.5017,-2.4968,-2.4973,-2.4946,-2.4202,-2.4012,-2.415,-2.4048,-2.4076,-2.4174,-2.4166,-2.3097,-2.21,-2.3681,-2.3014,-2.187,-2.2663,-2.3404,-2.3955,-2.3955,-2.4423,-2.4943,-2.5039,-2.5118,-2.5172,-2.5273,-2.5312,-2.5313,-2.5313,-2.5361,-2.5407,-2.541,-2.5408,-2.5371,-2.5236,-2.5298,-2.5352,-2.5352,-2.543,-2.5476,-2.5415,-2.5384,-2.5154,-2.4576,-2.4183,-2.4124,-2.4503,-2.445,-2.4413,-2.4498,-2.4492,-2.4309,-2.3915,-2.522,-2.5919,-2.5929,-2.711,-2.7628,-2.7559,-2.8217,-2.8102,-1.7714,-1.8722,0.0,0.0,-1.9934,-2.1181,-2.1891,-2.256,-2.3024,-2.3047,-2.3338,-2.3415,-2.2867,-2.2797,-2.2932,0.0,-2.3479,-2.3681,-2.4006,-2.3132,-2.215,-2.1287,-2.0073,-1.9439,-1.972,-2.0145,-2.0565,-2.0939,-2.1128,-2.1397,-2.1751,-2.0978,-2.0679,-2.105,-2.0601,-2.0352,-2.0364,-2.0414,-2.0461,-2.0466,-2.1004,-2.144,-2.1834,-2.2851,-2.3788,-2.4639,-2.4994,-2.5295,-2.5537,-2.5439,-2.5357,-2.5298,-2.5236,-2.5242,-2.5206,-2.4384,-2.4471,-2.4921,-2.4411,-2.4604,-2.5041,-2.5013,-2.4521,-2.4162,-2.5338,-2.5162,-2.462,-2.4958,-2.5259,-2.5383,-2.4859,-2.4968,-2.5204,-2.5206,-2.522,-2.5247,-2.5247,-2.5278,-2.5308,-2.5308,-2.5317,-2.5341,-2.5382,-2.5395,-2.5412,-2.5484,-2.5507,-2.5507,-2.5507,-2.5507,-2.5472,-2.5416,-2.5236,-2.4987,-2.4708,-2.4691,-2.4751,-2.4883,-2.5159,-2.514,-2.4795,-2.4777,-2.4662,-2.4432,-2.5451,-2.6101,-2.63,-2.7271,-2.7857,-2.8097,-2.8779,-2.8902,-1.7288,0.0,0.0,-1.9277,-2.0454,-2.1971,-2.2338,-2.2863,-2.3241,-2.3104,-2.322,-2.2995,-2.1886,-2.1911,0.0,-2.2338,-2.2721,-2.3087,-2.34,-2.284,-2.1947,-2.0665,-2.045,-2.0474,-2.0685,-2.1208,-2.1554,-2.159,-2.2404,-2.2917,-2.2929,-2.2325,-2.1983,-2.2,-2.1229,-2.0797,-2.0791,-2.0591,-2.0504,-2.0544,-2.1171,-2.1718,-2.2226,-2.3963,-2.5109,-2.5706,-2.5663,-2.5585,-2.5479,-2.5395,-2.5322,-2.5275,-2.5214,-2.5225,-2.5203,-2.4565,-2.4782,-2.5339,-2.4682,-2.4911,-2.5454,-2.5417,-2.5399,-2.5557,-2.6401,-2.661,-2.6592,-2.6842,-2.6861,-2.6698,-2.6043,-2.5711,-2.5539,-2.5535,-2.5365,-2.5192,-2.5192,-2.5253,-2.5308,-2.5308,-2.5308,-2.5322,-2.5382,-2.541,-2.55,-2.5793,-2.5642,-2.5492,-2.5496,-2.5488,-2.5459,-2.537,-2.5074,-2.4922,-2.5032,-2.5124,-2.5325,-2.5654,-2.6009,-2.5995,-2.5559,-2.5506,-2.5368,-2.5147,-2.5846,-2.6347,-2.6595,-2.7514,-2.8132,-2.8518,-2.942,-2.9782,0.0,0.0,-1.963,-2.0431,-2.1075,-2.1718,-2.2512,-2.2452,-2.2301,-2.2483,-2.1665,-2.0846,-2.0667,-2.1337,-2.1991,-2.2257,-2.3232,-2.3812,-2.3374,-2.2941,-2.2408,-2.1633,-2.0872,-2.0762,0.0,-2.1662,-2.1593,-2.1599,-2.2413,-2.2921,-2.299,-2.2974,-2.2987,-2.3043,-2.2202,-2.1751,-2.1751,-2.0912,-2.0525,-2.0605,-2.0625,-2.1481,-2.3113,-2.4869,-2.5668,-2.5685,-2.5565,-2.5462,-2.5408,-2.5331,-2.5269,-2.5197,-2.5191,-2.5191,-2.5197,-2.5178,-2.5171,-2.5201,-2.5182,-2.5151,-2.5113,-2.5113,-2.5108,-2.5286,-2.6228,-2.646,-2.6584,-2.742,-2.7669,-2.7657,-2.7631,-2.6995,-2.637,-2.6364,-2.5761,-2.5192,-2.5192,-2.5253,-2.5308,-2.5308,-2.5308,-2.5322,-2.5382,-2.541,-2.5693,-2.6543,-2.599,-2.5496,-2.5495,-2.5445,-2.5376,-2.5317,-2.4999,-2.5043,-2.5617,-2.5311,-2.5679,-2.7058,-2.702,-2.7025,-2.7122,-2.7012,-2.6624,-2.5973,-2.6494,-2.6714,-2.6595,-2.7919,-2.8562,-2.8518,-2.9989,-3.0554,0.0,0.0,-2.1395,-2.1153,-2.2076,-2.2636,-2.1184,-2.0897,-2.0657,-1.9649,-1.9843,-2.0373,-2.0901,-2.1428,-2.2111,-2.3132,-2.3208,-2.3256,-2.3594,-2.3663,-2.3198,-2.1837,-2.1983,0.0,0.0,0.0,0.0,-2.3412,-2.4265,-2.4776,-2.4789,-2.4244,-2.3935,-2.396,-2.3124,-2.2656,-2.2655,-2.2363,-2.2243,-2.2262,-2.2844,-2.3692,-2.4781,-2.5407,-2.5703,-2.5694,-2.5556,-2.5466,-2.5383,-2.5332,-2.5264,-2.5191,-2.5191,-2.5191,-2.5185,-2.5157,-2.5075,-2.5018,-2.5101,-2.5111,-2.508,-2.5055,-2.5412,-2.6066,-2.6963,-2.7598,-2.8068,-2.8402,-2.851,-2.8377,-2.7835,-2.7491,-2.7262,-2.7262,-2.7064,-2.6864,-2.6912,-2.648,-2.6109,-2.6149,-2.5692,-2.5491,-2.6087,-2.6226,-2.6567,-2.7421,-2.6841,-2.63,-2.6308,-2.6275,-2.641,-2.6799,-2.6609,-2.6427,-2.6376,-2.6602,-2.6918,-2.732,-2.7794,-2.7797,-2.7225,-2.7156,-2.6941,-2.6535,-2.6617,-2.708,-2.7936,-2.8336,-2.9036,-2.9972,-3.0472,-3.0846,0.0,-2.2214,-2.2644,-2.2343,-2.3015,-2.324,-2.128,-2.0731,-2.0256,-1.8799,-1.9345,-2.0182,-2.0561,-2.0841,-2.1579,-2.3272,-2.2906,-2.2752,-2.3736,-2.4087,-2.3832,-2.2782,-2.3198,0.0,0.0,0.0,0.0,-2.4393,-2.5777,-2.6362,-2.5721,-2.576,-2.5507,-2.4883,-2.4315,-2.3885,-2.3574,-2.3257,-2.3092,-2.3065,-2.3958,-2.4622,-2.5109,-2.5471,-2.563,-2.5613,-2.5482,-2.5406,-2.535,-2.5288,-2.5409,-2.5606,-2.5306,-2.5382,-2.5581,-2.5222,-2.5018,-2.4915,-2.4981,-2.4981,-2.5,-2.5275,-2.593,-2.6797,-2.7716,-2.854,-2.922,-2.9329,-2.9357,-2.9242,-2.8733,-2.837,-2.8134,-2.8134,-2.7912,-2.7707,-2.7757,-2.7096,-2.6606,-2.696,-2.6341,-2.6048,-2.692,-2.7354,-2.7677,-2.7936,-2.7748,-2.7497,-2.7196,-2.7146,-2.7246,-2.7523,-2.7365,-2.7208,-2.7128,-2.7402,-2.7633,-2.7815,-2.826,-2.8268,-2.7656,-2.7548,-2.7402,-2.7228,-2.7334,-2.7787,-2.8594,-2.9087,-2.9799,-3.0696,-3.0919,-3.1188,-2.3112,-2.3398,-2.3383,-2.3996,-2.3962,-2.3573,-2.2669,-2.1793,-2.0881,-1.9777,-1.9952,-2.019,0.0,0.0,-2.0594,-2.2808,-2.2462,-2.2437,-2.3935,-2.4261,-2.4418,0.0,0.0,0.0,0.0,0.0,0.0,-2.4724,0.0,-2.7558,-2.5857,-2.732,-2.7454,-2.5747,-2.5734,-2.5347,-2.4488,-2.3648,-2.3185,-2.3137,-2.3979,-2.4326,-2.4288,-2.5116,-2.5517,-2.5496,-2.5364,-2.5305,-2.5293,-2.5234,-2.5644,-2.6256,-2.5497,-2.5663,-2.6243,-2.5406,-2.5018,-2.4888,-2.4823,-2.478,-2.4895,-2.5729,-2.6574,-2.7436,-2.8391,-2.9244,-2.9905,-3.0121,-3.0171,-3.0197,-3.0235,-2.9605,-2.8968,-2.9025,-2.8421,-2.7835,-2.7835,-2.7207,-2.6869,-2.77,-2.7248,-2.6991,-2.7825,-2.8685,-2.897,-2.8145,-2.8709,-2.896,-2.8154,-2.7991,-2.7849,-2.7642,-2.7379,-2.741,-2.7899,-2.77,-2.787,-2.8551,-2.8471,-2.838,-2.8367,-2.8176,-2.8053,-2.8053,-2.8581,-2.8812,-2.8715,-3.0127,-3.0784,-3.0765,-3.1345,-3.1578,-2.4969,-2.5309,-2.5338,-2.5933,-2.5668,-2.4674,-2.242,-2.0771,-1.9593,-1.9109,-1.9029,-1.9554,0.0,0.0,0.0,-2.359,-2.2952,0.0,-2.5721,-2.5604,0.0,0.0,0.0,-2.65,-2.6969,-2.8162,0.0,0.0,-2.7929,-2.7812,-2.6736,-2.7087,-2.6831,-2.5731,-2.6339,-2.6242,-2.5383,-2.5109,-2.492,-2.4876,-2.5082,-2.5162,-2.5096,-2.5432,-2.5561,-2.5573,-2.5431,-2.5372,-2.5373,-2.5239,-2.5325,-2.5497,-2.5287,-2.5325,-2.546,-2.5095,-2.4941,-2.4881,-2.4764,-2.5136,-2.571,-2.5925,-2.6918,-2.8063,-2.8322,-2.8933,-2.9551,-2.9653,-2.9792,-3.007,-3.0747,-3.0411,-3.0032,-3.0682,-3.0192,-2.9556,-2.9557,-2.8926,-2.844,-2.8718,-2.8599,-2.8555,-2.8813,-2.9555,-2.9976,-2.9651,-2.9761,-2.9632,-2.8977,-2.871,-2.8725,-2.9107,-2.8905,-2.8693,-2.8576,-2.8464,-2.8402,-2.8458,-2.8406,-2.83,-2.8109,-2.856,-2.8759,-2.8657,-2.926,-2.981,-3.0316,-3.0595,-3.099,-3.1524,-3.1678,-3.169,-2.592,-2.6434,-2.6705,-2.7125,-2.6607,-2.5386,-2.3124,-2.2036,-2.1179,-2.0075,-2.0351,0.0,0.0,0.0,0.0,0.0,0.0,0.0,-2.5381,-2.5692,-2.5965,0.0,-2.6987,0.0,-2.8065,-2.9023,-2.9551,0.0,-2.9433,-2.8886,-2.7633,-2.7926,-2.7573,-2.6319,-2.6749,-2.6573,-2.5713,-2.5627,-2.5565,-2.5493,-2.5476,-2.5436,-2.5395,-2.5486,-2.5505,-2.5502,0.0,-2.5361,-2.5351,-2.5248,-2.5421,-2.5682,-2.5344,-2.5607,-2.6155,-2.5644,-2.5442,-2.5456,-2.5705,-2.6115,-2.6526,-2.6567,-2.7399,-2.8482,-2.881,-2.9458,-3.0055,-2.9989,-3.0377,-3.0931,-3.1458,-3.1414,-3.1272,-3.1386,-3.1073,-3.067,-3.0282,-2.9576,-2.9111,-2.9543,-2.9938,-3.0206,-3.0242,-3.0541,-3.0631,-3.0174,-2.998,-2.989,-2.9858,-2.9464,-2.9274,-2.9495,-2.9387,-2.9155,-2.8834,-2.9083,-2.917,-2.8945,-2.9169,-2.924,-2.9027,-2.9344,-2.9499,-2.9439,-3.0064,-3.0558,-3.0907,-3.1114,-3.1423,-3.18,-3.1727,-3.1709,-2.6428,-2.7185,-2.7768,-2.7915,-2.7174,-2.5967,-2.4329,-2.4151,-2.3774,-2.1839,0.0,-2.3355,-2.2851,0.0,-2.1112,-2.2815,0.0,-2.2487,-2.4444,-2.5194,-2.5898,-2.6875,-2.7109,-2.7773,-2.9277,-2.9648,-3.0098,-3.084,-3.0898,-3.0195,-2.8551,-2.9078,-2.8686,-2.7041,-2.6885,-2.6514,-2.5871,-2.569,-2.5568,-2.5504,-2.5432,-2.5391,-2.541,-2.5406,-2.5426,-2.5425,0.0,0.0,-2.5302,-2.5231,-2.5606,-2.6179,-2.5466,-2.599,-2.7098,-2.6311,-2.6049,-2.6189,-2.6825,-2.7119,-2.723,-2.7425,-2.8102,-2.8981,-2.9511,-3.0218,-3.0798,-3.0599,-3.1194,-3.1934,-3.217,-3.2298,-3.2226,-3.1624,-3.139,-3.1107,-3.0357,-2.9735,-2.9551,-3.0299,-3.1162,-3.1764,-3.1764,-3.1597,-3.1176,-3.0364,-2.9996,-3.0039,-3.064,-3.0076,-2.9608,-2.9504,-2.9439,-2.9252,-2.8881,-2.963,-2.9969,-2.9583,-3.0126,-3.0409,-3.0276,-3.0258,-3.0248,-3.0264,-3.0902,-3.1184,-3.1063,-3.1636,-3.1893,-3.1801,-3.171,-3.1727,-2.7375,-2.8274,-2.8934,-2.8766,-2.8077,-2.6988,-2.5269,-2.436,0.0,0.0,0.0,-2.3099,-2.3036,-2.2695,0.0,-2.3886,0.0,0.0,0.0,0.0,-2.5215,0.0,0.0,0.0,0.0,0.0,0.0,0.0,0.0,0.0,-2.943,-2.8825,-2.8062,-2.7022,-2.6296,-2.62,-2.6773,-2.5981,-2.5565,-2.5499,-2.5436,-2.5391,-2.5391,-2.5453,-2.5502,-2.5567,0.0,0.0,-2.536,-2.5258,-2.5287,-2.5396,-2.5183,-2.5285,-2.5482,-2.5156,-2.5488,-2.6114,-2.6175,-2.6691,-2.7398,-2.8129,-2.925,-3.0243,-2.9701,-3.0024,-3.0535,-3.0326,-3.0509,-3.1105,-3.2549,-3.2064,-3.1392,-3.2199,-3.1332,-3.0323,-3.0216,-3.0659,-3.1108,-3.1256,-3.2004,-3.2581,-3.2581,-3.2374,-3.2056,-3.1562,-3.1202,-3.098,-3.0888,-2.9941,-2.9587,-3.037,-3.0165,-2.9713,-2.9093,-3.0153,-3.0387,-2.9412,-2.9968,-3.0276,-3.0138,-3.0637,-3.0953,-3.1001,-3.1603,-3.1917,-3.1899,-3.2003,-3.1984,-3.1876,-3.1966,-3.2019,-2.7723,-2.8746,-2.9581,-2.8994,-2.8169,-2.707,-2.5458,0.0,0.0,0.0,0.0,-2.3749,-2.3762,0.0,0.0,0.0,0.0,0.0,0.0,0.0,0.0,0.0,0.0,0.0,0.0,0.0,0.0,0.0,0.0,0.0,-3.0308,-2.9018,-2.7687,-2.6374,-2.5925,-2.5907,-2.632,-2.584,-2.5574,-2.5554,-2.5489,-2.5473,-2.5507,-2.554,-2.5573,-2.5583,-2.5495,0.0,-2.5382,-2.5287,-2.5474,-2.5778,-2.5322,-2.5907,-2.6909,-2.6363,-2.6688,-2.745,-2.7842,-2.7997,-2.8175,-2.8996,-2.9465,-2.9678,-2.9551,-3.0065,-3.0727,-3.0754,-3.093,-3.1365,-3.2622,-3.2213,-3.1524,-3.1728,-3.12,-3.0695,-3.0761,-3.1451,-3.2226,-3.2721,-3.3115,-3.336,-3.336,-3.3083,-3.2598,-3.177,-3.1444,-3.1367,-3.1542,-3.0755,-3.0452,-3.1095,-3.1011,-3.0787,-3.0572,-3.1242,-3.1401,-3.0754,-3.1175,-3.1364,-3.1198,-3.1515,-3.1689,-3.1706,-3.2074,-3.2214,-3.2144,-3.2144,-3.2144,-3.2109,-3.2162,-3.2284,-2.7712,-2.8794,-2.9697,-2.8579,-2.7743,-2.6767,-2.5138,-2.4981,0.0,0.0,-2.4273,-2.4335,-2.416,0.0,0.0,0.0,0.0,0.0,0.0,0.0,0.0,0.0,0.0,0.0,0.0,0.0,0.0,0.0,0.0,0.0,-3.0621,-2.9327,-2.7781,-2.6039,-2.5984,-2.5886,-2.5707,-2.5647,-2.5609,-2.56,-2.5542,-2.5544,-2.56,-2.5604,-2.5607,-2.5598,-2.5513,0.0,0.0,-2.5307,-2.5721,-2.6345,-2.5683,-2.6675,-2.8385,-2.7646,-2.7902,-2.8684,-2.9291,-2.9125,-2.8782,-2.9601,-2.9593,-2.9314,-2.9493,-3.019,-3.0966,-3.131,-3.136,-3.1585,-3.2754,-3.2342,-3.1483,-3.1054,-3.1211,-3.1467,-3.1523,-3.2224,-3.3048,-3.3791,-3.4026,-3.4101,-3.4048,-3.3742,-3.3153,-3.2125,-3.1818,-3.1887,-3.2403,-3.1974,-3.1743,-3.2108,-3.1972,-3.1851,-3.1947,-3.2286,-3.2355,-3.2,-3.2261,-3.2353,-3.2197,-3.2179,-3.2179,-3.2197,-3.2301,-3.2319,-3.2197,-3.2266,-3.2318,-3.2335,-3.2403,-3.2538,-2.7338,-2.8383,-2.9099,-2.7193,-2.6774,-2.6282,-2.4138,0.0,0.0,-2.3492,-2.3842,-2.4167,-2.3375,-2.3801,0.0,0.0,0.0,0.0,0.0,0.0,0.0,0.0,0.0,0.0,0.0,0.0,0.0,0.0,0.0,0.0,0.0,-2.9562,-2.8679,-2.6938,-2.688,-2.6508,-2.5707,-2.5685,-2.5653,-2.5601,-2.5598,-2.5598,-2.5601,-2.56,-2.56,-2.5598,0.0,0.0,0.0,-2.525,-2.5675,-2.6396,-2.6257,-2.6821,-2.7676,-2.7407,-2.7862,-2.8582,-2.8554,-2.8524,-2.864,-2.9456,-3.0207,-3.0675,-2.9988,-3.0311,-3.1023,-3.1581,-3.111,-3.0958,-3.3296,-3.2096,-3.0378,-3.0735,-3.1572,-3.2285,-3.2294,-3.2975,-3.3618,-3.3703,-3.431,-3.4756,-3.4571,-3.4293,-3.3969,-3.3548,-3.3243,-3.3114,-3.3354,-3.3328,-3.3424,-3.3827,-3.3112,-3.2462,-3.2122,-3.2776,-3.2846,-3.1966,-3.2097,-3.2214,-3.2197,-3.2144,-3.2144,-3.2197,-3.2214,-3.2214,-3.2197,-3.2438,-3.254,-3.2489,-3.2739,-3.2868,-2.6911,-2.7792,-2.8392,-2.6778,-2.609,-2.5513,-2.4555,0.0,0.0,-2.3854,-2.3733,-2.3509,-2.3168,-2.3378,-2.3754,0.0,0.0,0.0,0.0,0.0,0.0,0.0,0.0,0.0,0.0,0.0,0.0,0.0,0.0,0.0,0.0,-2.9602,-2.9032,-2.7821,-2.7778,-2.7366,-2.6489,-2.6489,-2.621,-2.5653,-2.5653,-2.5653,-2.5653,-2.5653,-2.5642,-2.5638,0.0,0.0,0.0,-2.6636,-2.7255,-2.7848,-2.7344,-2.794,-2.9029,-2.8442,-2.8703,-2.9374,-2.9314,-2.9322,-2.9479,-3.0332,-3.0778,-3.0931,-3.0565,-3.0706,-3.1186,-3.228,-3.1855,-3.1419,-3.2896,-3.22,-3.1206,-3.1507,-3.2314,-3.3005,-3.3044,-3.3753,-3.4358,-3.4406,-3.4554,-3.4639,-3.4607,-3.4298,-3.4011,-3.3797,-3.3675,-3.3625,-3.3615,-3.3675,-3.3788,-3.4124,-3.3827,-3.3589,-3.3543,-3.3654,-3.3474,-3.2893,-3.2822,-3.262,-3.2214,-3.237,-3.2387,-3.2197,-3.2353,-3.2438,-3.2438,-3.2672,-3.2802,-3.2866,-3.2961,-3.3088,-2.6275,-2.6948,-2.7387,-2.6098,-2.5483,-2.5096,0.0,0.0,-2.3248,-2.4177,-2.3483,-2.2726,-2.2721,-2.2903,-2.3238,-2.3733,0.0,-2.4112,0.0,0.0,0.0,0.0,0.0,0.0,0.0,0.0,0.0,0.0,0.0,0.0,0.0,-2.9605,-2.9191,-2.8331,-2.8308,-2.7759,-2.6625,-2.6625,-2.6313,-2.5707,-2.5961,-2.6078,-2.6097,-2.6351,-2.6434,-2.6398,0.0,0.0,0.0,-2.7589,-2.8265,-2.8834,-2.8287,-2.889,-3.0049,-2.9429,-2.9517,-2.9948,-2.9899,-2.9874,-3.0015,-3.0903,-3.1079,-3.1054,-3.1534,-3.1497,-3.1591,-3.2831,-3.2755,-3.2312,-3.2342,-3.2354,-3.2349,-3.2328,-3.297,-3.363,-3.3792,-3.4273,-3.4658,-3.4732,-3.4596,-3.4461,-3.4397,-3.4173,-3.3947,-3.3815,-3.3873,-3.3868,-3.3834,-3.3815,-3.3895,-3.4086,-3.4111,-3.4209,-3.445,-3.413,-3.3818,-3.363,-3.3317,-3.291,-3.237,-3.262,-3.2603,-3.2284,-3.2539,-3.2688,-3.2688,-3.2866,-3.3008,-3.3101,-3.3165,-3.3256,-2.538,-2.5858,-2.596,-2.4891,-2.4969,-2.5181,0.0,0.0,-2.397,-2.4234,-2.2979,-2.1809,-2.181,-2.2464,-2.2984,-2.2927,-2.4291,0.0,0.0,0.0,0.0,0.0,0.0,0.0,0.0,0.0,0.0,0.0,0.0,0.0,0.0,-2.9609,-2.9196,-2.8332,-2.8292,-2.7469,-2.5726,-2.5707,-2.5707,-2.5707,-2.6567,-2.6996,-2.7016,-2.7874,-2.8249,0.0,0.0,0.0,0.0,-2.7744,-2.8172,-2.8891,-2.8891,-2.9414,-3.0197,-3.0106,-3.0095,-3.0072,-2.9876,-2.9808,-2.994,-3.0817,-3.1007,-3.1213,-3.2957,-3.2824,-3.2274,-3.3146,-3.3678,-3.3554,-3.1775,-3.2499,-3.3528,-3.2921,-3.3414,-3.4093,-3.4498,-3.4431,-3.4328,-3.4386,-3.4397,-3.4293,-3.3959,-3.3959,-3.3947,-3.3815,-3.3873,-3.3947,-3.4086,-3.3985,-3.3895,-3.3895,-3.3895,-3.4036,-3.4363,-3.3968,-3.376,-3.3895,-3.3321,-3.2912,-3.2702,-3.2827,-3.2763,-3.2489,-3.2755,-3.29,-3.29,-3.3024,-3.3101,-3.3101,-3.3286,-3.3393,-2.5347,-2.5742,-2.5954,-2.5248,-2.4921,-2.4801,-2.4973,0.0,-2.2531,-2.3259,-2.2034,-2.0836,-2.0845,-2.1496,-2.2206,-2.2678,-2.4172,0.0,0.0,0.0,0.0,0.0,0.0,0.0,0.0,0.0,0.0,0.0,0.0,0.0,0.0,-2.9609,-2.9745,-3.0075,-3.0071,-2.9521,-2.8386,-2.7778,-2.7171,-2.6586,-2.6879,-2.6996,-2.7035,-2.7893,0.0,0.0,0.0,0.0,0.0,-2.9329,-2.9641,-2.9784,-2.9784,-2.9928,-3.0132,-3.011,-3.0007,-2.9885,-2.9825,-3.0132,-3.0697,-3.1619,-3.2231,-3.2828,-3.4023,-3.3737,-3.3125,-3.3811,-3.4106,-3.4031,-3.3326,-3.3521,-3.3865,-3.3684,-3.3926,-3.4269,-3.4484,-3.4602,-3.4623,-3.4539,-3.491,-3.4969,-3.4166,-3.4465,-3.4642,-3.409,-3.4023,-3.4049,-3.4099,-3.4023,-3.3908,-3.378,-3.386,-3.3921,-3.3985,-3.4018,-3.3967,-3.378,-3.3889,-3.3666,-3.3003,-3.3291,-3.3232,-3.2787,-3.2963,-3.3024,-3.3024,-3.3211,-3.3575,-3.4099,-3.3635,-3.3701,0.0,-2.5374,-2.5495,-2.5168,-2.4876,0.0,0.0,0.0,-2.2126,-2.2407,-2.1578,-2.078,-2.0781,-2.1667,-2.2565,-2.306,-2.4279,0.0,0.0,0.0,0.0,0.0,0.0,0.0,0.0,0.0,0.0,0.0,0.0,0.0,0.0,0.0,-2.9999,-3.0877,-3.0581,-2.9991,-2.9111,-2.8578,-2.803,-2.7484,-2.7816,-2.7972,-2.8011,-2.8869,0.0,0.0,0.0,0.0,0.0,-3.0154,-3.0279,-3.0199,-3.0164,-3.014,-3.0095,-3.0038,-2.9951,-2.9832,-2.9816,-3.0103,-3.0688,-3.1893,-3.2825,-3.3481,-3.371,-3.3602,-3.3481,-3.384,-3.3846,-3.3777,-3.3962,-3.3881,-3.3775,-3.3868,-3.3947,-3.4061,-3.4293,-3.467,-3.4952,-3.4913,-3.5247,-3.5349,-3.4673,-3.4689,-3.462,-3.416,-3.4099,-3.4099,-3.4099,-3.4023,-3.3908,-3.3793,-3.3793,-3.378,-3.3726,-3.3895,-3.3947,-3.3793,-3.4049,-3.3954,-3.335,-3.3611,-3.3555,-3.3099,-3.3162,-3.3211,-3.3211,-3.3334,-3.381,-3.4588,-3.4099,-3.428,0.0,0.0,0.0,0.0,0.0,0.0,0.0,0.0,0.0,0.0,0.0,-2.1406,-2.141,-2.2663,-2.3747,-2.3897,0.0,0.0,0.0,0.0,0.0,0.0,0.0,0.0,0.0,0.0,0.0,0.0,0.0,0.0,0.0,0.0,-2.9998,-3.0877,-3.0055,-2.9233,-2.8487,-2.8423,-2.8381,-2.8401,-2.9202,-2.9592,-2.9631,-3.0431,0.0,0.0,0.0,0.0,0.0,-3.0284,-3.0221,-3.0194,-3.0113,-3.0125,-3.0148,-2.9959,-2.9937,-2.9958,-2.9825,-2.9866,-3.0233,-3.1845,-3.2836,-3.3231,-3.2304,-3.263,-3.3314,-3.3371,-3.3119,-3.2988,-3.3795,-3.3712,-3.3466,-3.3629,-3.3605,-3.3633,-3.4085,-3.4703,-3.5227,-3.5445,-3.5491,-3.5466,-3.5325,-3.4703,-3.4185,-3.4099,-3.4099,-3.4099,-3.4086,-3.3972,-3.3895,-3.3881,-3.3726,-3.3619,-3.3605,-3.3657,-3.3766,-3.3868,-3.3908,-3.3842,-3.3712,-3.3815,-3.3743,-3.3419,-3.3419,-3.3429,-3.3484,-3.3484,-3.3936,-3.4769,-3.4715,-3.5131,-2.3992,0.0,-2.5081,-2.5086,-2.5168,0.0,0.0,0.0,0.0,0.0,0.0,0.0,0.0,0.0,0.0,0.0,0.0,0.0,0.0,0.0,0.0,0.0,0.0,0.0,0.0,0.0,0.0,0.0,0.0,0.0,0.0,0.0,-2.9998,-3.0876,-3.0052,-2.9815,-3.0283,-2.9634,-2.93,-2.93,-2.9495,-2.9592,-2.9631,-3.0431,0.0,0.0,0.0,0.0,-3.0482,-3.0392,-3.0254,-3.0113,-3.011,-3.0379,-3.07,-3.005,-3.0177,-3.0565,-2.9935,-3.0528,-3.1731,-3.2802,-3.2821,-3.2266,-3.1429,-3.1748,-3.2536,-3.3212,-3.3209,-3.317,-3.3833,-3.382,-3.3619,-3.3563,-3.3629,-3.3972,-3.4825,-3.4822,-3.5004,-3.6174,-3.6,-3.5589,-3.5403,-3.5249,-3.4921,-3.4204,-3.4099,-3.4061,-3.3959,-3.3921,-3.3855,-3.3766,-3.3698,-3.3675,-3.3605,-3.3712,-3.3753,-3.3671,-3.3959,-3.3998,-3.3712,-3.3815,-3.3788,-3.3559,-3.3506,-3.3789,-3.4388,-3.4332,-3.5041,-3.6415,-3.5802,-3.5946,-2.2786,-2.3689,-2.4692,-2.5097,-2.5234,-2.5175,0.0,0.0,0.0,0.0,0.0,0.0,0.0,0.0,0.0,0.0,0.0,0.0,0.0,0.0,0.0,0.0,0.0,0.0,0.0,0.0,0.0,0.0,0.0,0.0,0.0,0.0,-3.0405,-3.0892,-3.0413,-3.0392,-3.0907,-3.0395,-3.0157,-3.0157,-2.9788,-2.9592,-2.9612,-3.004,0.0,0.0,0.0,0.0,-3.0491,-3.0422,-3.0279,-3.0091,-3.0038,-3.0191,-3.0384,-2.9924,-3.0011,-3.0283,-2.9852,-3.0528,-3.1609,-3.1692,-3.1694,-3.1591,-3.1139,-3.1327,-3.1836,-3.2586,-3.2888,-3.3111,-3.382,-3.3793,-3.364,-3.396,-3.4148,-3.4536,-3.5542,-3.5871,-3.6105,-3.6551,-3.6385,-3.6,-3.5528,-3.5151,-3.4736,-3.4222,-3.4099,-3.4074,-3.4124,-3.3972,-3.3868,-3.3921,-3.3775,-3.3684,-3.3643,-3.3712,-3.3712,-3.3619,-3.3881,-3.4215,-3.4515,-3.4473,-3.4523,-3.4699,-3.4644,-3.4818,-3.5254,-3.5181,-3.5783,-3.6995,-3.6544,-3.6779,-2.1649,-2.2585,-2.393,-2.479,-2.5094,-2.5001,-2.4175,0.0,0.0,0.0,0.0,0.0,0.0,0.0,0.0,0.0,0.0,0.0,0.0,0.0,0.0,0.0,0.0,0.0,0.0,0.0,0.0,0.0,0.0,0.0,0.0,0.0,0.0,-3.0885,-3.0576,-3.0497,-3.0688,-3.0759,-3.0794,-3.0794,-2.9978,-2.9589,-2.9589,-2.9455,-2.9447,0.0,0.0,0.0,-3.0309,-3.0253,-3.0011,-2.9706,-2.9714,-2.9752,-2.9773,-2.9719,-2.9777,-2.9889,-3.0049,-3.0565,-3.1063,-3.0509,-3.0798,-3.1367,-3.1288,-3.1408,-3.1662,-3.2164,-3.2553,-3.3001,-3.3807,-3.3712,-3.3618,-3.4375,-3.4699,-3.5078,-3.594,-3.6777,-3.7202,-3.671,-3.6443,-3.6142,-3.5584,-3.4773,-3.4185,-3.4173,-3.4061,-3.4074,-3.4328,-3.4074,-3.3959,-3.4215,-3.3992,-3.3815,-3.378,-3.3802,-3.3844,-3.3863,-3.4004,-3.4552,-3.5591,-3.5401,-3.5532,-3.6039,-3.5967,-3.5975,-3.6103,-3.603,-3.6399,-3.7176,-3.7176,-3.7557,-2.1348,-2.2178,-2.3078,-2.3892,-2.465,-2.4968,0.0,0.0,0.0,0.0,0.0,0.0,0.0,0.0,0.0,0.0,0.0,0.0,0.0,0.0,0.0,0.0,0.0,0.0,0.0,0.0,0.0,0.0,0.0,0.0,0.0,0.0,0.0,-3.0785,-2.9379,-2.8962,-2.971,-3.0445,-3.0793,-3.0793,-2.9934,-2.9512,-2.9494,-2.8805,-2.8861,0.0,0.0,-2.9608,-2.9482,-2.9462,-2.8853,-2.7972,-2.8694,-2.9282,-2.971,-2.9692,-3.0133,-3.0838,-3.1629,-3.1911,-3.206,-3.2826,-3.2656,-3.2119,-3.2128,-3.26,-3.3137,-3.3187,-3.3049,-3.3072,-3.3877,-3.3793,-3.3542,-3.3793,-3.4472,-3.511,-3.5326,-3.5573,-3.5932,-3.6493,-3.5502,-3.4773,-3.5398,-3.4736,-3.4099,-3.4036,-3.3959,-3.3998,-3.4209,-3.4173,-3.4215,-3.4431,-3.4409,-3.4307,-3.4148,-3.4279,-3.4594,-3.5094,-3.4934,-3.5248,-3.6131,-3.6144,-3.6156,-3.6256,-3.6072,-3.6325,-3.6999,-3.6878,-3.723,-3.8028,-3.8028,-3.8082,-2.0742,-2.1764,-2.2776,-2.3118,-2.4208,-2.5099,0.0,0.0,0.0,0.0,0.0,0.0,0.0,0.0,0.0,0.0,0.0,0.0,0.0,0.0,0.0,0.0,0.0,0.0,0.0,0.0,0.0,0.0,0.0,0.0,0.0,0.0,0.0,0.0,-2.934,-2.8863,-2.8796,-2.9189,-2.9403,-2.9381,-2.8549,-2.8143,-2.8145,-2.7762,-2.8044,-2.8792,0.0,-2.8979,-2.9264,-2.8795,-2.8232,-2.7733,-2.8542,-2.8995,-2.9258,-2.9672,-3.0027,-3.0443,-3.1308,-3.159,-3.176,-3.2647,-3.273,-3.2539,-3.2948,-3.3345,-3.3743,-3.4111,-3.3863,-3.3586,-3.3988,-3.3889,-3.3785,-3.427,-3.4838,-3.5391,-3.5863,-3.5991,-3.6038,-3.6022,-3.5398,-3.4878,-3.481,-3.4554,-3.4305,-3.4136,-3.4239,-3.4371,-3.445,-3.4405,-3.4461,-3.4684,-3.4601,-3.4652,-3.5018,-3.5147,-3.5319,-3.561,-3.6348,-3.6901,-3.7147,-3.7572,-3.7745,-3.7606,-3.74,-3.7486,-3.7854,-3.7711,-3.7846,-3.8209,-3.8209,-3.8209,-2.0512,-2.1619,-2.2733,-2.2846,0.0,0.0,0.0,0.0,0.0,0.0,0.0,0.0,0.0,0.0,0.0,0.0,0.0,0.0,0.0,0.0,0.0,0.0,0.0,0.0,0.0,0.0,0.0,0.0,0.0,0.0,0.0,0.0,0.0,0.0,-2.9146,-2.859,-2.7904,-2.769,-2.7807,-2.8198,-2.7383,-2.6993,-2.697,-2.6778,-2.7246,-2.819,-2.8196,-2.8622,-2.9276,-2.8594,-2.8125,-2.7876,-2.8631,-2.8975,-2.914,-2.9701,-2.9971,-3.0213,-3.1069,-3.152,-3.1868,-3.2702,-3.3058,-3.3253,-3.3854,-3.4033,-3.4192,-3.4737,-3.4526,-3.4166,-3.4227,-3.4105,-3.4123,-3.4755,-3.5211,-3.5585,-3.6023,-3.6231,-3.612,-3.5349,-3.5213,-3.5002,-3.4393,-3.445,-3.4528,-3.4356,-3.4526,-3.4694,-3.4744,-3.4663,-3.4694,-3.4936,-3.4973,-3.5306,-3.6176,-3.6387,-3.65,-3.6554,-3.776,-3.8364,-3.8095,-3.8674,-3.8925,-3.8707,-3.8512,-3.8415,-3.8415,-3.8289,-3.8207,-3.8207,-3.8209,-3.8299,-2.1126,-2.2,-2.2857,-2.3547,-2.4428,0.0,-2.4156,-2.4524,0.0,-2.3174,0.0,0.0,0.0,0.0,0.0,0.0,0.0,0.0,0.0,0.0,0.0,0.0,0.0,0.0,0.0,0.0,0.0,0.0,0.0,0.0,0.0,0.0,0.0,0.0,0.0,-2.7123,-2.6987,-2.6186,-2.6593,-2.8188,-2.7371,-2.6963,-2.6889,-2.613,-2.6661,-2.821,-2.819,-2.8656,-2.9382,-2.9324,-2.8709,-2.7885,-2.8681,-2.9326,-2.9829,-2.9878,-3.033,-3.1061,-3.2115,-3.2851,-3.3526,-3.4624,-3.4864,-3.4765,-3.4943,-3.4916,-3.4823,-3.4889,-3.4733,-3.4561,-3.4643,-3.4551,-3.4475,-3.4594,-3.5177,-3.5502,-3.4809,-3.5136,-3.5312,-3.4457,-3.429,-3.4355,-3.4547,-3.4528,-3.4553,-3.4723,-3.4663,-3.4675,-3.486,-3.4879,-3.4945,-3.5168,-3.5883,-3.6676,-3.7486,-3.8127,-3.8582,-3.8746,-3.8937,-3.8929,-3.8643,-3.8701,-3.8723,-3.8707,-3.8559,-3.8476,-3.8476,-3.837,-3.829,-3.829,-3.8242,-3.8607,-2.2135,-2.2804,-2.3509,-2.3746,-2.4416,0.0,0.0,-2.5325,-2.5557,-2.4314,0.0,0.0,0.0,0.0,0.0,0.0,0.0,0.0,0.0,0.0,0.0,0.0,0.0,0.0,0.0,0.0,0.0,0.0,0.0,0.0,0.0,0.0,0.0,0.0,0.0,-2.8334,-2.778,-2.6904,-2.6805,-2.7447,-2.6606,-2.6165,-2.6108,-2.633,-2.7067,-2.8142,-2.8142,-2.8622,-2.9347,-2.8764,-2.8279,-2.7991,-2.8717,-2.9462,-3.0098,-3.0098,-3.0236,-3.0647,-3.2005,-3.2688,-3.3171,-3.4564,-3.501,-3.5029,-3.5084,-3.5066,-3.502,-3.502,-3.5001,-3.4926,-3.4763,-3.4695,-3.4676,-3.4674,-3.5,-3.521,-3.4838,-3.4955,-3.5026,-3.4706,-3.4599,-3.4609,-3.4711,-3.4773,-3.4973,-3.5471,-3.5685,-3.5959,-3.6445,-3.6596,-3.6668,-3.6748,-3.754,-3.819,-3.8476,-3.9233,-3.9671,-3.9573,-3.9592,-3.9544,-3.9446,-3.9285,-3.9129,-3.895,-3.8822,-3.8673,-3.851,-3.8417,-3.8352,-3.837,-3.8847,-3.9197,-2.2602,-2.3223,-2.3832,-2.4146,0.0,0.0,-2.5157,-2.582,-2.6142,0.0,0.0,0.0,0.0,0.0,0.0,0.0,0.0,0.0,0.0,0.0,0.0,0.0,0.0,0.0,0.0,0.0,0.0,0.0,0.0,0.0,0.0,0.0,0.0,0.0,0.0,0.0,-2.7483,-2.7152,-2.686,-2.6586,-2.6266,-2.6076,-2.603,-2.6632,-2.7481,-2.8511,-2.8511,-2.8997,-2.9754,-2.9086,-2.8775,-2.8777,-2.921,-2.9723,-3.0204,-3.0183,-3.014,-3.0335,-3.1908,-3.2522,-3.2866,-3.4459,-3.5047,-3.5063,-3.4823,-3.4928,-3.5044,-3.4823,-3.4977,-3.5185,-3.4954,-3.4925,-3.4952,-3.4925,-3.5025,-3.5115,-3.5,-3.4936,-3.4908,-3.4908,-3.486,-3.486,-3.4917,-3.5208,-3.5624,-3.615,-3.6627,-3.7105,-3.7546,-3.7668,-3.7903,-3.8457,-3.9279,-3.9909,-4.0177,-4.0501,-4.073,-4.0817,-4.0485,-4.0238,-4.0152,-3.9658,-3.941,-3.9486,-3.9053,-3.8752,-3.8559,-3.8462,-3.8577,-3.885,-3.9092,-3.9462,-2.2444,-2.3106,-2.3755,0.0,0.0,0.0,-2.5154,-2.5819,-2.6209,0.0,0.0,0.0,0.0,0.0,0.0,0.0,0.0,0.0,0.0,0.0,0.0,0.0,0.0,0.0,0.0,0.0,0.0,0.0,0.0,0.0,0.0,0.0,0.0,0.0,0.0,0.0,-2.5746,-2.6586,-2.6586,-2.5726,-2.6606,-2.6962,-2.6905,-2.6924,-2.7831,-2.9408,-2.9408,-2.9894,-3.069,-3.0625,-3.0491,-3.0298,-3.0233,-3.0204,-3.0197,-3.0125,-3.0095,-3.0342,-3.2018,-3.2608,-3.291,-3.4623,-3.5151,-3.4939,-3.423,-3.4522,-3.4939,-3.4219,-3.463,-3.5312,-3.5312,-3.5297,-3.5315,-3.5379,-3.5297,-3.5209,-3.5209,-3.5046,-3.4917,-3.4917,-3.4917,-3.4973,-3.5176,-3.5878,-3.6482,-3.6684,-3.741,-3.7879,-3.7838,-3.7776,-3.84,-4.0129,-4.1036,-4.1858,-4.2717,-4.1991,-4.1877,-4.2737,-4.1727,-4.0998,-4.0729,-3.9688,-3.9505,-4.03,-3.9257,-3.8707,-3.8707,-3.8575,-3.8949,-3.9772,-3.8832,-3.9258,-2.3175,-2.3592,0.0,0.0,0.0,0.0,0.0,0.0,0.0,0.0,0.0,0.0,0.0,0.0,0.0,0.0,0.0,0.0,0.0,0.0,0.0,0.0,0.0,0.0,0.0,0.0,0.0,0.0,0.0,0.0,0.0,0.0,0.0,0.0,0.0,0.0,-2.8441,-2.8694,-2.8378,-2.7468,-2.7722,-2.7516,-2.6944,-2.8171,-2.896,-2.9428,-3.0049,-3.0461,-3.0687,-3.0534,-3.0395,-3.0298,-3.0233,-3.0176,-3.0132,-3.011,-3.0457,-3.102,-3.1469,-3.2477,-3.3642,-3.4077,-3.4266,-3.4394,-3.4743,-3.4601,-3.4402,-3.4802,-3.5112,-3.53,-3.5361,-3.5364,-3.5372,-3.5405,-3.5398,-3.5417,-3.5417,-3.5361,-3.5324,-3.5324,-3.5787,-3.6189,-3.6236,-3.6886,-3.7608,-3.8301,-3.8546,-3.9085,-4.0262,-4.0396,-4.0807,-4.1934,-4.2278,-4.2278,-4.1915,-4.2202,-4.2259,-4.1915,-4.1928,-4.1912,-4.1834,-4.1342,-4.1087,-4.113,-4.0281,-3.9726,-3.9533,-3.8933,-3.8771,-3.9027,-3.9323,-3.966,-2.3505,0.0,0.0,0.0,0.0,0.0,0.0,0.0,0.0,0.0,0.0,0.0,0.0,0.0,0.0,0.0,0.0,0.0,0.0,0.0,0.0,0.0,0.0,0.0,0.0,0.0,0.0,0.0,0.0,0.0,0.0,0.0,0.0,0.0,0.0,0.0,-2.807,-2.8733,-2.8629,-2.7734,-2.8424,-2.845,-2.7924,-2.8975,-2.9435,-2.9424,-2.9927,-3.0312,-3.0574,-3.0413,-3.0315,-3.026,-3.0213,-3.0183,-3.014,-3.011,-3.0651,-3.1363,-3.1276,-3.2216,-3.3463,-3.3388,-3.344,-3.3551,-3.3685,-3.3635,-3.3639,-3.4159,-3.4557,-3.4913,-3.5302,-3.542,-3.5446,-3.5446,-3.5467,-3.55,-3.55,-3.575,-3.5981,-3.5981,-3.6659,-3.7221,-3.7221,-3.7859,-3.8539,-3.9021,-3.961,-4.0368,-4.1361,-4.2087,-4.2698,-4.3233,-4.3596,-4.3577,-4.3042,-4.3176,-4.3135,-4.2832,-4.2692,-4.2743,-4.2966,-4.2192,-4.1675,-4.1501,-4.0619,-3.9899,-3.9423,-3.8946,-3.8854,-3.9184,-3.935,-3.9538,0.0,0.0,0.0,0.0,0.0,0.0,0.0,0.0,0.0,0.0,0.0,0.0,0.0,0.0,0.0,0.0,0.0,0.0,0.0,0.0,0.0,0.0,0.0,0.0,0.0,0.0,0.0,0.0,0.0,0.0,0.0,0.0,0.0,0.0,0.0,0.0,-2.5824,-2.7542,-2.7982,0.0,-2.888,-2.9643,-2.953,-2.9435,-2.9356,-2.9255,-2.9272,-2.9675,-3.0281,-3.0308,-3.028,-3.0219,-3.0206,-3.0218,-3.0185,-3.014,-3.0681,-3.1443,-3.126,-3.1855,-3.2699,-3.2604,-3.2691,-3.2651,-3.1855,-3.2163,-3.2816,-3.29,-3.3484,-3.4299,-3.5182,-3.5453,-3.5519,-3.5596,-3.5615,-3.5615,-3.5615,-3.625,-3.6808,-3.6808,-3.7526,-3.8123,-3.8123,-3.8777,-3.9287,-3.9218,-4.0519,-4.1533,-4.1609,-4.3023,-4.4025,-4.4102,-4.4838,-4.5269,-4.5182,-4.4532,-4.4274,-4.468,-4.3747,-4.346,-4.3983,-4.2436,-4.1568,-4.1575,-4.0477,-3.9533,-3.8817,-3.8744,-3.9074,-3.9772,-3.9038,-3.9093,0.0,0.0,0.0,0.0,0.0,0.0,0.0,0.0,0.0,0.0,0.0,0.0,0.0,0.0,0.0,0.0,0.0,0.0,0.0,0.0,0.0,0.0,0.0,0.0,0.0,0.0,0.0,0.0,0.0,0.0,0.0,0.0,0.0,0.0,0.0,-2.76,-2.6723,-2.8441,-2.8856,0.0,-2.9702,-3.0499,-3.0393,-2.9712,-2.8967,-2.8264,-2.8936,-2.9303,-2.949,-3.0077,-3.0321,-3.0342,-3.0304,-3.0241,-3.0195,-3.0181,-3.066,-3.126,-3.0598,-3.1379,-3.2604,-3.1953,-3.223,-3.2761,-3.2572,-3.2644,-3.2938,-3.3625,-3.3972,-3.4306,-3.5229,-3.5493,-3.5654,-3.6288,-3.6442,-3.6442,-3.6442,-3.7123,-3.7719,-3.7719,-3.8411,-3.9015,-3.9015,-3.9637,-4.013,-4.0041,-4.0874,-4.1743,-4.2431,-4.3376,-4.4255,-4.4953,-4.5182,-4.501,-4.4331,-4.4723,-4.4685,-4.3903,-4.4005,-4.4073,-4.4002,-4.2791,-4.2128,-4.2126,-4.0664,-3.9808,-3.9643,-3.9019,-3.8799,-3.8946,-3.8781,-3.8799,0.0,0.0,0.0,0.0,0.0,0.0,0.0,0.0,0.0,0.0,0.0,0.0,0.0,0.0,0.0,0.0,0.0,0.0,0.0,0.0,0.0,0.0,0.0,0.0,0.0,0.0,0.0,0.0,0.0,0.0,0.0,0.0,0.0,0.0,-2.682,-2.6839,-2.6372,-2.7699,-2.8293,-2.8203,-2.9117,-2.9487,-2.9358,-2.9361,-2.9256,-2.91,-2.9102,-2.9357,-2.9799,-3.0154,-3.0344,-3.0402,-3.0353,-3.0339,-3.0309,-3.0309,-3.0778,-3.1315,-3.0499,-3.1035,-3.1991,-3.1145,-3.1205,-3.1679,-3.2096,-3.225,-3.2532,-3.3781,-3.416,-3.4352,-3.5269,-3.5788,-3.6173,-3.6596,-3.6692,-3.6808,-3.7238,-3.8007,-3.8623,-3.8623,-3.9304,-3.9881,-3.9881,-4.0167,-4.0372,-4.032,-4.0979,-4.1648,-4.2125,-4.3242,-4.4159,-4.4628,-4.5048,-4.5125,-4.4666,-4.5029,-4.4927,-4.4052,-4.424,-4.4202,-4.3781,-4.2459,-4.1735,-4.1735,-4.0524,-3.9698,-3.9313,-3.8909,-3.8707,-3.8707,-3.8707,-3.8909,0.0,0.0,0.0,0.0,0.0,0.0,0.0,0.0,0.0,0.0,0.0,0.0,0.0,0.0,0.0,0.0,0.0,0.0,0.0,0.0,0.0,0.0,0.0,0.0,0.0,0.0,0.0,0.0,0.0,0.0,0.0,0.0,-2.5707,-2.5707,-2.5707,-2.5707,-2.5707,-2.6567,-2.7321,-2.7987,-2.8115,-2.8096,-2.7941,-2.8707,-2.9376,-2.9897,-2.9267,-2.9438,-3.0183,-3.0263,-3.0356,-3.0428,-3.0428,-3.0428,-3.0428,-3.0428,-3.0852,-3.1283,-3.0571,-3.0771,-3.1207,-3.051,-3.0399,-3.0697,-3.1416,-3.1768,-3.2242,-3.3769,-3.4205,-3.443,-3.5442,-3.6192,-3.6769,-3.7084,-3.7161,-3.7353,-3.8065,-3.8892,-3.9515,-3.9515,-4.0046,-4.05,-4.0465,-4.0411,-4.0353,-4.031,-4.0988,-4.1562,-4.1705,-4.3061,-4.4064,-4.4197,-4.4876,-4.5307,-4.5307,-4.5307,-4.5042,-4.4443,-4.4397,-4.4129,-4.3513,-4.1956,-4.1168,-4.1297,-4.0377,-3.957,-3.8909,-3.9056,-3.9095,-3.9095,-3.9095,-3.9478,0.0,0.0,0.0,0.0,0.0,0.0,0.0,0.0,0.0,0.0,0.0,0.0,0.0,0.0,0.0,0.0,0.0,0.0,0.0,0.0,0.0,0.0,0.0,0.0,0.0,0.0,0.0,0.0,0.0,0.0,0.0,-2.5707,-2.5707,-2.5707,-2.5707,-2.5707,-2.5707,-2.6567,-2.7048,-2.7165,-2.7818,-2.8067,-2.7985,-2.8,-2.8013,-2.8084,-2.8676,-2.9053,-2.9323,-3.0022,-3.0409,-3.0567,-3.0567,-3.0567,-3.0567,-3.0567,-3.0574,-3.0546,-3.0496,-3.0545,-3.0627,-3.0576,-3.1024,-3.1616,-3.1748,-3.2269,-3.3026,-3.3942,-3.4205,-3.4571,-3.6142,-3.6615,-3.7084,-3.8584,-3.895,-3.8977,-3.9111,-3.9765,-4.0342,-4.0342,-4.0427,-4.0466,-4.0351,-4.0325,-4.0307,-4.0298,-4.0988,-4.1762,-4.2537,-4.3425,-4.4293,-4.5048,-4.522,-4.5307,-4.5307,-4.5307,-4.5042,-4.4443,-4.4397,-4.4129,-4.3513,-4.1956,-4.1425,-4.2139,-4.0671,-3.9845,-3.9735,-4.0451,-4.0783,-4.0783,-4.0783,-4.0838,0.0,0.0,0.0,0.0,0.0,0.0,0.0,0.0,0.0,0.0,0.0,0.0,0.0,0.0,0.0,0.0,0.0,0.0,0.0,0.0,0.0,0.0,0.0,0.0,0.0,0.0,0.0,0.0,0.0,0.0,-2.5707,-2.5707,-2.5707,-2.5707,-2.5707,-2.5707,-2.5707,-2.6078,-2.6244,-2.6235,-2.7507,-2.7782,-2.7239,-2.7622,-2.804,-2.851,-2.8791,-2.9295,-2.9935,-2.9743,-3.0076,-3.0614,-3.0129,-3.0226,-3.0653,-3.0653,-3.0593,-3.052,-3.0546,-3.0522,-3.0591,-3.1154,-3.1565,-3.2031,-3.302,-3.3555,-3.4007,-3.4812,-3.5048,-3.5303,-3.651,-3.716,-3.7674,-3.8395,-3.9284,-3.9842,-3.94,-3.9935,-4.0487,-4.0463,-4.0482,-4.0458,-4.0325,-4.0709,-4.0872,-4.0366,-4.139,-4.2192,-4.2087,-4.3205,-4.414,-4.4532,-4.5041,-4.5367,-4.5367,-4.5367,-4.5098,-4.4493,-4.4411,-4.4129,-4.3513,-4.2396,-4.1937,-4.2286,-4.0861,-4.034,-4.0803,-4.1334,-4.1607,-4.1607,-4.1607,-4.1746,0.0,0.0,0.0,0.0,0.0,0.0,0.0,0.0,0.0,0.0,0.0,0.0,0.0,0.0,0.0,0.0,0.0,0.0,0.0,0.0,0.0,0.0,0.0,0.0,0.0,0.0,0.0,0.0,0.0,0.0,-2.5707,-2.5707,-2.5707,-2.5707,-2.5707,-2.5707,-2.5707,-2.5681,-2.5648,-2.56,-2.6832,-2.702,-2.6308,-2.6874,-2.761,-2.8466,-2.8568,-2.91,-2.9872,-2.94,-2.9663,-3.0325,-2.9894,-3.0127,-3.0694,-3.0694,-3.0672,-3.0626,-3.0644,-3.0764,-3.101,-3.1712,-3.2101,-3.2554,-3.4075,-3.4535,-3.4745,-3.5749,-3.586,-3.5916,-3.6945,-3.7473,-3.7842,-3.8248,-3.9284,-4.0085,-3.9692,-4.0084,-4.0485,-4.0388,-4.0405,-4.0424,-4.0317,-4.0835,-4.1055,-4.0405,-4.1543,-4.2326,-4.1915,-4.3129,-4.4113,-4.4334,-4.4977,-4.5409,-4.5409,-4.5319,-4.5045,-4.4533,-4.4374,-4.4057,-4.3513,-4.2727,-4.2396,-4.2598,-4.1571,-4.1282,-4.1805,-4.236,-4.2607,-4.2607,-4.2607,-4.2786,0.0,0.0,0.0,0.0,0.0,0.0,0.0,0.0,0.0,0.0,0.0,0.0,0.0,0.0,0.0,0.0,0.0,0.0,0.0,0.0,0.0,0.0,0.0,0.0,0.0,0.0,0.0,0.0,0.0,0.0,-2.5707,-2.5707,-2.5707,-2.5707,-2.5707,-2.5707,-2.5707,-2.5642,-2.5603,-2.56,-2.5554,-2.5506,-2.5451,-2.5369,-2.5841,-2.676,-2.7452,-2.7875,-2.8097,-2.8883,-2.9315,-2.9544,-3.0325,-3.0655,-3.0694,-3.0694,-3.0691,-3.07,-3.0767,-3.1337,-3.2023,-3.2061,-3.2652,-3.3484,-3.4338,-3.4592,-3.4914,-3.6487,-3.6285,-3.5985,-3.7605,-3.7411,-3.7187,-3.8842,-3.9304,-3.9558,-4.0287,-4.0463,-4.0458,-4.0325,-4.0316,-4.0317,-4.0301,-4.0348,-4.0339,-4.0317,-4.1007,-4.1877,-4.2726,-4.357,-4.4413,-4.5237,-4.5362,-4.54,-4.54,-4.5115,-4.48,-4.4519,-4.4192,-4.386,-4.3496,-4.2727,-4.2653,-4.3423,-4.3189,-4.2913,-4.2627,-4.3751,-4.4284,-4.4284,-4.4284,-4.4289,0.0,0.0,0.0,0.0,0.0,0.0,0.0,0.0,0.0,0.0,0.0,0.0,0.0,0.0,0.0,0.0,0.0,0.0,0.0,0.0,0.0,0.0,0.0,0.0,0.0,0.0,0.0,0.0,0.0,0.0,-2.5691,-2.5709,-2.5707,-2.5707,-2.5707,-2.5707,-2.5707,-2.5619,-2.5595,-2.56,-2.5459,-2.5408,-2.5397,-2.5253,-2.5379,-2.5726,-2.6033,-2.6858,-2.7991,-2.8307,-2.8807,-2.9428,-2.9738,-3.0218,-3.0704,-3.0704,-3.0725,-3.085,-3.1421,-3.1843,-3.2282,-3.3413,-3.3983,-3.439,-3.5236,-3.5466,-3.5552,-3.6135,-3.5994,-3.5926,-3.7041,-3.7081,-3.7257,-3.8922,-3.9304,-3.9519,-4.0318,-4.0502,-4.0468,-4.0337,-4.0299,-4.0461,-4.0988,-4.1074,-4.1065,-4.1065,-4.1791,-4.247,-4.2785,-4.3541,-4.4372,-4.5244,-4.5361,-4.54,-4.54,-4.518,-4.4896,-4.458,-4.425,-4.3892,-4.3532,-4.3222,-4.3221,-4.3496,-4.3642,-4.3747,-4.3793,-4.46,-4.4976,-4.4957,-4.4395,-4.4339,0.0,0.0,0.0,0.0,0.0,0.0,0.0,0.0,0.0,0.0,0.0,0.0,0.0,0.0,0.0,0.0,0.0,0.0,0.0,0.0,0.0,0.0,0.0,0.0,0.0,0.0,0.0,0.0,0.0,0.0,-2.5691,-2.5709,-2.5707,-2.5707,-2.5707,-2.5707,-2.5707,-2.5607,-2.5571,-2.5554,-2.5426,-2.5369,-2.5361,-2.5273,-2.5257,-2.5259,-2.5303,-2.617,-2.7598,-2.788,-2.8566,-2.9464,-2.9736,-3.0199,-3.0703,-3.0731,-3.0752,-3.0915,-3.1806,-3.2283,-3.2778,-3.4234,-3.4901,-3.5232,-3.5817,-3.5949,-3.5967,-3.622,-3.5997,-3.5849,-3.6698,-3.7087,-3.7546,-3.8614,-3.9284,-3.9846,-4.0375,-4.0493,-4.0424,-4.0318,-4.0309,-4.0462,-4.1008,-4.1094,-4.1094,-4.1094,-4.182,-4.2479,-4.2756,-4.3521,-4.4372,-4.5244,-4.54,-4.5429,-4.5429,-4.5118,-4.4837,-4.4606,-4.4158,-4.3779,-4.3496,-4.3515,-4.3515,-4.3515,-4.383,-4.4094,-4.4279,-4.485,-4.5184,-4.5288,-4.4704,-4.4513,0.0,0.0,0.0,0.0,0.0,0.0,0.0,0.0,0.0,0.0,0.0,0.0,0.0,0.0,0.0,0.0,0.0,0.0,0.0,0.0,0.0,0.0,0.0,0.0,0.0,0.0,0.0,0.0,0.0,-2.5707,-2.5707,-2.5707,-2.5707,-2.5707,-2.5707,-2.5707,-2.5707,-2.558,-2.5504,-2.5504,-2.537,-2.5317,-2.5313,-2.5312,-2.5337,-2.5406,-2.5406,-2.5905,-2.6815,-2.7664,-2.8595,-2.9574,-3.0392,-3.0703,-3.0709,-3.0774,-3.08,-3.0936,-3.1831,-3.2682,-3.3552,-3.4452,-3.531,-3.5992,-3.5991,-3.5947,-3.6061,-3.6838,-3.6343,-3.58,-3.6668,-3.745,-3.8046,-3.8046,-3.9296,-4.05,-4.0499,-4.0449,-4.0379,-4.0316,-4.03,-4.0301,-4.032,-4.032,-4.0301,-4.032,-4.0979,-4.1781,-4.2671,-4.3541,-4.4403,-4.5295,-4.5467,-4.5495,-4.5495,-4.4954,-4.4606,-4.4606,-4.3915,-4.3532,-4.3496,-4.3515,-4.3515,-4.3515,-4.383,-4.3989,-4.4005,-4.4552,-4.4969,-4.5297,-4.5297,-4.4976,-2.5288,0.0,0.0,0.0,0.0,0.0,0.0,0.0,0.0,0.0,0.0,0.0,0.0,0.0,0.0,0.0,0.0,0.0,0.0,0.0,0.0,0.0,0.0,0.0,0.0,0.0,0.0,0.0,-2.5709,-2.5708,-2.5692,-2.5709,-2.5707,-2.5707,-2.5707,-2.5707,-2.5707,-2.563,-2.5563,-2.5561,-2.5489,-2.5443,-2.5443,-2.5439,-2.5443,-2.5473,-2.552,-2.6362,-2.7737,-2.8037,-2.8676,-2.9589,-3.0441,-3.0765,-3.0763,-3.0786,-3.0801,-3.101,-3.2512,-3.3198,-3.365,-3.5153,-3.5797,-3.5988,-3.594,-3.5849,-3.5799,-3.5969,-3.5789,-3.5714,-3.653,-3.7832,-3.8931,-3.8931,-3.9746,-4.0489,-4.05,-4.0499,-4.0441,-4.0325,-4.0298,-4.0481,-4.1065,-4.0692,-4.0492,-4.1074,-4.0864,-4.1151,-4.2603,-4.3005,-4.3722,-4.5176,-4.539,-4.5429,-4.5429,-4.514,-4.4931,-4.4896,-4.4303,-4.3908,-4.3862,-4.3632,-4.3515,-4.3515,-4.3582,-4.3765,-4.4005,-4.4552,-4.4856,-4.4946,-4.5184,-4.4782,0.0,0.0,0.0,0.0,0.0,0.0,0.0,-2.5471,0.0,0.0,0.0,0.0,0.0,0.0,0.0,0.0,0.0,0.0,0.0,0.0,0.0,0.0,0.0,0.0,0.0,0.0,0.0,0.0,-2.569,-2.5691,-2.5694,-2.571,-2.5707,-2.5707,-2.5707,-2.5707,-2.5707,-2.5619,-2.5601,-2.56,-2.5532,-2.5501,-2.5501,-2.5501,-2.5513,-2.5568,-2.5965,-2.6926,-2.8214,-2.8627,-2.9287,-3.008,-3.0605,-3.0806,-3.0799,-3.0806,-3.1029,-3.1543,-3.2928,-3.363,-3.4178,-3.5543,-3.5992,-3.5986,-3.5924,-3.5804,-3.5696,-3.562,-3.5553,-3.5615,-3.6077,-3.7469,-3.8757,-3.8757,-3.965,-4.0496,-4.0496,-4.0492,-4.0471,-4.0396,-4.037,-4.0469,-4.0921,-4.0606,-4.0463,-4.0922,-4.0883,-4.1151,-4.2125,-4.287,-4.3673,-4.4647,-4.5149,-4.539,-4.539,-4.5159,-4.5007,-4.4973,-4.4388,-4.4033,-4.4005,-4.3682,-4.3515,-4.3515,-4.3515,-4.373,-4.4181,-4.436,-4.4572,-4.48,-4.5132,-4.4873,0.0,0.0,0.0,0.0,0.0,0.0,-2.5459,-2.5478,-2.5517,0.0,0.0,0.0,0.0,0.0,0.0,0.0,0.0,0.0,0.0,0.0,0.0,0.0,0.0,0.0,0.0,0.0,-2.5707,-2.5707,-2.5691,-2.5694,-2.5694,-2.569,-2.5708,-2.5708,-2.5707,-2.5707,-2.5707,-2.5644,-2.5607,-2.5607,-2.5547,-2.5521,-2.5521,-2.5521,-2.5549,-2.5666,-2.6527,-2.7443,-2.8362,-2.9241,-3.0073,-3.0801,-3.0801,-3.0801,-3.0803,-3.0796,-3.1289,-3.209,-3.3064,-3.3905,-3.4725,-3.568,-3.5989,-3.5962,-3.5897,-3.579,-3.5663,-3.5618,-3.5618,-3.5635,-3.5635,-3.6892,-3.8142,-3.8142,-3.9361,-4.0496,-4.0496,-4.0496,-4.05,-4.0499,-4.0449,-4.0379,-4.0316,-4.0384,-4.0442,-4.0425,-4.1036,-4.1533,-4.1628,-4.2947,-4.3892,-4.3987,-4.4832,-4.5408,-4.5408,-4.5124,-4.495,-4.495,-4.4402,-4.4094,-4.4094,-4.3749,-4.3548,-4.3548,-4.3548,-4.3823,-4.4397,-4.4166,-4.4322,-4.4868,-4.5162,-4.5132,0.0,0.0,0.0,0.0,0.0,0.0,-2.5341,-2.538,-2.5414,0.0,0.0,0.0,0.0,0.0,0.0,0.0,0.0,0.0,0.0,0.0,0.0,0.0,0.0,0.0,0.0,0.0,-2.5707,-2.5707,-2.5691,-2.5694,-2.5694,-2.5693,-2.5693,-2.5693,-2.5709,-2.5707,-2.5707,-2.5683,-2.5681,-2.5681,-2.5675,-2.5653,-2.5653,-2.5653,-2.5676,-2.574,-2.6599,-2.748,-2.8362,-2.9241,-3.0078,-3.0796,-3.0796,-3.0796,-3.0798,-3.08,-3.0917,-3.1288,-3.285,-3.3513,-3.3904,-3.5485,-3.5955,-3.5894,-3.5787,-3.5683,-3.5618,-3.5547,-3.5982,-3.6462,-3.6462,-3.7757,-3.9053,-3.9053,-3.9785,-4.0496,-4.0496,-4.0496,-4.0496,-4.05,-4.0479,-4.0441,-4.0325,-4.0881,-4.1341,-4.1275,-4.1399,-4.1743,-4.245,-4.2832,-4.3291,-4.393,-4.4832,-4.5408,-4.5408,-4.5348,-4.5298,-4.5298,-4.4898,-4.4637,-4.4637,-4.4162,-4.391,-4.391,-4.391,-4.4075,-4.4397,-4.4346,-4.4617,-4.5194,-4.5267,-4.5256,0.0,0.0,0.0,-2.6149,0.0,0.0,0.0,-2.5689,0.0,0.0,0.0,0.0,0.0,0.0,0.0,0.0,0.0,0.0,0.0,0.0,0.0,0.0,0.0,0.0,0.0,0.0,-2.5708,-2.569,-2.569,-2.5693,-2.5697,-2.5695,-2.5694,-2.5694,-2.5692,-2.5709,-2.5707,-2.5707,-2.5707,-2.5707,-2.5707,-2.5707,-2.5707,-2.5707,-2.5707,-2.5765,-2.7073,-2.7893,-2.8401,-2.9669,-3.0684,-3.1407,-3.0976,-3.08,-3.08,-3.08,-3.1347,-3.2225,-3.3103,-3.3962,-3.4838,-3.568,-3.5931,-3.5872,-3.5691,-3.5588,-3.5534,-3.5501,-3.5788,-3.6096,-3.6096,-3.7373,-3.8642,-3.8642,-3.9611,-4.0496,-4.0496,-4.0496,-4.0496,-4.0496,-4.05,-4.0606,-4.0935,-4.1358,-4.1752,-4.2097,-4.2488,-4.2756,-4.2794,-4.352,-4.4036,-4.4006,-4.4801,-4.5348,-4.5348,-4.5348,-4.5348,-4.5348,-4.4992,-4.4788,-4.4788,-4.4416,-4.4192,-4.4192,-4.4192,-4.4332,-4.4599,-4.4599,-4.4758,-4.5045,-4.5224,-4.5307,0.0,0.0,0.0,0.0,0.0,-2.674,0.0,0.0,0.0,0.0,0.0,0.0,0.0,0.0,0.0,0.0,0.0,0.0,0.0,0.0,0.0,0.0,0.0,0.0,0.0,0.0,-2.5861,-2.5712,-2.5844,-2.5865,-2.5719,-2.5697,-2.5695,-2.5695,-2.5694,-2.5692,-2.5708,-2.5707,-2.5707,-2.5707,-2.5707,-2.5707,-2.5707,-2.5707,-2.5785,-2.6039,-2.762,-2.8401,-2.8674,-3.0176,-3.1211,-3.1777,-3.1075,-3.1015,-3.1288,-3.1113,-3.2049,-3.3416,-3.3591,-3.4567,-3.5773,-3.5868,-3.5875,-3.581,-3.5639,-3.5534,-3.55,-3.55,-3.55,-3.55,-3.55,-3.6731,-3.8007,-3.8007,-3.9277,-4.0496,-4.0496,-4.0496,-4.0496,-4.0496,-4.0496,-4.0753,-4.1564,-4.1834,-4.2181,-4.2918,-4.3567,-4.3758,-4.3119,-4.4218,-4.4801,-4.4084,-4.4801,-4.5317,-4.5317,-4.5307,-4.5307,-4.5307,-4.5045,-4.491,-4.491,-4.4624,-4.4479,-4.4479,-4.4479,-4.463,-4.491,-4.491,-4.491,-4.4891,-4.5173,-4.5307,0.0,0.0,0.0,0.0,-2.784,0.0,0.0,0.0,0.0,0.0,0.0,0.0,0.0,0.0,0.0,0.0,0.0,0.0,0.0,0.0,0.0,0.0,0.0,0.0,0.0,0.0,0.0,-2.575,-2.6362,-2.6441,-2.5738,-2.57,-2.57,-2.57,-2.5696,-2.5694,-2.5693,-2.5709,-2.5707,-2.5707,-2.5707,-2.5707,-2.5707,-2.5707,-2.6117,-2.6918,-2.7874,-2.8732,-2.9514,-3.0431,-3.0859,-3.0937,-3.0839,-3.1737,-3.3006,-3.2246,-3.2578,-3.3513,-3.4276,-3.4686,-3.4955,-3.5673,-3.5784,-3.5623,-3.5534,-3.5514,-3.55,-3.55,-3.55,-3.55,-3.55,-3.6731,-3.8007,-3.8007,-3.9277,-4.0496,-4.0496,-4.0496,-4.0496,-4.0496,-4.0496,-4.0753,-4.1564,-4.2285,-4.3015,-4.3759,-4.393,-4.3968,-4.3873,-4.4076,-4.4202,-4.4106,-4.4871,-4.5398,-4.5398,-4.5328,-4.5307,-4.5307,-4.5256,-4.5246,-4.5246,-4.4934,-4.4751,-4.4751,-4.4751,-4.4922,-4.5246,-4.5246,-4.5246,-4.5246,-4.5267,-4.5307,0.0,0.0,0.0,0.0,0.0,0.0,0.0,0.0,-2.5406,0.0,0.0,0.0,0.0,0.0,0.0,0.0,0.0,0.0,0.0,0.0,0.0,0.0,0.0,0.0,0.0,0.0,0.0,0.0,0.0,-2.6058,-2.5716,-2.5699,-2.5699,-2.5697,-2.5695,-2.5693,-2.571,-2.5708,-2.5707,-2.5707,-2.5707,-2.5707,-2.5707,-2.5707,-2.6175,-2.7055,-2.7913,-2.8791,-2.9651,-3.047,-3.1094,-3.1543,-3.1543,-3.1992,-3.2656,-3.2792,-3.3417,-3.4217,-3.4569,-3.5037,-3.5497,-3.571,-3.567,-3.5541,-3.552,-3.55,-3.55,-3.55,-3.55,-3.55,-3.55,-3.6731,-3.8007,-3.8007,-3.9277,-4.0496,-4.0496,-4.0496,-4.0496,-4.0496,-4.0496,-4.0915,-4.2232,-4.2706,-4.3331,-4.4632,-4.4782,-4.4743,-4.4743,-4.4813,-4.4843,-4.4843,-4.5178,-4.5399,-4.5409,-4.5329,-4.5317,-4.5367,-4.5317,-4.5307,-4.5307,-4.5205,-4.5143,-4.5143,-4.5143,-4.5216,-4.5348,-4.5317,-4.5307,-4.5307,-4.5307,-4.5307,-3.0467,0.0,0.0,0.0,0.0,0.0,0.0,0.0,0.0,0.0,0.0,0.0,0.0,0.0,0.0,0.0,0.0,0.0,0.0,0.0,0.0,0.0,0.0,0.0,0.0,0.0,0.0,0.0,-2.59,-2.5924,-2.5715,-2.5699,-2.5699,-2.5696,-2.5694,-2.5692,-2.5709,-2.5708,-2.5707,-2.5707,-2.5707,-2.5707,-2.5707,-2.5941,-2.6529,-2.7409,-2.8286,-2.9145,-3.0007,-3.0592,-3.1334,-3.2115,-3.2369,-3.2603,-3.2896,-3.3516,-3.4316,-3.506,-3.506,-3.5464,-3.5953,-3.5795,-3.567,-3.5553,-3.5553,-3.5553,-3.5553,-3.5553,-3.5547,-3.5522,-3.5522,-3.6766,-3.8007,-3.8007,-3.9277,-4.0496,-4.0496,-4.0496,-4.0496,-4.0496,-4.0496,-4.0962,-4.242,-4.2818,-4.3502,-4.5141,-4.5359,-4.5328,-4.5329,-4.536,-4.5409,-4.5429,-4.5429,-4.5419,-4.54,-4.536,-4.5338,-4.5359,-4.5328,-4.5307,-4.5307,-4.5359,-4.5408,-4.5408,-4.5399,-4.5399,-4.5408,-4.5339,-4.5309,-4.5307,-4.5307,-4.5307,0.0,0.0,0.0,-3.186,0.0,0.0,0.0,0.0,-2.5503,0.0,0.0,0.0,0.0,0.0,0.0,-2.3153,0.0,0.0,0.0,0.0,0.0,0.0,0.0,0.0,0.0,0.0,0.0,-2.5767,-2.6427,-2.6518,-2.5738,-2.57,-2.57,-2.57,-2.5696,-2.5694,-2.5694,-2.5709,-2.5707,-2.5707,-2.5707,-2.5707,-2.5726,-2.6567,-2.7429,-2.8311,-2.9189,-3.0051,-3.0855,-3.0894,-3.1363,-3.2183,-3.3022,-3.3861,-3.4622,-3.4652,-3.5218,-3.5965,-3.5965,-3.5928,-3.589,-3.5907,-3.5795,-3.5689,-3.5689,-3.5689,-3.5689,-3.5689,-3.5641,-3.5602,-3.5602,-3.6781,-3.8007,-3.8007,-3.9277,-4.0496,-4.0496,-4.0496,-4.0496,-4.0496,-4.0496,-4.0785,-4.1673,-4.2486,-4.3528,-4.516,-4.54,-4.5399,-4.539,-4.54,-4.5419,-4.5495,-4.5495,-4.5476,-4.541,-4.54,-4.5359,-4.5307,-4.5307,-4.5307,-4.5307,-4.5359,-4.5408,-4.5408,-4.54,-4.54,-4.5408,-4.54,-4.537,-4.5307,-4.5307,-4.5307,0.0,0.0,-2.9866,-3.1559,0.0,0.0,0.0,0.0,0.0,0.0,0.0,0.0,0.0,0.0,-2.3721,-2.2291,-2.1356,0.0,0.0,0.0,0.0,0.0,0.0,0.0,0.0,0.0,0.0,-2.5658,-2.5936,-2.5986,0.0,-2.57,-2.57,-2.5696,-2.5694,-2.5693,-2.5709,-2.5708,-2.5707,-2.5707,-2.5707,-2.6,-2.6567,-2.6879,-2.7799,-2.9189,-2.9462,-3.009,-3.0894,-3.0894,-3.105,-3.1441,-3.2846,-3.3589,-3.3978,-3.5128,-3.5754,-3.6009,-3.6009,-3.5955,-3.5899,-3.5892,-3.5807,-3.5702,-3.5702,-3.5698,-3.5698,-3.5698,-3.565,-3.5604,-3.5655,-3.6853,-3.8074,-3.8061,-3.938,-4.0602,-4.0519,-4.0496,-4.0496,-4.0496,-4.0496,-4.0785,-4.1662,-4.203,-4.2774,-4.442,-4.5093,-4.5409,-4.54,-4.54,-4.5429,-4.5495,-4.5504,-4.5495,-4.5476,-4.5438,-4.5398,-4.5378,-4.5378,-4.5379,-4.537,-4.5419,-4.5467,-4.5467,-4.5467,-4.5467,-4.5467,-4.541,-4.539,-4.537,-4.537,-4.533,-2.9593,-2.9258,0.0,-3.0317,-2.9636,0.0,-3.0249,0.0,0.0,0.0,0.0,0.0,0.0,0.0,0.0,-2.1974,-2.119,-2.0852,0.0,0.0,0.0,0.0,0.0,0.0,0.0,0.0,-2.5601,-2.5639,-2.5686,-2.5697,0.0,0.0,-2.57,-2.5696,-2.5694,-2.569,-2.5707,-2.5707,-2.5707,-2.5707,-2.6002,-2.6452,-2.7019,-2.7645,-2.8546,-2.9623,-2.9935,-3.0386,-3.0897,-3.0897,-3.1072,-3.1463,-3.2557,-3.3337,-3.404,-3.5465,-3.5992,-3.5993,-3.5994,-3.5968,-3.5931,-3.5942,-3.588,-3.5808,-3.5807,-3.582,-3.582,-3.582,-3.5963,-3.6142,-3.6196,-3.7408,-3.8623,-3.8566,-3.9663,-4.0662,-4.0527,-4.0496,-4.0496,-4.0496,-4.0496,-4.0689,-4.1239,-4.1585,-4.2376,-4.4042,-4.4671,-4.5093,-4.5428,-4.5429,-4.5429,-4.5541,-4.555,-4.5407,-4.51,-4.4729,-4.4509,-4.4509,-4.4796,-4.4969,-4.4978,-4.5323,-4.5504,-4.5504,-4.5522,-4.5522,-4.5504,-4.5485,-4.5438,-4.541,-4.5419,-4.541]},{"header":{"parameterUnit":"m.s-1","parameterCategory":1,"la1":30.6,"la2":29.2853,"lo1":-89.7004,"lo2":-87.6739,"dy":0.0162,"dx":0.0183,"nx":112,"ny":82,"refTime":"2023-03-27T18:00:00:Z","depth":0,"parameterNumber":3,"parameterNumberName":"V-component_of_WINDS"},"data":[0.0,0.0,0.0,0.0,0.0,0.0,0.0,0.0,0.0,0.0,0.0,0.0,0.0,0.0,0.0,0.0,0.0,0.0,0.0,0.0,0.0,0.0,0.0,0.0,0.0,0.0,0.0,0.0,0.0,0.0,0.0,0.0,0.0,0.0,0.0,0.0,0.0,0.0,0.0,0.0,0.0,0.0,0.0,0.0,0.0,0.0,0.0,0.0,0.0,0.0,0.0,0.0,0.0,0.0,0.0,0.0,0.0,0.0,0.0,0.0,0.0,0.0,0.0,0.0,0.0,0.0,0.0,0.0,0.0,0.0,0.0,0.0,0.0,0.0,0.0,0.0,0.0,0.0,0.0,0.0,0.0,0.0,0.0,0.0,0.0,0.0,0.0,0.0,0.0,0.0,0.0,0.4756,0.65,0.7284,0.6322,0.6412,0.5412,0.2766,0.0,0.0,0.0,0.0,0.0,0.0,0.0,0.0,0.0,0.0,0.0,0.0,0.0,0.0,0.0,0.0,0.0,0.0,0.0,0.0,0.0,0.0,0.0,0.0,0.0,0.0,0.0,0.0,0.0,0.0,0.0,0.0,0.0,0.0,0.0,0.0,0.0,0.0,0.0,0.0,0.0,0.0,0.0,0.0,0.0,0.0,0.0,0.0,0.0,0.0,0.0,0.0,0.0,0.0,0.0,0.0,0.0,0.0,0.0,0.0,0.0,0.0,0.0,0.0,0.0,0.0,0.0,0.0,0.0,0.0,0.0,0.0,0.0,0.0,0.0,0.0,0.0,0.0,0.0,0.0,0.0,0.0,0.0,0.0,0.0,0.0,0.0,0.0,0.0,0.0,0.0,0.0,0.0,0.0,0.0,0.0,0.0,0.0,0.0,0.0,0.0,0.0,0.0,0.0,0.5076,0.6892,0.6867,0.6511,0.6007,0.559,0.4831,0.3585,0.0,0.0,0.0,0.0,0.0,0.0,0.0,0.0,0.0,0.0,0.0,0.0,0.0,0.0,0.0,0.0,0.0,0.0,0.0,0.0,0.0,0.0,0.0,0.0,0.0,0.0,0.0,0.0,0.0,0.0,0.0,0.0,0.0,0.0,0.0,0.0,0.0,0.0,0.0,0.0,0.0,0.0,0.0,0.0,0.0,0.0,0.0,0.0,0.0,0.0,0.0,0.0,0.0,0.0,0.0,0.0,0.0,0.0,0.0,0.0,0.0,0.0,0.0,0.0,0.0,0.0,0.0,0.0,0.0,0.0,0.0,0.0,0.0,0.0,0.0,0.0,0.0,0.0,0.0,0.0,0.0,0.0,0.0,0.0,0.0,0.0,0.0,0.0,0.0,0.0,0.0,0.0,0.0,0.0,0.0,0.0,0.0,0.0,0.0,0.0,0.0,0.0,0.0,0.3097,0.3876,0.6558,0.5897,0.4994,0.4386,0.4208,0.3658,0.2581,0.2806,0.0,0.0,0.0,0.0,0.0,0.0,0.0,0.0,0.0,0.0,0.0,0.0,0.0,0.0,0.0,0.0,0.0,0.0,0.0,0.0,0.0,0.0,0.0,0.0,0.0,0.0,0.0,0.0,0.0,0.0,0.0,0.0,0.0,0.0,0.0,0.0,0.0,0.0,0.0,0.0,0.0,0.0,0.0,0.0,0.0,0.0,0.0,0.0,0.0,0.0,0.0,0.0,0.0,0.0,0.0,0.0,0.0,0.0,0.0,0.0,0.0,0.0,0.0,0.0,0.0,0.0,0.0,0.0,0.0,0.0,0.0,0.0,0.0,0.0,0.0,0.0,0.0,0.0,0.0,0.0,0.0,0.0,0.0,0.0,0.0,0.0,0.0,0.0,0.0,0.0,0.0,0.0,0.0,0.0,0.0,0.0,0.0,0.0,0.0,0.0,0.0,0.0,0.2857,0.3144,0.5387,0.4444,0.336,0.2612,0.2794,0.253,0.1547,0.1709,0.0,0.0,0.0,0.0,0.0,0.0,0.0,0.0,0.0,0.0,0.0,0.0,0.0,0.0,0.0,0.0,0.0,0.0,0.0,0.0,0.0,0.0,0.0,0.0,0.0,0.0,0.0,0.0,0.0,0.0,0.0,0.0,0.0,0.0,0.0,0.0,0.0,0.0,0.0,0.0,0.0,0.0,0.0,0.0,0.0,0.0,0.0,0.0,0.0,0.0,0.0,0.0,0.0,0.0,0.0,0.0,0.0,0.0,0.0,0.0,0.0,0.0,0.0,0.0,0.0,0.0,0.0,0.0,0.0,0.0,0.0,0.0,0.0,0.0,0.0,0.0,0.0,0.0,0.0,0.0,0.0,0.0,0.0,0.0,0.0,0.0,0.0,0.0,0.0,0.0,0.0,0.0,0.0,0.0,0.0,0.0,0.0,0.0,0.0,0.0,0.0,0.0,0.3545,0.4005,0.3972,0.2823,0.1837,0.128,0.1642,0.176,0.1432,0.1021,0.0,0.0,0.0,0.0,0.0,0.0,0.0,0.0,0.0,0.0,0.0,0.0,0.0,0.0,0.0,0.0,0.0,0.0,0.0,0.0,0.0,0.0,0.0,0.0,0.0,0.0,0.0,0.0,0.0,0.0,0.0,0.0,0.0,0.0,0.0,0.0,0.0,0.0,0.0,0.0,0.0,0.0,0.0,0.0,0.0,0.0,0.0,0.0,0.0,0.0,0.0,0.0,0.0,0.0,0.0,0.0,0.0,0.0,0.0,0.0,0.0,0.0,0.0,0.0,0.0,0.0,0.0,0.0,0.0,0.0,0.0,0.0,0.0,0.0,0.0,0.0,0.0,0.0,0.0,0.0,0.0,0.0,0.0,0.0,0.0,0.0,0.0,0.0,0.0,0.0,0.0,0.0,0.0,0.0,0.0,0.0,0.0,0.0,0.0,0.0,0.0,0.0,0.2786,0.1988,0.0,0.1997,0.1488,0.1249,0.1349,0.1596,0.1992,0.0,0.0,0.0,0.0,0.0,0.0,0.0,0.0,0.0,0.0,0.0,0.0,0.0,0.0,0.0,0.0,0.0,0.0,0.0,0.0,0.0,0.0,0.0,0.0,0.0,0.0,0.0,0.0,0.0,0.0,0.0,0.0,0.0,0.0,0.0,0.0,0.0,0.0,0.0,0.0,0.0,0.0,0.0,0.0,0.0,0.0,0.0,0.0,0.0,0.0,0.0,0.0,0.0,0.0,0.0,0.0,0.0,0.0,0.0,0.0,0.0,0.0,0.0,0.0,0.0,0.0,0.0,0.0,0.0,0.0,0.0,0.0,0.0,0.0,0.0,0.0,0.0,0.0,0.0,0.0,0.0,0.0,0.0,0.0,0.0,0.0,0.0,0.0,0.0,0.0,0.0,0.0,0.0,0.0,0.0,0.0,0.0,0.0,0.0,0.0,0.0,0.0,0.4345,0.2107,0.0736,0.0,0.1351,0.109,0.1025,0.0968,0.1078,0.1405,0.0,0.0,0.0,0.0,0.0,0.0,0.0,0.0,0.0,0.0,0.0,0.0,0.0,0.0,0.0,0.0,0.0,0.0,0.0,0.0,0.0,0.0,0.0,0.0,0.0,0.0,0.0,0.0,0.0,0.0,0.0,0.0,0.0,0.0,0.0,0.0,0.0,0.0,0.0,0.0,0.0,0.0,0.0,0.0,0.0,0.0,0.0,0.0,0.0,0.0,0.0,0.0,0.0,0.0,0.0,0.0,0.0,0.0,0.0,0.0,0.0,0.0,0.0,0.0,0.0,0.0,0.0,0.0,0.0,0.0,0.0,0.0,0.0,0.0,0.0,0.0,0.0,0.0,0.0,0.0,0.0,0.0,0.0,0.0,0.0,0.0,0.0,0.0,0.0,0.0,0.0,0.0,0.0,0.0,0.0,0.0,0.0,0.0,0.0,0.0,0.0,0.0,0.3336,0.171,0.0779,0.1241,0.0813,0.0468,0.0404,0.0399,0.0078,0.0,0.0,0.0,0.0,0.0,0.0,0.0,0.0,0.0,0.0,0.0,0.0,0.0,0.0,0.0,0.0,0.0,0.0,0.0,0.0,0.0,0.0,0.0,0.0,0.0,0.0,0.0,0.0,0.0,0.0,0.0,0.0,0.0,0.0,0.0,0.0,0.0,0.0,0.0,0.0,0.0,0.0,0.0,0.0,0.0,0.0,0.0,0.0,0.0,0.0,0.0,0.0,0.0,0.0,0.0,0.0,0.0,0.0,0.0,0.0,0.0,0.0,0.0,0.0,0.0,0.0,0.0,0.0,0.0,0.0,0.0,0.0,0.0,0.0,0.0,0.0,0.0,0.0,0.0,0.0,0.0,0.0,0.0,0.0,0.0,0.0,0.0,0.0,0.0,0.0,0.0,0.0,0.0,0.0,0.0,0.0,0.0,0.0,0.0,0.0,0.0,0.0,0.0,0.2538,0.1437,0.0593,0.0401,0.0414,0.0388,0.0266,0.035,-0.0095,-0.1261,0.0,0.0,0.0,0.0,0.0,0.0,0.0,0.0,0.0,0.0,0.0,0.0,0.0,0.0,0.0,0.0,0.0,0.0,0.0,0.0,0.0,0.0,0.0,0.0,0.0,0.0,0.0,0.0,0.0,0.0,0.0,0.0,0.0,0.0,0.0,0.0,0.0,0.0,0.0,0.0,0.0,0.0,0.0,0.0,0.0,0.0,0.0,0.0,0.0,0.0,0.0,0.0,0.0,0.0,0.0,0.0,0.0,0.0,0.0,0.0,0.0,0.0,0.0,0.0,0.0,0.0,0.0,0.0,0.0,0.0,0.0,0.0,0.0,0.0,0.0,0.0,0.0,0.0,0.0,0.0,0.0,0.0,0.0,0.0,0.0,0.0,0.0,0.0,0.0,0.0,0.0,0.0,0.0,0.0,0.0,0.0,0.0,0.0,0.0,0.0,0.0,0.0,0.2221,0.1206,0.0304,-0.0012,0.0034,0.0062,0.0,0.0075,-0.0308,-0.1299,0.0,0.0,0.0,0.0,0.0,0.0,0.0,0.0,0.0,0.0,0.0,0.0,0.0,0.0,0.0,0.0,0.0,0.0,0.0,0.0,0.0,0.0,0.0,0.0,0.0,0.0,0.0,0.0,0.0,0.0,0.0,0.0,0.0,0.0,0.0,0.0,0.0,0.0,0.0,0.0,0.0,0.0,0.0,0.0,0.0,0.0,0.0,0.0,0.0,0.0,0.0,0.0,0.0,0.0,0.0,0.0,0.0,0.0,0.0,0.0,0.0,0.0,0.0,0.0,0.0,0.0,0.0,0.0,0.0,0.0,0.0,0.0,0.0,0.0,0.0,0.0,0.0,0.0,0.0,0.0,0.0,0.0,0.0,0.0,0.0,0.0,0.0,0.0,0.0,0.0,0.0,0.0,0.0,0.0,0.0,0.0,0.0,0.0,0.0,0.0,0.0,0.0,0.2118,0.0972,-0.0035,-0.0122,-0.028,-0.0369,-0.0318,-0.0306,-0.0556,-0.1143,0.0,0.0,0.0,0.0,0.0,0.0,0.0,0.0,0.0,0.0,0.0,0.0,0.0,0.0,0.0,0.0,0.0,0.0,0.0,0.0,0.0,0.0,0.0,0.0,0.0,0.0,0.0,0.0,0.0,0.0,0.0,0.0,0.0,0.0,0.0,0.0,0.0,0.0,0.0,0.0,0.0,0.0,0.0,0.0,0.0,0.0,0.0,0.0,0.0,0.0,0.0,0.0,0.0,0.0,0.0,0.0,0.0,0.0,0.0,0.0,0.492,0.0,0.0,0.0,0.0,0.0,0.0,0.0,0.0,0.0,0.0,0.0,0.0,0.0,0.0,0.0,0.0,0.0,0.0,0.0,0.0,0.0,0.0,0.0,0.0,0.0,0.0,0.0,0.0,0.0,0.0,0.0,0.0,0.0,0.0,0.0,0.0,0.0,0.0,0.0,0.0,0.0,0.1078,0.0469,-0.0142,-0.0312,-0.0325,-0.0333,-0.0379,-0.0378,-0.1012,-0.2482,0.0,0.0,0.0,0.0,0.0,0.0,0.0,0.0,0.0,0.0,0.0,0.0,0.0,0.0,0.0,0.0,0.0,0.0,0.0,0.0,0.0,0.0,0.0,0.0,0.0,0.0,0.0,0.0,0.0,0.0,0.0,0.0,0.0,0.0,0.0,0.0,0.0,0.0,0.0,0.0,0.0,0.0,0.0,0.0,0.0,0.0,0.0,0.0,0.0,0.0,0.0,0.0,0.0,0.0,0.0,0.0,0.0,0.0,0.0,0.0,0.0,0.446,0.0,0.0,0.0,0.0,0.0,0.0,0.0,0.0,0.0,0.0,0.0,0.0,0.0,0.0,0.0,0.0,0.0,0.0,0.0,0.0,0.0,0.0,0.0,0.0,0.0,0.0,0.0,0.0,0.0,0.0,0.0,0.0,0.0,0.0,0.0,0.0,0.0,0.0,0.0,0.0,0.0266,0.0107,-0.0238,-0.0468,-0.0438,-0.0439,-0.0542,-0.0515,-0.0953,-0.2027,-0.2377,0.0,0.0,0.0,0.0,0.0,0.0,0.0,0.0,0.0,0.0,0.0,0.0,0.0,0.0,0.0,0.0,0.0,0.0,0.0,0.0,0.0,0.0,0.0,0.0,0.0,0.0,0.0,0.0,0.0,0.0,0.0,0.0,0.0,0.0,0.0,0.0,0.0,0.0,0.0,0.0,0.0,0.0,0.0,0.0,0.0,0.0,0.0,0.0,0.0,0.0,0.0,0.0,0.0,0.0,0.4262,0.3224,0.2806,0.2626,0.2708,0.4093,0.3847,0.2558,0.0,0.0,0.0,0.0,0.0,0.0,0.0,0.0,0.0,0.0,0.0,0.0,0.0,0.0,0.0,0.0,0.0,0.0,0.0,0.0,0.0,0.0,0.0,0.0,0.0,0.1063,0.0643,0.0,0.0,0.0,0.0,0.0,0.0,0.0,0.0,0.0,0.0,0.0,0.0,-0.0454,-0.0219,-0.0337,-0.0643,-0.0567,-0.0546,-0.0675,-0.0638,-0.0768,-0.1143,-0.2487,-0.3083,0.0,0.0,0.0,0.0,0.0,0.0,0.0,0.0,0.0,0.0,0.0,0.0,0.0,0.0,0.0,0.0,0.0,0.0,0.0,0.0,0.0,0.0,0.0,0.0,0.0,0.0,0.0,0.0,0.0,0.0,0.0,0.0,1.2119,1.1494,0.0,0.0,0.0,0.0,0.0,0.0,0.0,0.0,0.0,0.0,0.0,0.0,0.0,0.0,0.7153,0.6486,0.5866,0.5255,0.5517,0.5252,0.4532,0.4124,0.3801,0.3531,0.3469,0.0,0.28,0.3558,0.0,0.0,0.0,0.0,0.0,0.0,0.0,0.0,0.0,0.0,0.0,0.0,0.0,0.0,0.0,0.0,0.0,0.0,0.0,0.0,0.0,0.0,0.1118,0.0942,0.0716,0.0727,0.0,0.1308,0.1098,0.0986,0.0,0.0,0.0,0.0,0.0,0.0,0.0,0.0,-0.1214,-0.0635,-0.0459,-0.09,-0.0674,-0.0525,-0.0604,-0.0651,-0.0903,-0.1418,-0.1703,-0.2665,-0.4475,-0.3486,0.0,0.0,0.0,0.0,0.0,0.0,0.0,0.0,0.0,0.0,0.0,0.0,0.0,0.0,0.0,0.0,0.0,0.0,0.0,0.0,0.0,0.0,0.0,0.0,0.0,0.0,0.0,0.0,0.0,1.358,1.114,0.9517,1.1589,1.2617,0.0,0.0,0.0,0.0,0.0,0.0,0.0,0.0,0.0,0.8806,0.7965,0.7265,0.6726,0.6479,0.6063,0.5496,0.5697,0.5545,0.5078,0.4704,0.4328,0.3962,0.3626,0.3305,0.3051,0.3467,0.3708,0.3974,0.0,0.0,0.0,0.0,0.0,0.5335,0.4462,0.0,0.0,0.0,0.0,0.0,0.0,0.0,0.0,0.0,0.0,0.0,0.0,0.0,0.0,0.0472,0.051,0.0585,0.0752,0.0745,0.0558,0.0,-0.0069,-0.0386,-0.1393,0.0,0.0,0.0,0.0,0.0,-0.1866,-0.1247,-0.0861,-0.083,-0.0705,-0.063,-0.065,-0.1,-0.1361,-0.1756,-0.2127,-0.2774,-0.3737,-0.3349,-0.3604,0.0,0.0,0.0,0.0,0.0,0.0,0.0,0.0,0.0,0.0,0.0,0.0,0.0,0.0,0.0,0.0,0.0,0.0,0.0,0.0,0.0,0.0,0.0,0.0,0.0,0.0,0.0,0.0,1.2905,0.992,0.7842,0.918,0.967,0.0,0.0,0.0,0.0,0.0,0.0,1.018,0.9108,0.8409,0.8149,0.709,0.662,0.6792,0.6762,0.6413,0.5742,0.5742,0.5585,0.5261,0.4832,0.4473,0.4178,0.3751,0.3413,0.3175,0.3228,0.3367,0.3638,0.4521,0.5066,0.5387,0.569,0.5215,0.4267,0.3324,0.2506,0.1851,0.1524,0.0,0.1249,0.2197,0.0,0.0,0.0,0.0,0.1681,0.2047,0.0947,-0.0161,0.0218,0.0333,0.0416,0.0596,0.0314,0.0,0.0,-0.0861,-0.1566,-0.2002,0.0,0.0,0.0,0.0,-0.2496,-0.199,-0.1562,-0.1175,-0.0855,-0.085,-0.0887,-0.0877,-0.1431,-0.1925,-0.2277,-0.2763,-0.3116,-0.3323,-0.3497,-0.3549,-0.3507,0.0,0.0,0.0,0.0,0.0,0.0,0.0,0.0,0.0,0.0,0.0,0.0,0.0,0.0,0.0,0.0,0.0,0.0,0.0,0.0,0.0,0.0,0.0,0.0,0.0,0.0,0.0,0.0,0.0,0.7361,0.8095,0.0,0.0,0.0,0.0,0.9377,0.9192,0.83,0.6202,0.6321,0.6592,0.6885,0.7055,0.7038,0.6807,0.6671,0.6267,0.5611,0.5611,0.5462,0.5192,0.4532,0.4226,0.4161,0.3516,0.3175,0.3082,0.2697,0.3111,0.3939,0.356,0.4033,0.4854,0.419,0.3572,0.3056,0.2811,0.2244,0.1807,0.2974,0.3133,0.2575,0.1021,0.155,0.0,0.0,0.1061,0.1165,0.0505,-0.0036,-0.0313,-0.0038,0.0163,0.0329,0.0404,-0.0449,-0.0741,0.0,0.1055,0.0875,0.0716,0.0,-0.0265,-0.0112,-0.1047,-0.1617,-0.1215,-0.1243,-0.1262,-0.1187,-0.1296,-0.1367,-0.1357,-0.1921,-0.2524,-0.3103,-0.3296,-0.3723,-0.4487,-0.4045,-0.3862,-0.4057,-0.3386,0.0,0.0,0.0,0.0,0.0,0.0,0.0,0.0,0.0,0.0,0.0,0.0,0.0,0.0,0.0,0.0,0.0,0.0,0.0,0.0,0.0,0.0,0.0,0.0,0.0,0.0,0.0,0.0,0.8116,0.8003,0.0,0.0,0.8362,0.9004,0.6727,0.6667,0.6611,0.6264,0.6025,0.6128,0.6601,0.6496,0.6452,0.6482,0.6601,0.6439,0.5981,0.5903,0.5696,0.5375,0.4837,0.4467,0.4256,0.4008,0.3707,0.334,0.3111,0.3105,0.3238,0.3282,0.3401,0.3526,0.3296,0.2965,0.2616,0.2637,0.2314,0.1969,0.2207,0.2138,0.1804,0.0871,0.0752,0.0825,0.0346,0.0173,0.012,0.0035,-0.0104,-0.0174,-0.0035,0.0052,0.0137,0.024,-0.0038,-0.008,0.0745,0.0154,-0.0464,-0.0279,-0.0216,-0.0622,-0.1905,-0.1941,-0.1885,-0.2045,-0.2103,-0.2047,-0.1798,-0.1949,-0.1994,-0.1858,-0.2561,-0.3072,-0.3198,-0.3697,-0.4268,-0.4901,-0.4404,-0.4118,-0.4108,-0.4427,-0.4169,0.0,0.0,0.0,0.0,0.0,0.0,0.0,0.0,0.0,0.0,0.0,0.0,0.0,0.0,0.0,0.0,0.0,0.0,0.0,0.0,0.0,0.0,0.0,0.0,0.0,0.0,0.7979,0.8303,0.7358,0.6236,0.5074,0.6564,0.7057,0.5745,0.5683,0.5882,0.6271,0.596,0.5884,0.612,0.6112,0.599,0.5765,0.6096,0.6038,0.5585,0.5565,0.5441,0.5216,0.4821,0.4504,0.428,0.3989,0.3656,0.329,0.3107,0.2836,0.2573,0.2968,0.2976,0.2789,0.2916,0.2747,0.2436,0.2454,0.2388,0.2244,0.1864,0.1612,0.1367,0.0853,0.0369,-0.0034,-0.0189,-0.049,-0.0748,-0.0598,-0.0674,-0.0767,-0.0724,-0.0527,-0.0324,-0.0246,-0.0039,0.0238,0.0573,-0.0086,-0.0663,-0.0601,-0.0461,-0.105,-0.3039,-0.2713,-0.2437,-0.3039,-0.2873,-0.2555,-0.2138,-0.2381,-0.2507,-0.2373,-0.3259,-0.3763,-0.3685,-0.4391,-0.5048,-0.5628,-0.5144,-0.4837,-0.4775,-0.5675,-0.5642,-0.464,0.0,0.0,0.0,0.0,0.0,0.0,0.0,0.0,0.0,0.0,0.0,0.0,0.0,0.0,0.0,0.0,0.0,0.0,0.0,0.0,0.0,0.0,0.0,1.12,0.9294,0.7642,0.7668,0.6002,0.503,0.5443,0.5887,0.6232,0.6451,0.6209,0.5998,0.5872,0.5861,0.5703,0.5397,0.5943,0.5742,0.4712,0.5161,0.5062,0.442,0.4602,0.4695,0.4705,0.4414,0.428,0.4222,0.3366,0.2953,0.2872,0.2617,0.2303,0.2048,0.2577,0.2736,0.2696,0.2962,0.2803,0.2447,0.2259,0.2413,0.2613,0.2137,0.1809,0.1489,0.0867,0.0352,-0.0119,-0.0575,-0.1,-0.1345,-0.147,-0.1802,-0.2099,-0.2073,-0.1523,-0.103,-0.1077,-0.0527,0.0079,0.0394,0.0551,0.0494,0.0067,-0.0403,-0.1327,-0.3107,-0.31,0.0,-0.3966,-0.3395,-0.2719,-0.2235,-0.2662,-0.2976,-0.2976,-0.4008,-0.4654,-0.4648,-0.5395,-0.611,-0.6714,-0.6282,-0.6085,-0.6171,-0.6959,-0.7298,-0.714,0.0,0.0,0.0,0.0,0.0,0.0,0.0,0.0,0.0,0.0,0.0,0.0,0.0,0.0,0.0,0.0,0.0,0.0,0.0,0.0,0.0,0.0,0.7033,0.8388,0.5907,0.4172,0.4762,0.435,0.4343,0.5132,0.5027,0.5104,0.5596,0.5109,0.4921,0.5237,0.4829,0.4802,0.5232,0.5086,0.4922,0.4768,0.4992,0.5028,0.483,0.4734,0.4781,0.488,0.4143,0.3783,0.3761,0.3183,0.2833,0.2667,0.2556,0.2306,0.2019,0.2208,0.2166,0.1981,0.2008,0.2001,0.1987,0.1982,0.2111,0.2198,0.1833,0.1625,0.1384,0.064,0.0052,-0.0465,-0.0923,-0.1395,-0.1671,-0.1417,-0.168,-0.1925,-0.154,-0.1295,-0.1119,-0.0975,-0.0791,-0.0597,-0.0412,-0.0626,-0.071,-0.0344,-0.0965,-0.1739,-0.2493,-0.2528,0.0,-0.3355,-0.326,-0.3418,-0.4195,-0.4494,-0.4689,-0.4788,-0.5648,-0.5977,0.0,-0.6068,-0.676,-0.7465,-0.7186,-0.7304,-0.7906,-0.72,-0.7279,0.0,0.0,0.0,0.0,0.0,0.0,0.0,0.0,0.0,0.0,0.0,0.0,0.0,0.0,0.0,0.0,0.0,0.0,0.0,0.0,0.0,0.0,0.6517,0.4437,0.5096,0.3664,0.2716,0.3187,0.3518,0.3965,0.4651,0.4603,0.47,0.5149,0.4701,0.452,0.4729,0.4345,0.4236,0.452,0.4435,0.4365,0.4336,0.4585,0.4713,0.4692,0.4398,0.4295,0.4346,0.364,0.3287,0.0,0.2778,0.2444,0.2194,0.1875,0.1506,0.0,0.0,0.0,0.0,0.0,0.1675,0.161,0.1692,0.1714,0.1642,0.145,0.1344,0.1133,0.0303,-0.0217,-0.0679,-0.151,-0.1932,-0.2147,-0.2172,-0.2387,-0.2542,-0.2331,-0.2107,-0.1905,-0.183,-0.1584,-0.134,-0.1248,0.0,0.0,-0.1345,-0.169,-0.2288,-0.3091,-0.2968,-0.3087,-0.4017,-0.3686,-0.3671,-0.4479,-0.4852,-0.5135,-0.5311,-0.6323,0.0,0.0,0.0,-0.7619,-0.7997,-0.8045,0.0,0.0,0.0,-0.8198,0.0,0.0,0.0,0.0,-1.0609,-1.1142,0.0,0.0,0.0,0.0,0.0,0.0,0.0,0.0,0.0,0.0,0.0,0.0,0.0,0.0,0.0,0.0,0.3367,0.1415,0.165,0.2028,0.2365,0.2582,0.3187,0.3763,0.4183,0.4446,0.4683,0.4947,0.4677,0.4456,0.4322,0.0,0.0,0.0,0.0,0.4045,0.3774,0.4054,0.4197,0.4178,0.3712,0.3476,0.3409,0.3001,0.2751,0.2631,0.216,0.1808,0.1487,0.09,0.0342,0.0,0.1145,0.1525,0.1437,0.1626,0.1454,0.0,0.0,0.0,0.0,0.1093,0.1074,0.0853,0.0,-0.0364,-0.0755,-0.2007,-0.2448,-0.2641,-0.312,-0.334,-0.3498,-0.3691,-0.334,-0.2965,-0.3067,-0.2588,-0.2112,-0.2112,-0.2365,-0.2595,-0.2595,-0.2498,-0.285,-0.4143,-0.3797,-0.3814,-0.5012,-0.4245,-0.368,-0.3936,0.0,0.0,-0.53,-0.6476,-0.7271,-0.7406,-0.82,-0.8605,-0.8478,-0.8873,-0.9001,-0.8804,-0.9009,-0.9603,-1.0601,-1.1032,-1.17,-1.2566,-1.1654,-1.2,0.0,0.0,0.0,0.0,0.0,0.0,0.0,0.0,0.0,0.0,0.0,0.0,0.0,0.0,0.0,0.5604,0.2196,-0.049,-0.0908,-0.0204,0.0903,0.2427,0.2768,0.3279,0.4266,0.4079,0.4126,0.4708,0.4215,0.3857,0.3838,0.3701,0.0,0.4159,0.4075,0.4076,0.4185,0.3726,0.3499,0.3496,0.0,0.0,0.2994,0.249,0.2109,0.1809,0.1326,0.0929,0.0557,0.0369,-0.0161,-0.0839,-0.0384,-0.0252,-0.0255,0.0206,0.0256,0.0174,0.0743,0.0836,0.0742,0.1074,0.1129,0.0958,0.0245,-0.0185,0.0,-0.1314,-0.2073,-0.2606,-0.2343,-0.2952,-0.3593,-0.3424,-0.3307,-0.3188,-0.3111,-0.2991,-0.2866,-0.2738,-0.2991,-0.3221,-0.3221,-0.3106,-0.3115,-0.3404,-0.3321,-0.3376,-0.3749,-0.3586,-0.3833,-0.4884,-0.5101,-0.5604,-0.6612,-0.7436,-0.7986,-0.8183,-0.9137,-0.9658,-0.9507,-0.96,-0.9387,-0.8804,-0.9514,-1.01,-1.0523,-1.1564,-1.245,-1.3147,-1.2777,-1.305,0.0,0.0,0.0,0.0,0.0,0.0,0.0,0.0,0.0,0.0,0.0,0.6742,0.0,0.0,0.3331,0.2094,-0.029,-0.2102,-0.2354,-0.2164,-0.1094,0.1353,0.2325,0.3118,0.3963,0.3832,0.3835,0.4183,0.3886,0.3702,0.3702,0.364,0.373,0.3989,0.3672,0.3633,0.3942,0.3282,0.304,0.3192,0.2623,0.2402,0.2466,0.1808,0.139,0.1164,0.0748,0.0357,0.0,-0.0713,-0.1368,-0.1915,-0.2124,-0.1806,-0.1206,-0.0872,-0.0528,-0.0189,0.0182,0.0484,0.0737,0.0932,0.0922,0.0744,0.0137,-0.05,-0.1144,-0.1902,-0.2656,-0.325,-0.322,-0.3633,-0.4033,-0.4012,-0.3952,-0.3891,-0.3909,-0.3767,-0.3635,-0.3556,-0.3635,-0.3691,-0.3609,-0.3556,-0.3435,-0.3237,-0.3245,-0.3336,-0.3388,-0.347,-0.3794,-0.4576,-0.4927,-0.5574,-0.6762,-0.8072,-0.8876,-0.889,-0.9758,-1.0154,-0.9906,-0.9847,-0.9588,-0.9113,-0.9639,-1.0144,-1.0701,-1.1724,-1.2573,-1.3307,-1.3646,-1.3922,0.0,0.0,0.0,0.0,0.0,0.0,0.0,0.0,0.3583,0.3252,0.2785,0.1724,-0.0602,-0.0397,-0.0363,-0.1968,-0.2978,-0.3591,-0.3687,-0.3743,-0.2804,-0.0158,0.1636,0.2891,0.3532,0.3695,0.377,0.3822,0.3774,0.3731,0.3684,0.3652,0.359,0.3542,0.3185,0.3132,0.3451,0.2826,0.2614,0.2812,0.2178,0.1828,0.1721,0.1084,0.0704,0.0551,0.0096,-0.0269,-0.0639,-0.194,-0.2673,-0.3049,-0.3742,-0.3306,-0.2221,-0.1821,-0.1237,-0.0634,-0.0443,-0.005,0.0382,0.0458,0.042,0.024,-0.0301,-0.101,-0.1818,-0.2659,-0.3357,-0.3934,-0.4235,-0.4408,-0.4539,-0.4707,-0.4631,-0.4558,-0.469,-0.4467,-0.4249,-0.4249,-0.4135,-0.3993,-0.3852,-0.3824,-0.3673,-0.3319,-0.3373,-0.3436,-0.3436,-0.3523,-0.3694,-0.3968,-0.446,-0.5304,-0.6637,-0.8448,-0.9565,-0.9709,-1.0324,-1.054,-1.022,-1.0101,-0.9829,-0.9413,-0.9792,-1.031,-1.0994,-1.1908,-1.2698,-1.3467,-1.4277,-1.4536,0.4678,0.4685,0.3914,0.4578,0.4712,0.4224,0.0,0.0,0.1995,-0.0925,-0.2017,-0.2742,-0.3812,-0.3602,-0.36,-0.4695,-0.4877,-0.5123,-0.5757,-0.4619,-0.3221,-0.1937,0.0301,0.212,0.3078,0.3652,0.4049,0.4224,0.4073,0.3861,0.3615,0.3434,0.3235,0.3007,0.2947,0.2937,0.2987,0.2421,0.2027,0.1751,0.1277,0.0842,0.0493,0.0403,0.0169,-0.0224,-0.0855,-0.1392,-0.187,-0.2991,-0.3681,-0.4102,-0.4825,-0.4798,-0.4175,-0.2731,-0.2074,-0.1821,-0.1287,-0.1104,-0.1108,-0.0817,-0.063,-0.0651,-0.1189,-0.1559,-0.1913,-0.2607,-0.3419,-0.4062,-0.4062,-0.4444,-0.4848,-0.4867,-0.4769,-0.4694,-0.4684,-0.4577,-0.4463,-0.4463,-0.4301,-0.4138,-0.3996,-0.3882,-0.3735,-0.3575,-0.3555,-0.3591,-0.3591,-0.3602,-0.3694,-0.3968,-0.4162,-0.5089,-0.7047,-0.8475,-0.9686,-1.075,-1.111,-1.119,-1.0907,-1.0873,-1.0413,-0.942,-1.0414,-1.1069,-1.1341,-1.257,-1.3438,-1.3929,-1.4572,-1.4668,0.3927,0.4755,0.0,0.0,0.5295,0.5306,0.3959,0.2645,0.103,-0.1334,-0.3592,-0.546,-0.6557,-0.6376,-0.6252,0.0,-0.6622,-0.6401,-0.632,-0.5208,-0.3955,-0.2755,-0.0438,0.1445,0.2378,0.3281,0.3719,0.3504,0.3441,0.3365,0.3251,0.3135,0.3021,0.2912,0.2416,0.2184,0.2253,0.1495,0.105,0.0961,0.0688,0.0468,0.0286,0.005,-0.0259,-0.0672,-0.1119,-0.1686,-0.2347,-0.3236,-0.3959,-0.4546,-0.5077,-0.505,-0.4615,-0.3862,-0.3113,-0.2427,-0.2216,-0.1774,-0.1367,-0.1503,-0.1553,-0.1663,-0.2161,-0.2756,-0.3323,-0.3591,-0.4199,-0.4733,-0.4664,-0.4825,-0.5042,-0.5128,-0.4959,-0.4822,-0.4822,-0.4656,-0.4491,-0.4491,-0.4436,-0.4298,-0.4049,-0.3965,-0.3855,-0.3638,-0.3613,-0.3613,-0.3613,-0.3613,-0.3722,-0.4082,-0.4877,-0.5769,-0.6794,-0.8502,-0.9749,-1.0307,-1.1005,-1.1193,-1.0717,-1.0709,-1.0532,-1.012,-1.0771,-1.1485,-1.2229,-1.3008,-1.3813,-1.4549,-1.5101,-1.5327,0.429,0.0,0.0,0.6403,0.6572,0.656,0.5907,0.2908,-0.0228,-0.192,-0.5521,-0.8655,-0.9716,-0.9414,0.0,-0.8997,-0.827,-0.7446,-0.6682,-0.5431,-0.4192,-0.3112,-0.0871,0.076,0.1243,0.2604,0.3245,0.2699,0.28,0.2788,0.2511,0.247,0.2359,0.2191,0.1601,0.134,0.1431,0.0764,0.0403,0.0359,0.0231,0.0095,-0.0024,-0.0314,-0.063,-0.0926,-0.1429,-0.2014,-0.2734,-0.3569,-0.4294,-0.4884,-0.5187,-0.5132,-0.4842,-0.4747,-0.4091,-0.3252,-0.3304,-0.2893,-0.2395,-0.2756,-0.2922,-0.3081,-0.3417,-0.4036,-0.4629,-0.4673,-0.5009,-0.5341,-0.5328,-0.529,-0.5254,-0.5369,-0.5132,-0.4897,-0.4897,-0.468,-0.4491,-0.4491,-0.4491,-0.4408,-0.4049,-0.3996,-0.3925,-0.3682,-0.3632,-0.3583,-0.3555,-0.361,-0.3805,-0.4245,-0.5473,-0.6445,-0.6942,-0.8682,-0.9944,-1.0332,-1.1107,-1.1337,-1.0816,-1.0892,-1.0866,-1.0739,-1.1238,-1.1938,-1.2792,-1.3494,-1.418,-1.4925,-1.556,-1.6002,0.0,0.0,0.7339,0.9284,0.8783,0.7771,0.7505,0.2732,-0.2123,-0.3863,-0.8891,-1.3153,-1.3646,-1.2916,-1.2096,-1.1555,-0.9802,-0.8112,-0.7118,-0.5165,-0.3599,-0.2968,-0.1048,0.0023,0.0,0.1562,0.2675,0.208,0.238,0.2207,0.1305,0.1254,0.0979,0.0402,0.0484,0.0546,0.0546,0.0502,0.0336,0.0022,-0.0112,-0.0398,-0.0757,-0.0841,-0.0896,-0.0953,-0.2012,-0.2704,-0.3176,-0.4239,-0.4912,-0.527,-0.5297,-0.5297,-0.527,-0.5266,-0.5007,-0.4642,-0.4639,-0.4803,-0.4995,-0.4995,-0.5023,-0.503,-0.5098,-0.5233,-0.5409,-0.561,-0.5661,-0.5721,-0.5842,-0.5738,-0.5575,-0.5604,-0.5241,-0.4897,-0.4897,-0.468,-0.4491,-0.4491,-0.4491,-0.4408,-0.4049,-0.3996,-0.3955,-0.3819,-0.3682,-0.3555,-0.3413,-0.3633,-0.3962,-0.4436,-0.5628,-0.6827,-0.7863,-0.915,-1.0375,-1.1485,-1.1819,-1.1856,-1.1583,-1.1886,-1.175,-1.1092,-1.2039,-1.2635,-1.2792,-1.3996,-1.4671,-1.4925,-1.5862,-1.6503,0.0,0.0,0.8726,0.9198,0.9173,0.7988,0.4022,0.0251,-0.3759,-0.8493,-1.0606,-1.1822,-1.2466,-1.1244,-0.9787,-0.8735,-0.8304,-0.7556,-0.5965,-0.4146,-0.29,-0.2609,-0.1128,0.0,0.0,0.0,0.0,0.1099,0.1245,0.119,0.0893,0.082,0.0705,0.0497,0.0151,0.0049,0.0222,-0.0171,-0.0364,-0.0389,-0.0573,-0.0957,-0.1461,-0.1082,-0.101,-0.1206,-0.2124,-0.2845,-0.3511,-0.4353,-0.4939,-0.5297,-0.5297,-0.5297,-0.5325,-0.5548,-0.5645,-0.5632,-0.525,-0.5109,-0.516,-0.5469,-0.5663,-0.5779,-0.5885,-0.6087,-0.6223,-0.6069,-0.6028,-0.5999,-0.5917,-0.5843,-0.5795,-0.5795,-0.5598,-0.5405,-0.5262,-0.5027,-0.478,-0.467,-0.4559,-0.4466,-0.4336,-0.4213,-0.4059,-0.3884,-0.3802,-0.3725,-0.3668,-0.3898,-0.442,-0.5331,-0.6296,-0.7391,-0.8761,-0.9715,-1.0535,-1.1212,-1.1548,-1.1692,-1.1591,-1.1702,-1.1854,-1.2092,-1.2518,-1.3135,-1.4005,-1.4555,-1.5156,-1.5853,-1.616,-1.6661,0.0,0.7595,0.8863,0.8773,0.8377,0.6884,0.2495,-0.145,-0.5451,-0.9865,-1.0945,-1.1129,-1.1251,-0.9885,-0.8203,-0.6563,-0.6704,-0.639,-0.4506,-0.3037,-0.2111,-0.2018,-0.1064,0.0,0.0,0.0,0.0,0.0266,0.045,0.0518,0.0309,0.0253,0.0167,0.0054,-0.0212,-0.0287,-0.0077,-0.0457,-0.0781,-0.0982,-0.1125,-0.1506,-0.2086,-0.1697,-0.1652,-0.1903,-0.2706,-0.3345,-0.3873,-0.4601,-0.5112,-0.5413,-0.5321,-0.5337,-0.5437,-0.5707,-0.5978,-0.6154,-0.5882,-0.5796,-0.5887,-0.6243,-0.6525,-0.6681,-0.6622,-0.6786,-0.688,-0.6401,-0.6273,-0.6249,-0.6107,-0.603,-0.6012,-0.6012,-0.5837,-0.5669,-0.5521,-0.5236,-0.4991,-0.4905,-0.4704,-0.4564,-0.4565,-0.4455,-0.4291,-0.4144,-0.4085,-0.4048,-0.3943,-0.4148,-0.4743,-0.5882,-0.6823,-0.793,-0.9341,-1.0143,-1.0746,-1.1238,-1.1597,-1.1781,-1.1775,-1.1978,-1.2308,-1.2733,-1.3148,-1.3778,-1.4609,-1.5101,-1.5678,-1.6321,-1.6526,-1.6934,0.641,0.7237,0.7796,0.8058,0.6561,0.4529,0.2558,-0.2483,-0.7088,-0.8344,-1.0057,-1.0991,0.0,0.0,-0.7318,-0.5135,-0.516,-0.482,-0.2992,-0.1909,-0.1306,0.0,0.0,0.0,0.0,0.0,0.0,-0.0378,0.0,0.015,-0.0367,-0.0447,-0.0629,-0.0871,-0.0646,-0.047,-0.0427,-0.0464,-0.0911,-0.1745,-0.1756,-0.2075,-0.266,-0.264,-0.2738,-0.2933,-0.3649,-0.4036,-0.4233,-0.4991,-0.5422,-0.5551,-0.5361,-0.5426,-0.5608,-0.5778,-0.5978,-0.6263,-0.6593,-0.6901,-0.7139,-0.7347,-0.7589,-0.777,-0.7309,-0.7359,-0.7456,-0.6712,-0.6482,-0.6453,-0.6461,-0.6326,-0.6223,-0.6236,-0.5976,-0.5726,-0.5726,-0.5381,-0.5071,-0.5196,-0.4958,-0.4729,-0.4719,-0.4672,-0.4621,-0.4584,-0.4643,-0.4554,-0.4271,-0.4433,-0.5036,-0.616,-0.724,-0.8413,-0.9743,-1.046,-1.1049,-1.1608,-1.1903,-1.212,-1.2151,-1.2729,-1.3044,-1.3044,-1.3979,-1.4523,-1.4671,-1.5641,-1.6196,-1.6358,-1.693,-1.7279,0.6341,0.6663,0.6553,0.5749,0.4238,0.1617,-0.3526,-0.5932,-0.7866,-1.0647,-0.9281,-0.7093,0.0,0.0,0.0,-0.2194,-0.3661,0.0,-0.3187,-0.2015,0.0,0.0,0.0,-0.0434,-0.0412,-0.0307,0.0,0.0,-0.0122,-0.0152,-0.0379,-0.0414,-0.0527,-0.0758,-0.069,-0.063,-0.0637,-0.1179,-0.1743,-0.2286,-0.2387,-0.2756,-0.3304,-0.2421,-0.2293,-0.2772,-0.3151,-0.3594,-0.4104,-0.4963,-0.5325,-0.5361,-0.5317,-0.5325,-0.5441,-0.5909,-0.6132,-0.629,-0.681,-0.7148,-0.7342,-0.7373,-0.7878,-0.8413,-0.8155,-0.8433,-0.8753,-0.8258,-0.7739,-0.7358,-0.7382,-0.6846,-0.6384,-0.6522,-0.6383,-0.6181,-0.6081,-0.5852,-0.5593,-0.5387,-0.5171,-0.4971,-0.4854,-0.4913,-0.5117,-0.5496,-0.565,-0.5492,-0.4817,-0.5321,-0.6237,-0.7426,-0.8459,-0.9531,-1.0684,-1.1033,-1.1403,-1.1934,-1.2058,-1.2305,-1.2736,-1.3204,-1.3564,-1.3822,-1.4589,-1.5148,-1.5488,-1.6012,-1.6434,-1.6762,-1.6888,-1.7072,0.5717,0.5649,0.51,0.3752,0.1686,-0.1108,-0.5418,-0.6684,-0.7422,-0.9122,-0.6637,0.0,0.0,0.0,0.0,0.0,0.0,0.0,-0.2109,-0.1262,-0.0765,0.0,-0.053,0.0,-0.0245,-0.0158,-0.0097,0.0,-0.0096,-0.0221,-0.0422,-0.0457,-0.0511,-0.0689,-0.07,-0.0696,-0.0701,-0.1371,-0.2012,-0.2595,-0.2931,-0.3264,-0.3569,-0.3016,-0.285,-0.3047,0.0,-0.3932,-0.4356,-0.5022,-0.5345,-0.543,-0.5329,-0.5501,-0.5828,-0.6216,-0.6462,-0.6643,-0.7219,-0.7488,-0.7544,-0.7399,-0.776,-0.8234,-0.8295,-0.8656,-0.9046,-0.9061,-0.8711,-0.8324,-0.8319,-0.7614,-0.6933,-0.6958,-0.6747,-0.6484,-0.6333,-0.6085,-0.5823,-0.5542,-0.5447,-0.5394,-0.5299,-0.5626,-0.5989,-0.6276,-0.6715,-0.6935,-0.6722,-0.687,-0.7401,-0.8527,-0.916,-0.9932,-1.0996,-1.1273,-1.1638,-1.2287,-1.2608,-1.298,-1.3497,-1.3879,-1.4189,-1.4358,-1.4989,-1.5486,-1.579,-1.624,-1.6576,-1.6908,-1.7003,-1.7038,0.466,0.4275,0.3348,0.1738,-0.086,-0.3419,-0.5033,-0.591,-0.6204,-0.5572,0.0,-0.1045,0.01,0.0,-0.0253,0.0871,0.0,-0.1523,-0.0667,-0.0247,-0.0057,-0.0147,-0.0177,-0.0121,0.0,0.0,0.0,0.0,0.0,-0.0132,-0.0467,-0.0476,-0.0563,-0.0708,-0.0704,-0.0694,-0.0649,-0.129,-0.1984,-0.2681,-0.3292,-0.3597,-0.3599,-0.3769,-0.363,-0.3347,0.0,0.0,-0.4632,-0.5105,-0.5413,-0.5535,-0.5413,-0.5762,-0.635,-0.653,-0.6767,-0.7079,-0.7565,-0.7744,-0.7712,-0.7445,-0.7563,-0.7901,-0.8184,-0.8558,-0.9013,-0.9538,-0.9463,-0.9232,-0.9262,-0.8503,-0.7663,-0.741,-0.7031,-0.6683,-0.6453,-0.6185,-0.5912,-0.5752,-0.5811,-0.5887,-0.5887,-0.6536,-0.709,-0.722,-0.8038,-0.8827,-0.9404,-0.8766,-0.856,-0.9373,-0.9637,-1.0072,-1.087,-1.1374,-1.1956,-1.2634,-1.3295,-1.3858,-1.4239,-1.4595,-1.4794,-1.4761,-1.5323,-1.5675,-1.587,-1.6337,-1.6647,-1.6864,-1.6994,-1.7003,0.2998,0.2194,0.0821,-0.1162,-0.2858,-0.4274,-0.5112,-0.5261,0.0,0.0,0.0,-0.0529,0.0704,0.0,0.0,0.0104,0.0,0.0,0.0,0.0,0.0,0.0,0.0,0.0,0.0,0.0,0.0,0.0,0.0,0.0,-0.0482,-0.044,-0.049,-0.0708,-0.0803,-0.0743,-0.0467,-0.1333,-0.2012,-0.2539,-0.3264,-0.3597,-0.3597,-0.3125,-0.2877,-0.2828,0.0,0.0,-0.4187,-0.4967,-0.5317,-0.5369,-0.5612,-0.578,-0.5971,-0.6477,-0.6829,-0.7058,-0.7351,-0.7465,-0.747,-0.7537,-0.8249,-0.903,-0.8727,-0.9215,-0.9995,-1.0553,-1.0319,-0.9882,-1.0107,-0.9346,-0.8338,-0.7693,-0.7198,-0.6792,-0.6457,-0.6342,-0.6294,-0.6253,-0.6293,-0.6296,-0.6296,-0.7103,-0.803,-0.8901,-1.0025,-1.1047,-1.1857,-1.0529,-0.9435,-0.9285,-1.024,-1.0704,-1.0231,-1.1537,-1.2587,-1.298,-1.3696,-1.4239,-1.4618,-1.5109,-1.5264,-1.512,-1.58,-1.6175,-1.621,-1.6306,-1.6473,-1.6638,-1.6508,-1.6447,0.0786,-0.047,-0.2004,-0.3111,-0.4556,-0.5569,-0.5064,0.0,0.0,0.0,0.0,-0.0207,0.0596,0.0,0.0,0.0,0.0,0.0,0.0,0.0,0.0,0.0,0.0,0.0,0.0,0.0,0.0,0.0,0.0,0.0,-0.0496,-0.057,-0.0665,-0.0806,-0.0792,-0.0763,-0.066,-0.1411,-0.19,-0.2151,-0.282,-0.2959,-0.2653,-0.2516,-0.2378,-0.2266,-0.2764,0.0,-0.4049,-0.4715,-0.5183,-0.545,-0.5527,-0.5951,-0.6553,-0.6726,-0.7026,-0.7355,-0.7623,-0.7502,-0.7286,-0.7465,-0.7757,-0.8091,-0.8544,-0.9013,-0.9651,-1.1042,-1.0953,-1.0533,-1.0836,-1.0002,-0.8891,-0.8132,-0.7671,-0.7263,-0.689,-0.6937,-0.696,-0.6694,-0.6813,-0.6977,-0.6977,-0.7943,-0.904,-0.9979,-1.0904,-1.1806,-1.2704,-1.1767,-1.0784,-1.0103,-1.0602,-1.0714,-1.0007,-1.1526,-1.2687,-1.3173,-1.4249,-1.5044,-1.5428,-1.567,-1.5757,-1.5679,-1.5904,-1.6105,-1.6202,-1.6202,-1.6202,-1.6184,-1.6079,-1.5877,-0.1847,-0.3313,-0.477,-0.5168,-0.6246,-0.6798,-0.5171,-0.4433,0.0,0.0,-0.045,-0.0186,0.0158,0.0,0.0,0.0,0.0,0.0,0.0,0.0,0.0,0.0,0.0,0.0,0.0,0.0,0.0,0.0,0.0,0.0,-0.0468,-0.0704,-0.0818,-0.0909,-0.0794,-0.0791,-0.0898,-0.1372,-0.1679,-0.1818,-0.2291,-0.2263,-0.1818,-0.2015,-0.1987,-0.1846,-0.2597,0.0,0.0,-0.4605,-0.5145,-0.56,-0.5518,-0.6097,-0.7011,-0.6989,-0.7248,-0.7652,-0.7951,-0.7668,-0.7276,-0.7621,-0.7413,-0.7241,-0.8249,-0.8657,-0.9136,-1.0934,-1.1144,-1.0914,-1.1358,-1.0626,-0.9588,-0.8685,-0.8181,-0.7809,-0.7495,-0.7588,-0.7668,-0.7298,-0.7504,-0.7794,-0.7939,-0.9002,-1.0136,-1.0905,-1.1659,-1.236,-1.2969,-1.2675,-1.2026,-1.1016,-1.0931,-1.0618,-0.9805,-1.1512,-1.2827,-1.3337,-1.4787,-1.578,-1.6096,-1.6132,-1.6132,-1.6096,-1.5929,-1.5938,-1.6096,-1.5956,-1.585,-1.5727,-1.5586,-1.5303,-0.5005,-0.6065,-0.7053,-0.8119,-0.8154,-0.7474,-0.5879,0.0,0.0,-0.172,-0.1093,-0.0791,-0.0408,-0.0597,0.0,0.0,0.0,0.0,0.0,0.0,0.0,0.0,0.0,0.0,0.0,0.0,0.0,0.0,0.0,0.0,0.0,-0.0677,-0.0845,-0.0911,-0.088,-0.0897,-0.0898,-0.0953,-0.126,-0.179,-0.1846,-0.1846,-0.179,-0.1818,-0.1818,-0.1846,0.0,0.0,0.0,-0.4908,-0.537,-0.5641,-0.5911,-0.6161,-0.6453,-0.7056,-0.74,-0.7658,-0.8053,-0.7944,-0.7741,-0.8238,-0.8306,-0.8148,-0.807,-0.8442,-0.9079,-0.9995,-1.0371,-1.0697,-1.1465,-1.1405,-1.0757,-0.936,-0.8571,-0.8162,-0.8127,-0.8222,-0.8304,-0.8286,-0.8435,-0.8746,-0.9304,-1.028,-1.1242,-1.2045,-1.2969,-1.3505,-1.3222,-1.3128,-1.2663,-1.1483,-1.1401,-1.0822,-0.9287,-1.1768,-1.3438,-1.3569,-1.5138,-1.6061,-1.6096,-1.6202,-1.6202,-1.6096,-1.6061,-1.6061,-1.6096,-1.5559,-1.539,-1.5497,-1.4963,-1.4677,-0.74,-0.8763,-0.9811,-0.9515,-0.9175,-0.8321,-0.6065,0.0,0.0,-0.1851,-0.1322,-0.1104,-0.086,-0.097,-0.1297,0.0,0.0,0.0,0.0,0.0,0.0,0.0,0.0,0.0,0.0,0.0,0.0,0.0,0.0,0.0,0.0,-0.0646,-0.0792,-0.0789,-0.0909,-0.0956,-0.0896,-0.0896,-0.103,-0.126,-0.126,-0.126,-0.126,-0.126,-0.1456,-0.1821,0.0,0.0,0.0,-0.4607,-0.5236,-0.5951,-0.5968,-0.6258,-0.6669,-0.6861,-0.719,-0.7562,-0.7718,-0.7686,-0.7624,-0.7915,-0.8139,-0.8324,-0.8476,-0.8552,-0.8795,-0.9985,-1.0543,-1.0857,-1.1367,-1.1048,-1.0328,-0.937,-0.9113,-0.8959,-0.8738,-0.8808,-0.8886,-0.8618,-0.9138,-0.9647,-0.976,-1.0732,-1.1669,-1.2218,-1.2549,-1.2739,-1.282,-1.2716,-1.2298,-1.1335,-1.1236,-1.0833,-0.9856,-1.1383,-1.264,-1.3165,-1.4101,-1.5081,-1.6061,-1.57,-1.5665,-1.6096,-1.5736,-1.5559,-1.5559,-1.5062,-1.4776,-1.4633,-1.4418,-1.4173,-0.8506,-1.0075,-1.1204,-1.0379,-0.975,-0.8703,0.0,0.0,-0.3786,-0.1982,-0.1565,-0.1465,-0.1216,-0.1451,-0.1956,-0.2704,0.0,-0.2827,0.0,0.0,0.0,0.0,0.0,0.0,0.0,0.0,0.0,0.0,0.0,0.0,0.0,-0.0484,-0.0669,-0.0711,-0.0834,-0.0909,-0.0901,-0.0901,-0.089,-0.0898,-0.0907,-0.0911,-0.0911,-0.092,-0.127,-0.1875,0.0,0.0,0.0,-0.471,-0.5366,-0.6195,-0.6045,-0.6306,-0.6765,-0.676,-0.6984,-0.7363,-0.7559,-0.7657,-0.7658,-0.7812,-0.8146,-0.8539,-0.8856,-0.8772,-0.8798,-0.992,-1.0682,-1.1205,-1.1413,-1.1141,-1.0667,-0.9961,-1.0001,-1.0042,-0.9411,-0.9505,-0.9652,-0.9306,-0.9798,-1.0331,-1.0475,-1.1186,-1.1855,-1.2224,-1.212,-1.2077,-1.2231,-1.2224,-1.2003,-1.1446,-1.1372,-1.1074,-1.0368,-1.1254,-1.21,-1.2615,-1.3419,-1.4438,-1.57,-1.5081,-1.5117,-1.5921,-1.5346,-1.5026,-1.5026,-1.4633,-1.431,-1.4093,-1.3992,-1.3775,-0.8033,-0.9475,-1.072,-1.079,-0.9835,-0.8456,0.0,0.0,-0.385,-0.2227,-0.201,-0.1932,-0.1406,-0.2064,-0.272,-0.2866,-0.3279,0.0,0.0,0.0,0.0,0.0,0.0,0.0,0.0,0.0,0.0,0.0,0.0,0.0,0.0,-0.0194,-0.0414,-0.068,-0.071,-0.0779,-0.0898,-0.0898,-0.0898,-0.0898,-0.0899,-0.0913,-0.0914,-0.0973,-0.1357,0.0,0.0,0.0,0.0,-0.5487,-0.602,-0.6207,-0.6207,-0.6286,-0.6453,-0.6778,-0.6913,-0.7012,-0.7727,-0.7987,-0.8022,-0.8221,-0.8563,-0.8913,-0.8985,-0.9103,-0.9254,-0.9543,-1.0619,-1.1676,-1.1605,-1.207,-1.2328,-1.1416,-1.1424,-1.1366,-1.0137,-1.0363,-1.07,-1.0513,-1.0475,-1.0812,-1.1818,-1.1818,-1.1855,-1.2224,-1.212,-1.1855,-1.1446,-1.1744,-1.2003,-1.2003,-1.2003,-1.1595,-1.0588,-1.1613,-1.2204,-1.2003,-1.3462,-1.4482,-1.4903,-1.453,-1.4673,-1.5497,-1.4927,-1.4605,-1.4605,-1.4274,-1.4093,-1.4093,-1.3702,-1.3492,-0.8327,-0.9337,-0.9995,-0.9377,-0.8369,-0.7112,-0.5565,0.0,-0.3317,-0.2547,-0.2437,-0.242,-0.2168,-0.2663,-0.3244,-0.3643,-0.4181,0.0,0.0,0.0,0.0,0.0,0.0,0.0,0.0,0.0,0.0,0.0,0.0,0.0,0.0,-0.0065,-0.0195,-0.0427,-0.0656,-0.0773,-0.0836,-0.0909,-0.0949,-0.0899,-0.0909,-0.0913,-0.0915,-0.0974,0.0,0.0,0.0,0.0,0.0,-0.5304,-0.5862,-0.6331,-0.6331,-0.6498,-0.6749,-0.6848,-0.7204,-0.7694,-0.7922,-0.8285,-0.8585,-0.8546,-0.8901,-0.9375,-0.9236,-0.9317,-0.9616,-1.0256,-1.0754,-1.118,-1.1557,-1.1829,-1.1909,-1.1598,-1.131,-1.0887,-1.0255,-0.9922,-0.9846,-1.0067,-1.0465,-1.0942,-1.1515,-1.1909,-1.2055,-1.1738,-1.1632,-1.1558,-1.1409,-1.1632,-1.1966,-1.2378,-1.2157,-1.1929,-1.1744,-1.1589,-1.1737,-1.2378,-1.1959,-1.2462,-1.4222,-1.3535,-1.368,-1.4856,-1.4461,-1.4274,-1.4274,-1.3884,-1.3821,-1.4037,-1.3675,-1.3616,0.0,-0.8244,-0.8685,-0.8056,-0.7133,0.0,0.0,0.0,-0.3381,-0.2925,-0.3081,-0.3268,-0.3129,-0.365,-0.4182,-0.4404,-0.4885,0.0,0.0,0.0,0.0,0.0,0.0,0.0,0.0,0.0,0.0,0.0,0.0,0.0,0.0,0.0,-0.0164,-0.0303,-0.0567,-0.072,-0.0762,-0.0936,-0.0979,-0.093,-0.0941,-0.0946,-0.0948,-0.1008,0.0,0.0,0.0,0.0,0.0,-0.5351,-0.5954,-0.635,-0.6515,-0.6716,-0.6913,-0.7073,-0.7433,-0.7819,-0.7954,-0.8242,-0.8546,-0.8583,-0.8949,-0.9364,-0.9269,-0.9437,-0.9719,-1.0225,-1.0672,-1.1138,-1.157,-1.204,-1.2335,-1.2077,-1.1855,-1.1521,-1.0812,-1.0517,-1.0395,-1.0591,-1.0902,-1.123,-1.1601,-1.186,-1.1879,-1.1471,-1.1409,-1.1409,-1.1409,-1.1632,-1.1966,-1.2342,-1.2342,-1.2378,-1.2526,-1.2003,-1.1855,-1.2342,-1.1558,-1.1774,-1.339,-1.2776,-1.2922,-1.4049,-1.3949,-1.3884,-1.3884,-1.3637,-1.366,-1.3975,-1.3777,-1.385,0.0,0.0,0.0,0.0,0.0,0.0,0.0,0.0,0.0,0.0,0.0,-0.4209,-0.4089,-0.4791,-0.5319,-0.4998,0.0,0.0,0.0,0.0,0.0,0.0,0.0,0.0,0.0,0.0,0.0,0.0,0.0,0.0,0.0,0.0,-0.0295,-0.0303,-0.0459,-0.0574,-0.0715,-0.0899,-0.0991,-0.0992,-0.0988,-0.1001,-0.1002,-0.1063,0.0,0.0,0.0,0.0,0.0,-0.551,-0.6148,-0.628,-0.6745,-0.6955,-0.703,-0.74,-0.7568,-0.7643,-0.7922,-0.8072,-0.8136,-0.8533,-0.8837,-0.9021,-0.9149,-0.9357,-0.9592,-0.9608,-1.0442,-1.1399,-1.1636,-1.2562,-1.3309,-1.2783,-1.29,-1.2826,-1.1695,-1.1696,-1.1915,-1.1817,-1.1617,-1.1566,-1.1991,-1.1696,-1.1397,-1.1409,-1.1409,-1.1409,-1.1446,-1.1781,-1.2003,-1.204,-1.2526,-1.2863,-1.29,-1.2709,-1.2415,-1.2077,-1.1966,-1.215,-1.2562,-1.2224,-1.2365,-1.3164,-1.3375,-1.3506,-1.3528,-1.3528,-1.3711,-1.4048,-1.4026,-1.4194,-0.5209,0.0,-0.5532,-0.5418,-0.512,0.0,0.0,0.0,0.0,0.0,0.0,0.0,0.0,0.0,0.0,0.0,0.0,0.0,0.0,0.0,0.0,0.0,0.0,0.0,0.0,0.0,0.0,0.0,0.0,0.0,0.0,0.0,-0.0295,-0.0438,-0.0623,-0.0748,-0.076,-0.0938,-0.0991,-0.0991,-0.0998,-0.1001,-0.1002,-0.1063,0.0,0.0,0.0,0.0,-0.4284,-0.4882,-0.5778,-0.6745,-0.6848,-0.7328,-0.7975,-0.7912,-0.8192,-0.8548,-0.8407,-0.861,-0.8949,-0.9251,-0.9257,-0.9138,-0.9012,-0.9104,-0.933,-0.9523,-1.0153,-1.0858,-1.1526,-1.2268,-1.2863,-1.301,-1.2783,-1.2365,-1.1822,-1.1147,-1.0827,-1.1536,-1.1178,-1.1051,-1.176,-1.1666,-1.1473,-1.1403,-1.1409,-1.1521,-1.1818,-1.1929,-1.2114,-1.2415,-1.2599,-1.2716,-1.29,-1.2562,-1.2452,-1.2673,-1.1818,-1.1706,-1.2562,-1.2224,-1.2298,-1.2966,-1.3156,-1.3395,-1.3633,-1.3827,-1.4157,-1.4666,-1.4465,-1.4523,-0.4584,-0.4846,-0.5108,-0.5078,-0.4991,-0.478,0.0,0.0,0.0,0.0,0.0,0.0,0.0,0.0,0.0,0.0,0.0,0.0,0.0,0.0,0.0,0.0,0.0,0.0,0.0,0.0,0.0,0.0,0.0,0.0,0.0,0.0,-0.0531,-0.064,-0.0996,-0.1061,-0.0809,-0.0962,-0.1053,-0.1053,-0.1008,-0.1001,-0.1002,-0.1049,0.0,0.0,0.0,0.0,-0.4217,-0.4818,-0.5749,-0.6843,-0.7073,-0.7598,-0.8177,-0.8229,-0.8429,-0.8684,-0.856,-0.861,-0.8803,-0.9013,-0.8864,-0.8576,-0.8599,-0.8578,-0.8642,-0.9228,-1.0133,-1.1039,-1.1563,-1.2342,-1.3082,-1.3335,-1.3066,-1.2698,-1.2499,-1.1959,-1.1557,-1.1832,-1.1516,-1.1308,-1.1629,-1.1464,-1.1286,-1.1285,-1.1409,-1.1484,-1.1335,-1.1781,-1.2077,-1.1929,-1.2335,-1.2636,-1.2746,-1.2562,-1.2562,-1.2863,-1.204,-1.1614,-1.1884,-1.2123,-1.2565,-1.332,-1.3516,-1.3715,-1.3887,-1.4125,-1.4457,-1.49,-1.4765,-1.486,-0.4086,-0.4492,-0.5032,-0.5213,-0.5191,-0.5058,-0.4809,0.0,0.0,0.0,0.0,0.0,0.0,0.0,0.0,0.0,0.0,0.0,0.0,0.0,0.0,0.0,0.0,0.0,0.0,0.0,0.0,0.0,0.0,0.0,0.0,0.0,0.0,-0.091,-0.1335,-0.1365,-0.0971,-0.1175,-0.1277,-0.1277,-0.1145,-0.1098,-0.1098,-0.1029,-0.1221,0.0,0.0,0.0,-0.3957,-0.4758,-0.5698,-0.6688,-0.7168,-0.766,-0.8117,-0.8382,-0.8538,-0.8571,-0.851,-0.8476,-0.8432,-0.8461,-0.8216,-0.7966,-0.8274,-0.8123,-0.8078,-0.8996,-1.0225,-1.1363,-1.16,-1.2562,-1.3455,-1.3454,-1.332,-1.3202,-1.3125,-1.2933,-1.2719,-1.2283,-1.1973,-1.17,-1.1519,-1.1298,-1.1149,-1.1186,-1.1521,-1.1484,-1.07,-1.1484,-1.1818,-1.0993,-1.1663,-1.2224,-1.2378,-1.2261,-1.2318,-1.2661,-1.2334,-1.1897,-1.1435,-1.219,-1.2933,-1.3699,-1.3942,-1.408,-1.413,-1.442,-1.4706,-1.4973,-1.4973,-1.5126,-0.4101,-0.4336,-0.4617,-0.5024,-0.5212,-0.5222,0.0,0.0,0.0,0.0,0.0,0.0,0.0,0.0,0.0,0.0,0.0,0.0,0.0,0.0,0.0,0.0,0.0,0.0,0.0,0.0,0.0,0.0,0.0,0.0,0.0,0.0,0.0,-0.1479,-0.1443,-0.155,-0.1817,-0.1962,-0.2018,-0.2018,-0.1667,-0.1514,-0.1481,-0.1163,-0.1229,0.0,0.0,-0.2428,-0.3489,-0.365,-0.4731,-0.6297,-0.6559,-0.7369,-0.8414,-0.8479,-0.8641,-0.8806,-0.866,-0.8812,-0.9004,-0.8566,-0.8445,-0.8494,-0.8534,-0.8659,-0.8918,-0.9399,-1.0143,-1.0906,-1.1335,-1.2342,-1.317,-1.2845,-1.276,-1.2779,-1.264,-1.2292,-1.2023,-1.2255,-1.1707,-1.1298,-1.1459,-1.1412,-1.1409,-1.1595,-1.1818,-1.1706,-1.1074,-1.1186,-1.0993,-1.0158,-1.0233,-1.0571,-1.126,-1.0726,-1.07,-1.1572,-1.2285,-1.2742,-1.2883,-1.3021,-1.316,-1.3286,-1.3666,-1.3989,-1.4249,-1.4666,-1.4995,-1.5316,-1.5316,-1.5338,-0.3727,-0.4107,-0.4531,-0.4809,-0.5035,-0.5164,0.0,0.0,0.0,0.0,0.0,0.0,0.0,0.0,0.0,0.0,0.0,0.0,0.0,0.0,0.0,0.0,0.0,0.0,0.0,0.0,0.0,0.0,0.0,0.0,0.0,0.0,0.0,0.0,-0.1441,-0.1576,-0.173,-0.2009,-0.2024,-0.1765,-0.159,-0.1506,-0.1475,-0.1303,-0.1531,-0.2076,0.0,-0.2663,-0.3658,-0.3631,-0.4408,-0.5642,-0.6067,-0.6727,-0.7465,-0.7812,-0.8151,-0.8407,-0.8426,-0.8428,-0.8399,-0.8481,-0.8312,-0.8113,-0.8406,-0.843,-0.8452,-0.8981,-1.0151,-1.1279,-1.1372,-1.1959,-1.259,-1.2686,-1.238,-1.21,-1.2349,-1.2217,-1.2015,-1.1878,-1.1587,-1.1291,-1.131,-1.0895,-1.0775,-1.1298,-1.0919,-1.0426,-1.0164,-1.0314,-1.0126,-0.9334,-0.9636,-1.01,-1.0581,-1.0286,-1.0253,-1.0717,-1.1373,-1.2079,-1.27,-1.2845,-1.3181,-1.3687,-1.4076,-1.4343,-1.4531,-1.495,-1.5243,-1.5389,-1.5389,-1.5389,-0.3571,-0.4031,-0.4548,-0.4778,0.0,0.0,0.0,0.0,0.0,0.0,0.0,0.0,0.0,0.0,0.0,0.0,0.0,0.0,0.0,0.0,0.0,0.0,0.0,0.0,0.0,0.0,0.0,0.0,0.0,0.0,0.0,0.0,0.0,0.0,-0.14,-0.1561,-0.1585,-0.1876,-0.1884,-0.157,-0.1465,-0.1444,-0.1502,-0.1433,-0.1786,-0.2497,-0.2436,-0.2914,-0.3724,-0.3669,-0.4203,-0.5104,-0.563,-0.6192,-0.6795,-0.7302,-0.7751,-0.806,-0.8107,-0.8078,-0.8057,-0.8267,-0.8128,-0.7907,-0.8245,-0.8171,-0.8091,-0.858,-0.99,-1.1143,-1.0956,-1.1205,-1.1583,-1.1967,-1.1654,-1.1391,-1.1748,-1.1991,-1.1954,-1.1486,-1.1399,-1.1288,-1.0885,-1.0368,-1.0105,-1.0545,-0.99,-0.9296,-0.9107,-0.941,-0.9296,-0.8508,-0.9004,-0.9502,-0.9651,-0.992,-0.9951,-0.9752,-1.0739,-1.1729,-1.27,-1.294,-1.3355,-1.4088,-1.4447,-1.465,-1.465,-1.5082,-1.534,-1.534,-1.5389,-1.5425,-0.4011,-0.4326,-0.4624,-0.5139,-0.5499,0.0,-0.519,-0.5241,0.0,-0.4636,0.0,0.0,0.0,0.0,0.0,0.0,0.0,0.0,0.0,0.0,0.0,0.0,0.0,0.0,0.0,0.0,0.0,0.0,0.0,0.0,0.0,0.0,0.0,0.0,0.0,-0.157,-0.1858,-0.1831,-0.1889,-0.2033,-0.1674,-0.162,-0.1851,-0.1484,-0.1747,-0.2499,-0.2497,-0.2759,-0.3153,-0.3147,-0.3843,-0.4948,-0.5154,-0.6133,-0.7437,-0.7484,-0.7844,-0.8214,-0.771,-0.8153,-0.8748,-0.7874,-0.8049,-0.8547,-0.8228,-0.8342,-0.8642,-0.8699,-0.9226,-0.9707,-0.9485,-0.9744,-1.0008,-0.9879,-1.0253,-1.06,-1.0394,-1.0994,-1.1473,-1.1196,-1.1141,-1.0873,-1.011,-1.0105,-0.9949,-0.9263,-0.941,-0.9291,-0.8571,-0.8656,-0.847,-0.7676,-0.7791,-0.8005,-0.8139,-0.9022,-0.9218,-0.8501,-1.1027,-1.2978,-1.3922,-1.399,-1.4046,-1.4088,-1.4321,-1.4433,-1.4433,-1.4873,-1.5131,-1.5131,-1.5305,-1.5549,-0.4453,-0.4691,-0.4943,-0.5237,-0.5553,0.0,0.0,-0.5325,-0.5549,-0.5558,0.0,0.0,0.0,0.0,0.0,0.0,0.0,0.0,0.0,0.0,0.0,0.0,0.0,0.0,0.0,0.0,0.0,0.0,0.0,0.0,0.0,0.0,0.0,0.0,0.0,-0.1206,-0.1334,-0.1263,-0.1288,-0.1348,-0.1365,-0.1543,-0.1826,-0.1726,-0.2101,-0.2803,-0.2803,-0.2914,-0.3117,-0.3404,-0.3817,-0.4308,-0.5064,-0.5961,-0.6811,-0.6811,-0.7085,-0.7464,-0.7832,-0.7999,-0.8079,-0.8218,-0.8284,-0.8289,-0.814,-0.8217,-0.8327,-0.8327,-0.8322,-0.8466,-0.9112,-0.9216,-0.921,-0.9372,-0.9133,-0.8942,-0.9213,-0.953,-0.9713,-0.9625,-0.9717,-0.9679,-0.9382,-0.9074,-0.9004,-0.9339,-0.8732,-0.8343,-0.8666,-0.8449,-0.8129,-0.7853,-0.7979,-0.8117,-0.8178,-0.8653,-0.9022,-0.9273,-1.0331,-1.1106,-1.1451,-1.2057,-1.2619,-1.3222,-1.3415,-1.3837,-1.4398,-1.4699,-1.4866,-1.4873,-1.5156,-1.544,-0.4701,-0.5069,-0.5475,-0.5325,0.0,0.0,-0.5175,-0.5341,-0.5616,0.0,0.0,0.0,0.0,0.0,0.0,0.0,0.0,0.0,0.0,0.0,0.0,0.0,0.0,0.0,0.0,0.0,0.0,0.0,0.0,0.0,0.0,0.0,0.0,0.0,0.0,0.0,-0.096,-0.0919,-0.0909,-0.0899,-0.1089,-0.1395,-0.182,-0.1891,-0.2314,-0.3028,-0.3028,-0.308,-0.316,-0.3668,-0.4076,-0.4461,-0.5414,-0.6047,-0.642,-0.6519,-0.6716,-0.7003,-0.7734,-0.777,-0.7588,-0.8154,-0.8212,-0.8055,-0.788,-0.7944,-0.805,-0.788,-0.7634,-0.7599,-0.8432,-0.8385,-0.819,-0.8385,-0.8046,-0.7825,-0.8241,-0.8508,-0.8703,-0.8703,-0.8813,-0.8813,-0.8585,-0.8209,-0.8143,-0.8637,-0.7953,-0.7676,-0.841,-0.8222,-0.8057,-0.8174,-0.8349,-0.8483,-0.854,-0.8609,-0.8937,-0.9611,-0.9907,-1.0172,-1.0431,-1.1278,-1.2049,-1.2782,-1.3162,-1.3675,-1.4321,-1.4524,-1.4663,-1.4768,-1.4957,-1.5247,-0.4694,-0.5494,-0.6199,0.0,0.0,0.0,-0.5089,-0.5253,-0.5392,0.0,0.0,0.0,0.0,0.0,0.0,0.0,0.0,0.0,0.0,0.0,0.0,0.0,0.0,0.0,0.0,0.0,0.0,0.0,0.0,0.0,0.0,0.0,0.0,0.0,0.0,0.0,-0.0899,-0.0899,-0.0899,-0.0898,-0.09,-0.1266,-0.1911,-0.1912,-0.2343,-0.3091,-0.3091,-0.3142,-0.3226,-0.3794,-0.4625,-0.565,-0.6185,-0.642,-0.6453,-0.6782,-0.6913,-0.697,-0.7355,-0.7491,-0.7484,-0.7517,-0.7753,-0.7986,-0.7393,-0.7614,-0.7986,-0.7352,-0.7203,-0.7184,-0.7184,-0.7061,-0.6865,-0.6637,-0.7061,-0.7484,-0.7484,-0.8131,-0.8665,-0.8665,-0.8665,-0.8437,-0.7638,-0.7626,-0.7505,-0.6882,-0.7145,-0.7492,-0.7698,-0.79,-0.8162,-0.8575,-0.8723,-0.8897,-0.908,-0.8926,-0.8901,-0.9084,-0.9922,-1.0746,-1.1583,-1.2276,-1.2788,-1.2997,-1.3709,-1.4088,-1.4088,-1.4279,-1.4562,-1.487,-1.4761,-1.507,-0.5457,-0.5474,0.0,0.0,0.0,0.0,0.0,0.0,0.0,0.0,0.0,0.0,0.0,0.0,0.0,0.0,0.0,0.0,0.0,0.0,0.0,0.0,0.0,0.0,0.0,0.0,0.0,0.0,0.0,0.0,0.0,0.0,0.0,0.0,0.0,0.0,-0.0962,-0.0971,-0.1084,-0.1319,-0.1332,-0.1532,-0.1914,-0.2001,-0.2438,-0.3093,-0.3158,-0.3168,-0.3259,-0.4189,-0.4984,-0.565,-0.6185,-0.6552,-0.6749,-0.6848,-0.6996,-0.7162,-0.7555,-0.7535,-0.7343,-0.7633,-0.7597,-0.7468,-0.7424,-0.7434,-0.743,-0.7239,-0.7184,-0.7142,-0.6834,-0.6714,-0.6676,-0.6602,-0.6641,-0.6644,-0.6644,-0.6834,-0.7026,-0.7026,-0.72,-0.7281,-0.7044,-0.7379,-0.7652,-0.7575,-0.7842,-0.813,-0.842,-0.854,-0.8674,-0.8913,-0.8986,-0.8986,-0.8909,-0.897,-0.8982,-0.8909,-0.9921,-1.0644,-1.0868,-1.1855,-1.2709,-1.3413,-1.3429,-1.3727,-1.4389,-1.4267,-1.4255,-1.435,-1.4507,-1.4779,-0.567,0.0,0.0,0.0,0.0,0.0,0.0,0.0,0.0,0.0,0.0,0.0,0.0,0.0,0.0,0.0,0.0,0.0,0.0,0.0,0.0,0.0,0.0,0.0,0.0,0.0,0.0,0.0,0.0,0.0,0.0,0.0,0.0,0.0,0.0,0.0,-0.095,-0.0972,-0.1156,-0.1484,-0.1365,-0.1616,-0.2167,-0.2249,-0.2608,-0.3125,-0.3377,-0.3621,-0.3889,-0.4749,-0.5448,-0.5951,-0.6284,-0.6519,-0.6716,-0.6848,-0.6936,-0.7061,-0.7437,-0.7364,-0.7151,-0.7402,-0.726,-0.7017,-0.7045,-0.6996,-0.6882,-0.6872,-0.6874,-0.6786,-0.6623,-0.6525,-0.649,-0.649,-0.6374,-0.63,-0.63,-0.6344,-0.6385,-0.6385,-0.6588,-0.6773,-0.6773,-0.7188,-0.7579,-0.7762,-0.8194,-0.858,-0.8792,-0.8946,-0.9076,-0.919,-0.9267,-0.9263,-0.9149,-0.9177,-0.9366,-0.9741,-1.0743,-1.1553,-1.2067,-1.2498,-1.299,-1.3535,-1.3591,-1.3885,-1.4349,-1.4175,-1.4142,-1.4262,-1.4322,-1.4489,0.0,0.0,0.0,0.0,0.0,0.0,0.0,0.0,0.0,0.0,0.0,0.0,0.0,0.0,0.0,0.0,0.0,0.0,0.0,0.0,0.0,0.0,0.0,0.0,0.0,0.0,0.0,0.0,0.0,0.0,0.0,0.0,0.0,0.0,0.0,0.0,-0.0902,-0.0962,-0.1191,0.0,-0.1229,-0.1618,-0.2648,-0.2608,-0.2827,-0.3236,-0.3756,-0.427,-0.483,-0.5378,-0.5851,-0.6251,-0.6317,-0.6354,-0.6416,-0.6716,-0.6802,-0.6791,-0.7074,-0.7099,-0.6988,-0.6967,-0.6837,-0.6643,-0.6445,-0.6398,-0.6416,-0.6395,-0.6357,-0.6357,-0.6521,-0.6451,-0.6303,-0.6317,-0.632,-0.632,-0.632,-0.6433,-0.6532,-0.6532,-0.6617,-0.6722,-0.6722,-0.7056,-0.7414,-0.7668,-0.8336,-0.8828,-0.8844,-0.9145,-0.9408,-0.9424,-0.9531,-0.9571,-0.9604,-0.9466,-0.9917,-1.1088,-1.2029,-1.3028,-1.4238,-1.3942,-1.3707,-1.3559,-1.4185,-1.4389,-1.4128,-1.4102,-1.4222,-1.4476,-1.4208,-1.4229,0.0,0.0,0.0,0.0,0.0,0.0,0.0,0.0,0.0,0.0,0.0,0.0,0.0,0.0,0.0,0.0,0.0,0.0,0.0,0.0,0.0,0.0,0.0,0.0,0.0,0.0,0.0,0.0,0.0,0.0,0.0,0.0,0.0,0.0,0.0,-0.0964,-0.0904,-0.0962,-0.1323,0.0,-0.1622,-0.2032,-0.306,-0.2796,-0.3172,-0.4067,-0.4325,-0.451,-0.4704,-0.5337,-0.5415,-0.518,-0.5617,-0.5947,-0.6178,-0.6243,-0.6622,-0.7074,-0.6994,-0.6992,-0.6967,-0.6646,-0.6557,-0.6591,-0.6442,-0.6382,-0.6403,-0.6346,-0.6296,-0.6319,-0.6371,-0.6338,-0.6327,-0.6439,-0.6467,-0.6467,-0.6467,-0.6546,-0.6651,-0.6651,-0.6773,-0.6836,-0.6836,-0.7346,-0.7891,-0.8329,-0.8641,-0.8873,-0.9019,-0.9269,-0.9457,-0.9555,-0.9604,-0.9567,-0.9473,-0.9506,-0.9958,-1.0895,-1.2049,-1.316,-1.4244,-1.4786,-1.5022,-1.4969,-1.465,-1.4489,-1.4429,-1.4202,-1.4122,-1.4175,-1.4115,-1.4122,0.0,0.0,0.0,0.0,0.0,0.0,0.0,0.0,0.0,0.0,0.0,0.0,0.0,0.0,0.0,0.0,0.0,0.0,0.0,0.0,0.0,0.0,0.0,0.0,0.0,0.0,0.0,0.0,0.0,0.0,0.0,0.0,0.0,0.0,-0.0937,-0.0937,-0.0892,-0.0937,-0.1235,-0.1818,-0.159,-0.2224,-0.354,-0.3345,-0.3722,-0.4544,-0.4903,-0.4913,-0.4753,-0.5351,-0.5282,-0.4815,-0.5113,-0.5315,-0.5481,-0.5481,-0.5948,-0.6549,-0.6344,-0.6455,-0.6654,-0.6407,-0.6207,-0.6122,-0.613,-0.605,-0.6029,-0.6147,-0.6139,-0.6173,-0.6259,-0.6351,-0.6419,-0.6494,-0.6511,-0.6532,-0.6566,-0.6702,-0.681,-0.681,-0.6886,-0.6987,-0.6987,-0.749,-0.8076,-0.8524,-0.871,-0.8852,-0.8954,-0.9241,-0.9437,-0.9486,-0.9575,-0.9592,-0.9494,-0.9571,-1.0217,-1.1649,-1.2373,-1.3409,-1.4968,-1.514,-1.519,-1.519,-1.475,-1.4449,-1.4309,-1.4162,-1.4088,-1.4088,-1.4088,-1.4162,0.0,0.0,0.0,0.0,0.0,0.0,0.0,0.0,0.0,0.0,0.0,0.0,0.0,0.0,0.0,0.0,0.0,0.0,0.0,0.0,0.0,0.0,0.0,0.0,0.0,0.0,0.0,0.0,0.0,0.0,0.0,0.0,-0.0898,-0.0898,-0.0898,-0.0898,-0.0898,-0.0899,-0.1103,-0.1497,-0.1658,-0.2458,-0.3834,-0.4003,-0.4423,-0.5003,-0.5424,-0.5357,-0.4949,-0.5404,-0.5216,-0.4649,-0.4649,-0.4649,-0.4649,-0.4649,-0.5094,-0.5692,-0.5459,-0.5668,-0.5995,-0.5792,-0.5531,-0.5309,-0.5504,-0.553,-0.554,-0.5879,-0.5993,-0.6071,-0.6289,-0.6422,-0.6525,-0.6539,-0.6552,-0.6586,-0.6712,-0.6858,-0.6923,-0.6923,-0.7061,-0.7187,-0.7272,-0.7672,-0.8072,-0.8476,-0.8666,-0.8787,-0.877,-0.9153,-0.9416,-0.9445,-0.9539,-0.9579,-0.9579,-0.9579,-1.0502,-1.2587,-1.2678,-1.365,-1.573,-1.5271,-1.5035,-1.5082,-1.4696,-1.4402,-1.4162,-1.4215,-1.4278,-1.4278,-1.4278,-1.4369,0.0,0.0,0.0,0.0,0.0,0.0,0.0,0.0,0.0,0.0,0.0,0.0,0.0,0.0,0.0,0.0,0.0,0.0,0.0,0.0,0.0,0.0,0.0,0.0,0.0,0.0,0.0,0.0,0.0,0.0,0.0,-0.0898,-0.0898,-0.0898,-0.0898,-0.0898,-0.0898,-0.0899,-0.1092,-0.1513,-0.2495,-0.3136,-0.3498,-0.4497,-0.5224,-0.5778,-0.5997,-0.5812,-0.5336,-0.553,-0.502,-0.4092,-0.4092,-0.4092,-0.4092,-0.4092,-0.4467,-0.4906,-0.4592,-0.4531,-0.4509,-0.4025,-0.3912,-0.4057,-0.4533,-0.4751,-0.4973,-0.5794,-0.5993,-0.6057,-0.6373,-0.6497,-0.6539,-0.6803,-0.6868,-0.6829,-0.6852,-0.6967,-0.7068,-0.7068,-0.7265,-0.7591,-0.7981,-0.8113,-0.8201,-0.8245,-0.8572,-0.8782,-0.8703,-0.9131,-0.9465,-0.9575,-0.9612,-0.9579,-0.9579,-0.9579,-1.0502,-1.2587,-1.2678,-1.365,-1.573,-1.5271,-1.5129,-1.5337,-1.4803,-1.4502,-1.4462,-1.4723,-1.4894,-1.4894,-1.4894,-1.4914,0.0,0.0,0.0,0.0,0.0,0.0,0.0,0.0,0.0,0.0,0.0,0.0,0.0,0.0,0.0,0.0,0.0,0.0,0.0,0.0,0.0,0.0,0.0,0.0,0.0,0.0,0.0,0.0,0.0,0.0,-0.0898,-0.0898,-0.0898,-0.0898,-0.0898,-0.0898,-0.0898,-0.0911,-0.1146,-0.1691,-0.2467,-0.3227,-0.3919,-0.4746,-0.5292,-0.5639,-0.6021,-0.5595,-0.4641,-0.4977,-0.4495,-0.3556,-0.3499,-0.3511,-0.356,-0.356,-0.3892,-0.4289,-0.3954,-0.3984,-0.4061,-0.3653,-0.3492,-0.3543,-0.3835,-0.3971,-0.4138,-0.4622,-0.477,-0.4922,-0.5579,-0.5844,-0.6093,-0.6641,-0.6883,-0.698,-0.6903,-0.7131,-0.7367,-0.7499,-0.7503,-0.7635,-0.8113,-0.8282,-0.8362,-0.8396,-0.875,-0.892,-0.8754,-0.9134,-0.9433,-0.9466,-0.942,-0.9385,-0.9385,-0.9385,-1.0256,-1.2339,-1.263,-1.365,-1.573,-1.5431,-1.5264,-1.5391,-1.4269,-1.3743,-1.39,-1.348,-1.3269,-1.3269,-1.3269,-1.3665,0.0,0.0,0.0,0.0,0.0,0.0,0.0,0.0,0.0,0.0,0.0,0.0,0.0,0.0,0.0,0.0,0.0,0.0,0.0,0.0,0.0,0.0,0.0,0.0,0.0,0.0,0.0,0.0,0.0,0.0,-0.0898,-0.0898,-0.0898,-0.0898,-0.0898,-0.0898,-0.0898,-0.1065,-0.1344,-0.1818,-0.2554,-0.3348,-0.4196,-0.4829,-0.5148,-0.5244,-0.5845,-0.5361,-0.4132,-0.4525,-0.407,-0.3154,-0.3142,-0.3166,-0.3192,-0.3192,-0.3393,-0.3625,-0.3288,-0.3267,-0.3362,-0.3019,-0.2844,-0.2812,-0.3131,-0.3249,-0.3307,-0.3679,-0.3927,-0.4291,-0.5028,-0.5475,-0.5909,-0.6572,-0.6883,-0.7068,-0.7043,-0.7294,-0.7595,-0.7896,-0.7808,-0.7812,-0.8248,-0.8447,-0.8539,-0.8496,-0.8783,-0.8948,-0.8718,-0.902,-0.9276,-0.9272,-0.9151,-0.9084,-0.9084,-0.9426,-1.04,-1.2193,-1.2829,-1.3944,-1.573,-1.5551,-1.5431,-1.5504,-1.3758,-1.3066,-1.3483,-1.2548,-1.2117,-1.2117,-1.2117,-1.2623,0.0,0.0,0.0,0.0,0.0,0.0,0.0,0.0,0.0,0.0,0.0,0.0,0.0,0.0,0.0,0.0,0.0,0.0,0.0,0.0,0.0,0.0,0.0,0.0,0.0,0.0,0.0,0.0,0.0,0.0,-0.0898,-0.0898,-0.0898,-0.0898,-0.0898,-0.0898,-0.0898,-0.1456,-0.1762,-0.1818,-0.3109,-0.3755,-0.386,-0.4702,-0.4935,-0.4688,-0.5554,-0.5324,-0.4387,-0.4542,-0.4022,-0.3105,-0.3154,-0.3188,-0.3192,-0.3192,-0.3023,-0.272,-0.2388,-0.2088,-0.1748,-0.1365,-0.1247,-0.1462,-0.2288,-0.2571,-0.271,-0.3554,-0.4335,-0.4977,-0.5243,-0.5884,-0.6515,-0.6805,-0.6886,-0.702,-0.7376,-0.7499,-0.7635,-0.8113,-0.8157,-0.8248,-0.852,-0.8576,-0.8528,-0.8248,-0.8576,-0.871,-0.8353,-0.8716,-0.8985,-0.8844,-0.8817,-0.8825,-0.8825,-1.0002,-1.117,-1.2242,-1.3511,-1.4675,-1.5778,-1.5551,-1.5524,-1.5751,-1.3514,-1.2813,-1.3799,-1.3011,-1.2646,-1.2646,-1.2646,-1.27,0.0,0.0,0.0,0.0,0.0,0.0,0.0,0.0,0.0,0.0,0.0,0.0,0.0,0.0,0.0,0.0,0.0,0.0,0.0,0.0,0.0,0.0,0.0,0.0,0.0,0.0,0.0,0.0,0.0,0.0,-0.0785,-0.0842,-0.0898,-0.0898,-0.0898,-0.0898,-0.0898,-0.1511,-0.1874,-0.2071,-0.3239,-0.3882,-0.4079,-0.468,-0.4962,-0.4913,-0.4972,-0.4585,-0.3903,-0.4041,-0.3697,-0.3093,-0.3126,-0.3043,-0.2889,-0.2889,-0.2654,-0.2326,-0.1991,-0.1808,-0.1657,-0.1276,-0.1187,-0.1276,-0.1615,-0.2092,-0.2564,-0.2884,-0.3585,-0.4371,-0.5041,-0.5459,-0.5859,-0.6688,-0.6886,-0.7013,-0.7427,-0.7507,-0.7683,-0.8344,-0.8336,-0.8324,-0.8666,-0.8731,-0.8682,-0.8588,-0.8835,-0.893,-0.8851,-0.9056,-0.928,-0.9308,-0.9023,-0.8825,-0.8825,-0.9706,-1.0779,-1.1945,-1.3318,-1.458,-1.5737,-1.5732,-1.5678,-1.5778,-1.4338,-1.3427,-1.3076,-1.1483,-1.0694,-1.069,-1.0607,-1.1003,0.0,0.0,0.0,0.0,0.0,0.0,0.0,0.0,0.0,0.0,0.0,0.0,0.0,0.0,0.0,0.0,0.0,0.0,0.0,0.0,0.0,0.0,0.0,0.0,0.0,0.0,0.0,0.0,0.0,0.0,-0.0785,-0.0842,-0.0898,-0.0898,-0.0898,-0.0898,-0.0898,-0.1706,-0.2181,-0.2376,-0.3489,-0.4132,-0.4301,-0.4684,-0.4767,-0.4653,-0.4291,-0.394,-0.3603,-0.3701,-0.3413,-0.2934,-0.2961,-0.2841,-0.2686,-0.2587,-0.2319,-0.1959,-0.1771,-0.1621,-0.1503,-0.127,-0.1219,-0.123,-0.129,-0.1845,-0.2515,-0.2533,-0.3347,-0.4362,-0.4954,-0.5419,-0.5905,-0.6635,-0.6883,-0.7071,-0.7438,-0.7551,-0.7812,-0.834,-0.8384,-0.8416,-0.867,-0.8735,-0.8735,-0.8735,-0.8889,-0.8981,-0.8991,-0.9151,-0.928,-0.9308,-0.8928,-0.8676,-0.8676,-0.9899,-1.1023,-1.1848,-1.3553,-1.4914,-1.5778,-1.5784,-1.5784,-1.5784,-1.4825,-1.3956,-1.3221,-1.113,-0.9965,-0.9575,-0.9502,-1.0277,0.0,0.0,0.0,0.0,0.0,0.0,0.0,0.0,0.0,0.0,0.0,0.0,0.0,0.0,0.0,0.0,0.0,0.0,0.0,0.0,0.0,0.0,0.0,0.0,0.0,0.0,0.0,0.0,0.0,-0.0898,-0.0898,-0.0898,-0.0898,-0.0898,-0.0898,-0.0898,-0.0898,-0.2069,-0.2681,-0.2681,-0.3876,-0.4436,-0.4463,-0.4577,-0.4325,-0.3769,-0.3486,-0.3439,-0.356,-0.355,-0.3163,-0.2587,-0.2659,-0.2686,-0.2619,-0.2287,-0.1918,-0.1587,-0.1668,-0.1463,-0.1208,-0.1203,-0.1233,-0.1296,-0.1335,-0.1884,-0.2561,-0.2657,-0.382,-0.5031,-0.5031,-0.589,-0.6709,-0.6709,-0.6929,-0.7187,-0.7415,-0.768,-0.794,-0.8157,-0.8428,-0.8612,-0.8616,-0.8616,-0.8612,-0.8616,-0.871,-0.8786,-0.873,-0.8859,-0.8933,-0.8856,-0.8581,-0.8432,-0.8432,-1.0534,-1.1848,-1.1848,-1.4322,-1.5737,-1.5778,-1.5784,-1.5784,-1.5784,-1.4825,-1.4346,-1.4298,-1.2198,-1.0641,-0.9628,-0.9628,-1.0694,-0.4601,0.0,0.0,0.0,0.0,0.0,0.0,0.0,0.0,0.0,0.0,0.0,0.0,0.0,0.0,0.0,0.0,0.0,0.0,0.0,0.0,0.0,0.0,0.0,0.0,0.0,0.0,0.0,-0.0842,-0.087,-0.0757,-0.0842,-0.0898,-0.0898,-0.0898,-0.0898,-0.0898,-0.1652,-0.204,-0.2068,-0.282,-0.3209,-0.3209,-0.3236,-0.3209,-0.3128,-0.271,-0.2538,-0.2518,-0.2453,-0.232,-0.2166,-0.2296,-0.2151,-0.1882,-0.1816,-0.1547,-0.1252,-0.1313,-0.1268,-0.1212,-0.1266,-0.1289,-0.1414,-0.2002,-0.2782,-0.3565,-0.4178,-0.511,-0.5977,-0.6072,-0.6458,-0.6865,-0.6865,-0.6964,-0.7139,-0.7187,-0.7415,-0.7724,-0.8113,-0.8245,-0.842,-0.8682,-0.8649,-0.8653,-0.8731,-0.8686,-0.8747,-0.8959,-0.9043,-0.9144,-0.9345,-0.8977,-0.8676,-0.8676,-0.9801,-1.0632,-1.0779,-1.3071,-1.4532,-1.4729,-1.5397,-1.5784,-1.5784,-1.554,-1.5016,-1.4298,-1.2198,-1.1028,-1.0739,-0.9965,-1.0236,0.0,0.0,0.0,0.0,0.0,0.0,0.0,-0.3297,0.0,0.0,0.0,0.0,0.0,0.0,0.0,0.0,0.0,0.0,0.0,0.0,0.0,0.0,0.0,0.0,0.0,0.0,0.0,0.0,-0.0813,-0.0785,-0.0701,-0.0814,-0.0898,-0.0898,-0.0898,-0.0898,-0.0898,-0.1511,-0.179,-0.1818,-0.2402,-0.2708,-0.2708,-0.2708,-0.2597,-0.2434,-0.2158,-0.1883,-0.1633,-0.1594,-0.1695,-0.184,-0.1905,-0.1817,-0.158,-0.1446,-0.1253,-0.1102,-0.1186,-0.1211,-0.1194,-0.128,-0.1296,-0.1453,-0.2276,-0.3093,-0.3988,-0.4768,-0.5631,-0.632,-0.6402,-0.6607,-0.6834,-0.6834,-0.6947,-0.7095,-0.7095,-0.7231,-0.7455,-0.7852,-0.7984,-0.8188,-0.8512,-0.8492,-0.8508,-0.8698,-0.869,-0.8747,-0.8954,-0.9112,-0.9283,-0.949,-0.9186,-0.8977,-0.8977,-0.9805,-1.0391,-1.0538,-1.278,-1.4148,-1.4298,-1.5255,-1.5784,-1.5784,-1.5784,-1.5057,-1.3613,-1.2877,-1.2047,-1.117,-1.0109,-1.0102,0.0,0.0,0.0,0.0,0.0,0.0,-0.3805,-0.3241,-0.2738,0.0,0.0,0.0,0.0,0.0,0.0,0.0,0.0,0.0,0.0,0.0,0.0,0.0,0.0,0.0,0.0,0.0,-0.0898,-0.0898,-0.0785,-0.0701,-0.0701,-0.0813,-0.087,-0.087,-0.0898,-0.0898,-0.0898,-0.1428,-0.1706,-0.1706,-0.2235,-0.2514,-0.2514,-0.2514,-0.2207,-0.171,-0.171,-0.1438,-0.099,-0.0989,-0.1214,-0.1547,-0.1547,-0.1547,-0.1513,-0.121,-0.1093,-0.1121,-0.1191,-0.1184,-0.1213,-0.1285,-0.1375,-0.157,-0.2392,-0.3249,-0.4103,-0.4927,-0.5721,-0.6323,-0.6323,-0.6505,-0.6725,-0.6725,-0.6896,-0.7095,-0.7095,-0.7095,-0.7187,-0.7415,-0.768,-0.794,-0.8157,-0.8216,-0.832,-0.8593,-0.8723,-0.8828,-0.8848,-0.9129,-0.938,-0.94,-0.9274,-0.9187,-0.9187,-1.0055,-1.0636,-1.0636,-1.2732,-1.3956,-1.3956,-1.5064,-1.5635,-1.5635,-1.5635,-1.4663,-1.2678,-1.3661,-1.3076,-1.0979,-1.0064,-1.0109,0.0,0.0,0.0,0.0,0.0,0.0,-0.4298,-0.3935,-0.3572,0.0,0.0,0.0,0.0,0.0,0.0,0.0,0.0,0.0,0.0,0.0,0.0,0.0,0.0,0.0,0.0,0.0,-0.0898,-0.0898,-0.0785,-0.0701,-0.0701,-0.0729,-0.0729,-0.0729,-0.0842,-0.0898,-0.0898,-0.1009,-0.1065,-0.1065,-0.1205,-0.126,-0.126,-0.126,-0.1177,-0.1068,-0.1074,-0.105,-0.099,-0.0989,-0.1083,-0.121,-0.121,-0.121,-0.1176,-0.1109,-0.1113,-0.1127,-0.1183,-0.1207,-0.1221,-0.1278,-0.1727,-0.2431,-0.3288,-0.4105,-0.4927,-0.5789,-0.6264,-0.647,-0.647,-0.6658,-0.6842,-0.6842,-0.697,-0.7095,-0.7095,-0.7095,-0.7095,-0.7187,-0.7411,-0.7724,-0.8113,-0.8317,-0.8505,-0.8726,-0.88,-0.8873,-0.9023,-0.9104,-0.9202,-0.9388,-0.9274,-0.9187,-0.9187,-0.9381,-0.9525,-0.9525,-1.0935,-1.1804,-1.1804,-1.3607,-1.4586,-1.4586,-1.4586,-1.395,-1.2678,-1.2926,-1.1955,-0.9916,-0.9673,-0.9723,0.0,0.0,0.0,-0.42,0.0,0.0,0.0,-0.3983,0.0,0.0,0.0,0.0,0.0,0.0,0.0,0.0,0.0,0.0,0.0,0.0,0.0,0.0,0.0,0.0,0.0,0.0,-0.087,-0.0813,-0.0813,-0.0729,-0.0561,-0.0645,-0.0701,-0.0701,-0.0757,-0.0842,-0.0898,-0.0898,-0.0898,-0.0898,-0.0898,-0.0898,-0.0898,-0.0898,-0.0898,-0.09,-0.0945,-0.0974,-0.0992,-0.1036,-0.1072,-0.1097,-0.1116,-0.1109,-0.1109,-0.1109,-0.1129,-0.1161,-0.1192,-0.1223,-0.1331,-0.1753,-0.2158,-0.2744,-0.4027,-0.5002,-0.5747,-0.618,-0.6351,-0.6405,-0.6405,-0.659,-0.6814,-0.6814,-0.694,-0.7095,-0.7095,-0.7095,-0.7095,-0.7095,-0.7187,-0.748,-0.805,-0.8227,-0.8447,-0.89,-0.9031,-0.9088,-0.9096,-0.925,-0.936,-0.9404,-0.9421,-0.9381,-0.9381,-0.9381,-0.9381,-0.9381,-1.0542,-1.1219,-1.1219,-1.2684,-1.3511,-1.3511,-1.3511,-1.2974,-1.195,-1.195,-1.1419,-1.04,-0.9871,-0.9579,0.0,0.0,0.0,0.0,0.0,-0.4086,0.0,0.0,0.0,0.0,0.0,0.0,0.0,0.0,0.0,0.0,0.0,0.0,0.0,0.0,0.0,0.0,0.0,0.0,0.0,0.0,-0.096,-0.0729,-0.0902,-0.0847,-0.0421,-0.0561,-0.0645,-0.0645,-0.0673,-0.0757,-0.087,-0.0898,-0.0898,-0.0898,-0.0898,-0.0898,-0.0898,-0.0898,-0.09,-0.0909,-0.0965,-0.0992,-0.1001,-0.1087,-0.109,-0.111,-0.1085,-0.1117,-0.1127,-0.112,-0.1154,-0.1203,-0.121,-0.1245,-0.1406,-0.2233,-0.2705,-0.3251,-0.4771,-0.5747,-0.63,-0.63,-0.63,-0.63,-0.63,-0.6518,-0.6702,-0.6702,-0.6926,-0.7095,-0.7095,-0.7095,-0.7095,-0.7095,-0.7095,-0.7324,-0.7985,-0.8132,-0.839,-0.9074,-0.931,-0.9351,-0.9165,-0.9348,-0.9421,-0.932,-0.9421,-0.9529,-0.9529,-0.9579,-0.9579,-0.9579,-1.04,-1.0886,-1.0886,-1.1853,-1.2387,-1.2387,-1.2387,-1.1907,-1.0886,-1.0886,-1.0886,-1.0881,-1.0015,-0.9579,0.0,0.0,0.0,0.0,-0.3851,0.0,0.0,0.0,0.0,0.0,0.0,0.0,0.0,0.0,0.0,0.0,0.0,0.0,0.0,0.0,0.0,0.0,0.0,0.0,0.0,0.0,0.0,-0.0759,-0.1151,-0.1126,-0.0449,-0.0421,-0.0421,-0.0421,-0.0617,-0.0701,-0.0729,-0.0842,-0.0898,-0.0898,-0.0898,-0.0898,-0.0898,-0.0898,-0.0912,-0.0911,-0.0973,-0.1003,-0.0998,-0.1063,-0.1111,-0.1114,-0.1111,-0.1143,-0.1189,-0.1126,-0.1138,-0.1207,-0.1197,-0.1211,-0.1335,-0.2221,-0.3524,-0.4888,-0.5867,-0.6222,-0.63,-0.63,-0.63,-0.63,-0.63,-0.6518,-0.6702,-0.6702,-0.6926,-0.7095,-0.7095,-0.7095,-0.7095,-0.7095,-0.7095,-0.7324,-0.7985,-0.8267,-0.8605,-0.9251,-0.9388,-0.9396,-0.9375,-0.9168,-0.9043,-0.9024,-0.918,-0.9236,-0.9236,-0.948,-0.9579,-0.9579,-0.9723,-0.9772,-0.9772,-1.0788,-1.1365,-1.1365,-1.1365,-1.0837,-0.9772,-0.9772,-0.9772,-0.9772,-0.9673,-0.9579,0.0,0.0,0.0,0.0,0.0,0.0,0.0,0.0,-0.3769,0.0,0.0,0.0,0.0,0.0,0.0,0.0,0.0,0.0,0.0,0.0,0.0,0.0,0.0,0.0,0.0,0.0,0.0,0.0,0.0,-0.091,-0.0589,-0.0477,-0.0449,-0.0561,-0.0645,-0.0729,-0.0814,-0.087,-0.0898,-0.0898,-0.0898,-0.0898,-0.0898,-0.0898,-0.0914,-0.0915,-0.0975,-0.1005,-0.1003,-0.1064,-0.1086,-0.1102,-0.1102,-0.1117,-0.114,-0.1145,-0.1167,-0.1195,-0.1207,-0.1224,-0.1472,-0.281,-0.438,-0.5828,-0.6183,-0.63,-0.63,-0.63,-0.63,-0.63,-0.63,-0.6518,-0.6702,-0.6702,-0.6926,-0.7095,-0.7095,-0.7095,-0.7095,-0.7095,-0.7095,-0.7307,-0.7923,-0.8253,-0.8619,-0.9182,-0.9417,-0.951,-0.951,-0.927,-0.9123,-0.9123,-0.914,-0.9133,-0.8981,-0.9377,-0.9529,-0.9385,-0.9529,-0.9579,-0.9579,-0.9867,-1.006,-1.006,-1.006,-0.9817,-0.9381,-0.9529,-0.9579,-0.9579,-0.9579,-0.9579,-0.364,0.0,0.0,0.0,0.0,0.0,0.0,0.0,0.0,0.0,0.0,0.0,0.0,0.0,0.0,0.0,0.0,0.0,0.0,0.0,0.0,0.0,0.0,0.0,0.0,0.0,0.0,0.0,-0.0961,-0.082,-0.0617,-0.0477,-0.0477,-0.0617,-0.0673,-0.0757,-0.0842,-0.087,-0.0898,-0.0898,-0.0898,-0.0898,-0.0898,-0.0906,-0.0868,-0.0837,-0.0926,-0.0922,-0.0851,-0.0901,-0.0923,-0.0946,-0.0954,-0.0961,-0.0969,-0.1134,-0.1161,-0.1109,-0.1109,-0.1316,-0.1766,-0.2974,-0.438,-0.5631,-0.5631,-0.5631,-0.5631,-0.5631,-0.5789,-0.5944,-0.5944,-0.6318,-0.6702,-0.6702,-0.6926,-0.7095,-0.7095,-0.7095,-0.7095,-0.7095,-0.7095,-0.7269,-0.7766,-0.8081,-0.8456,-0.903,-0.9331,-0.948,-0.9377,-0.9229,-0.9084,-0.8985,-0.8985,-0.8931,-0.8825,-0.9229,-0.943,-0.9331,-0.948,-0.9579,-0.9579,-0.9331,-0.9187,-0.9187,-0.9133,-0.9133,-0.9187,-0.9327,-0.9476,-0.9579,-0.9579,-0.9579,0.0,0.0,0.0,-0.3665,0.0,0.0,0.0,0.0,-0.3357,0.0,0.0,0.0,0.0,0.0,0.0,-0.31,0.0,0.0,0.0,0.0,0.0,0.0,0.0,0.0,0.0,0.0,0.0,-0.1322,-0.1414,-0.1158,-0.0449,-0.0393,-0.0393,-0.0421,-0.0589,-0.0701,-0.0701,-0.0842,-0.0898,-0.0898,-0.0898,-0.0898,-0.0898,-0.0899,-0.0838,-0.071,-0.0764,-0.0689,-0.0505,-0.0506,-0.0513,-0.0527,-0.0576,-0.0628,-0.068,-0.1059,-0.1076,-0.0903,-0.0903,-0.1451,-0.2195,-0.2235,-0.2974,-0.3869,-0.3869,-0.3869,-0.3869,-0.3869,-0.4455,-0.5043,-0.5043,-0.5867,-0.6702,-0.6702,-0.6926,-0.7095,-0.7095,-0.7095,-0.7095,-0.7095,-0.7095,-0.7146,-0.7395,-0.7731,-0.8215,-0.8727,-0.9031,-0.9133,-0.8874,-0.8825,-0.8726,-0.8432,-0.8432,-0.8531,-0.8775,-0.9031,-0.9331,-0.9579,-0.9579,-0.9579,-0.9579,-0.9331,-0.9187,-0.9187,-0.8928,-0.8928,-0.9187,-0.8928,-0.9076,-0.9579,-0.9579,-0.9579,0.0,0.0,-0.2383,-0.3178,0.0,0.0,0.0,0.0,0.0,0.0,0.0,0.0,0.0,0.0,-0.3413,-0.3058,-0.2978,0.0,0.0,0.0,0.0,0.0,0.0,0.0,0.0,0.0,0.0,-0.1513,-0.1047,-0.0709,0.0,-0.0393,-0.0364,-0.0589,-0.0673,-0.0729,-0.0842,-0.087,-0.0898,-0.0898,-0.0898,-0.0908,-0.0899,-0.0909,-0.0849,-0.0764,-0.0804,-0.0689,-0.0506,-0.0506,-0.0508,-0.0514,-0.0573,-0.0586,-0.063,-0.0767,-0.0741,-0.0707,-0.0707,-0.1256,-0.2038,-0.2156,-0.2818,-0.3556,-0.3752,-0.3791,-0.3791,-0.3791,-0.4377,-0.4885,-0.4338,-0.4975,-0.5818,-0.5901,-0.6061,-0.634,-0.6962,-0.7095,-0.7095,-0.7095,-0.7095,-0.7146,-0.7346,-0.7506,-0.7783,-0.8333,-0.8867,-0.9084,-0.8825,-0.8825,-0.8676,-0.8432,-0.8382,-0.8432,-0.8531,-0.8935,-0.9236,-0.9335,-0.9335,-0.9232,-0.9076,-0.8829,-0.8684,-0.8684,-0.8581,-0.8581,-0.8684,-0.8775,-0.8874,-0.9076,-0.9076,-0.9274,-0.2362,-0.2142,0.0,-0.2619,-0.256,0.0,-0.3313,0.0,0.0,0.0,0.0,0.0,0.0,0.0,0.0,-0.2771,-0.2743,-0.2768,0.0,0.0,0.0,0.0,0.0,0.0,0.0,0.0,-0.179,-0.1512,-0.0925,-0.0561,0.0,0.0,-0.0364,-0.0589,-0.0701,-0.0813,-0.0898,-0.0898,-0.0898,-0.0898,-0.0851,-0.0837,-0.0825,-0.0784,-0.0685,-0.0582,-0.0621,-0.0497,-0.0337,-0.0337,-0.0339,-0.0343,-0.0355,-0.04,-0.0408,-0.0542,-0.055,-0.0471,-0.0393,-0.0785,-0.1372,-0.1569,-0.2037,-0.2543,-0.2818,-0.2898,-0.2898,-0.2898,-0.3502,-0.4038,-0.3525,-0.4138,-0.4999,-0.542,-0.5618,-0.5941,-0.6918,-0.7095,-0.7095,-0.7095,-0.7095,-0.7129,-0.7272,-0.7333,-0.7567,-0.8014,-0.8582,-0.8867,-0.8574,-0.8676,-0.8676,-0.8287,-0.8237,-0.8262,-0.8308,-0.8694,-0.8904,-0.8904,-0.8961,-0.8894,-0.8743,-0.8502,-0.8382,-0.8382,-0.8283,-0.8283,-0.8382,-0.8482,-0.8627,-0.8775,-0.8726,-0.8878]}]]